Date StartTime U_cm/s V_cm/s W_cm/s Ustd_cm/s Vstd_cm/s Wstd_cm/s Uvar_(cm/s)^2 Vvar_(cm/s)^2 Wvar_(cm/s)^2 KE_(m/s)^2 TurbulentKE_(m/s)^2 HorizWindSpeed_cm/s FrictionSpeec_cm/s DragCoef SpeedOfSound_m/s SonicTemperature_C Pressure_mb 
10/04/2013  00:00:00       12.805      -21.781        4.940       15.148       14.426       13.267      229.456      208.112      176.005        0.064        0.031       25.267       12.048        0.227      335.915        6.867      867.329
10/04/2013  00:01:00       34.004      -60.668       -1.105       17.215       17.995       12.610      296.350      323.814      159.001        0.281        0.039       69.547        8.811        0.016      336.051        7.093      867.349
10/04/2013  00:02:00       42.301      -46.555        1.741       18.413       23.508       15.110      339.040      552.616      228.298        0.254        0.056       62.903        7.066        0.013      336.048        7.087      867.356
10/04/2013  00:03:00       24.821      -28.996       -0.913       16.097       17.251       11.476      259.103      297.605      131.694        0.107        0.034       38.168        8.589        0.051      336.026        7.049      867.355
10/04/2013  00:04:00       11.936      -35.107       -6.856       17.121       19.461       12.470      293.113      378.719      155.511        0.112        0.041       37.080        6.894        0.035      336.029        7.056      867.354
10/04/2013  00:05:00       12.216        3.149       13.509       12.482       17.760        7.896      155.806      315.427       62.345        0.044        0.027       12.615        2.592        0.042      335.892        6.827      867.370
10/04/2013  00:06:00       31.343       25.051        8.180       11.584        8.713        8.747      134.199       75.923       76.508        0.098        0.014       40.124        4.003        0.010      335.975        6.966      867.380
10/04/2013  00:07:00       32.214       21.322        8.673       10.489       12.215        8.559      110.030      149.206       73.249        0.095        0.017       38.631        4.698        0.015      335.952        6.929      867.373
10/04/2013  00:08:00        1.438       31.231       -6.053       10.774       11.021        5.842      116.089      121.454       34.126        0.064        0.014       31.264        6.764        0.047      336.008        7.020      867.356
10/04/2013  00:09:00       56.939       48.059        7.166       26.787       17.282       19.074      717.567      298.663      363.828        0.349        0.069       74.510       16.608        0.050      336.043        7.081      867.352
10/04/2013  00:10:00       34.901       48.912       -5.327       18.534       21.758       13.575      343.525      473.397      184.281        0.232        0.050       60.087       12.281        0.042      335.992        6.995      867.344
10/04/2013  00:11:00       76.210       57.476       17.421       39.123       29.699       27.649     1530.602      882.018      764.471        0.630        0.159       95.454       19.789        0.043      336.055        7.101      867.336
10/04/2013  00:12:00       76.661       59.341       13.127       43.003       29.597       26.150     1849.257      875.991      683.811        0.649        0.170       96.944       20.857        0.046      336.016        7.035      867.329
10/04/2013  00:13:00       59.155       65.628       -3.211       34.254       31.598       22.117     1173.349      998.419      489.182        0.524        0.133       88.354       20.524        0.054      335.871        6.794      867.335
10/04/2013  00:14:00       85.147       56.980       22.202       37.511       25.177       38.430     1407.078      633.897     1476.864        0.725        0.176      102.454       24.502        0.057      335.827        6.720      867.340
10/04/2013  00:15:00       88.894       65.994       12.196       37.794       32.650       34.973     1428.416     1066.008     1223.126        0.806        0.186      110.713       22.285        0.041      335.832        6.729      867.338
10/04/2013  00:16:00       95.052       49.973       12.807       21.430       21.878       21.417      459.255      478.636      458.681        0.655        0.070      107.388       11.277        0.011      335.737        6.570      867.325
10/04/2013  00:17:00       77.150       33.801       18.030       46.079       21.972       15.939     2123.253      482.750      254.057        0.514        0.143       84.230       17.928        0.045      335.634        6.398      867.308
10/04/2013  00:18:00      114.060       39.439       15.436       37.416       27.572       25.966     1399.926      760.205      674.215        0.882        0.142      120.686       17.802        0.022      335.718        6.539      867.295
10/04/2013  00:19:00       93.967       40.611       16.587       44.622       26.608       26.107     1991.155      707.963      681.565        0.707        0.169      102.367       17.965        0.031      335.635        6.401      867.296
10/04/2013  00:20:00      105.579       52.768       17.852       27.740       27.728       22.242      769.490      768.819      494.693        0.814        0.102      118.032       15.310        0.017      335.583        6.315      867.310
10/04/2013  00:21:00       94.138       65.813       12.966       34.121       31.264       20.800     1164.221      977.432      432.630        0.797        0.129      114.862       14.988        0.017      335.525        6.218      867.327
10/04/2013  00:22:00       87.038       58.281       12.030       42.121       29.543       21.369     1774.166      872.769      456.649        0.711        0.155      104.749       16.856        0.026      335.480        6.141      867.339
10/04/2013  00:23:00       64.096       28.971        7.657       27.638       25.681       20.268      763.845      659.489      410.804        0.342        0.092       70.339       13.517        0.037      335.443        6.080      867.338
10/04/2013  00:24:00       56.853       48.484        2.354       23.664       23.747       23.841      559.974      563.916      568.408        0.364        0.085       74.719       14.126        0.036      335.561        6.277      867.336
10/04/2013  00:25:00       16.479       64.124       -1.594       30.393       32.744       24.458      923.730     1072.142      598.197        0.349        0.130       66.208       16.845        0.065      335.704        6.515      867.319
10/04/2013  00:26:00       43.423       34.860        6.456       26.939       18.424       21.427      725.712      339.458      459.100        0.233        0.076       55.684       14.869        0.071      335.619        6.373      867.323
10/04/2013  00:27:00       37.728       35.165       -2.179       20.914       22.510       13.716      437.398      506.696      188.121        0.190        0.057       51.575       12.077        0.055      335.641        6.411      867.316
10/04/2013  00:28:00       17.175       34.198       -2.287       18.098       22.765       10.612      327.539      518.267      112.606        0.121        0.048       38.269        4.683        0.015      335.613        6.363      867.303
10/04/2013  00:29:00       33.904       35.971       -0.774       22.533       28.507       14.622      507.749      812.670      213.813        0.199        0.077       49.431       11.374        0.053      335.614        6.366      867.291
10/04/2013  00:30:00       28.956       20.184        8.298       27.745       20.162       17.008      769.797      406.488      289.285        0.139        0.073       35.297       12.195        0.119      335.647        6.420      867.292
10/04/2013  00:31:00       17.606        3.067       16.150       11.784        9.582        9.355      138.855       91.813       87.523        0.045        0.016       17.872        6.204        0.121      335.423        6.046      867.283
10/04/2013  00:32:00       51.466       16.102        8.688       16.759       13.444       11.419      280.876      180.753      130.386        0.179        0.030       53.926        8.294        0.024      335.613        6.365      867.277
10/04/2013  00:33:00       80.243       49.518       17.449       35.056       20.571       18.406     1228.922      423.183      338.763        0.559        0.100       94.292        8.822        0.009      335.638        6.406      867.273
10/04/2013  00:34:00       57.706       56.100        4.421       29.262       22.211       20.050      856.268      493.349      402.022        0.412        0.088       80.481       17.898        0.049      335.517        6.204      867.268
10/04/2013  00:35:00       77.070       45.916       10.133       25.946       21.133       16.649      673.195      446.611      277.187        0.477        0.070       89.711       11.555        0.017      335.549        6.257      867.275
10/04/2013  00:36:00       16.370        9.057       25.266       35.563       35.629       17.526     1264.759     1269.421      307.157        0.191        0.142       18.709       14.749        0.622      335.573        6.296      867.276
10/04/2013  00:37:00        5.501        1.085        3.334        9.108        6.554        9.259       82.952       42.952       85.732        0.013        0.011        5.607        2.726        0.236      335.523        6.213      867.281
10/04/2013  00:38:00        3.536       11.838       12.453        7.534       11.868        9.060       56.759      140.854       82.089        0.029        0.014       12.355        8.267        0.448      335.480        6.140      867.300
10/04/2013  00:39:00       10.177       22.942       15.637       13.373        6.905        7.827      178.825       47.683       61.259        0.058        0.014       25.098        7.719        0.095      335.437        6.071      867.312
10/04/2013  00:40:00       13.097        3.863        9.228        8.485       12.039        8.015       72.002      144.941       64.233        0.028        0.014       13.655        7.703        0.318      335.470        6.124      867.327
10/04/2013  00:41:00        4.227       -1.429        3.014        5.865        5.643        4.430       34.401       31.841       19.628        0.006        0.004        4.462        2.488        0.311      335.480        6.143      867.334
10/04/2013  00:42:00       13.380       11.785        3.837       11.885        9.597        7.705      141.244       92.094       59.367        0.031        0.015       17.830        3.424        0.037      335.599        6.338      867.323
10/04/2013  00:43:00       14.192       35.844       -5.073       13.900       13.788       10.433      193.223      190.115      108.837        0.100        0.025       38.552        8.087        0.044      335.695        6.500      867.322
10/04/2013  00:44:00        2.968       19.074       -2.591       11.866       10.391        7.447      140.814      107.978       55.455        0.034        0.015       19.303        6.293        0.106      335.588        6.323      867.325
10/04/2013  00:45:00      -36.230        1.673        4.669       12.242        7.452        6.980      149.865       55.526       48.721        0.080        0.013       36.268        5.980        0.027      335.592        6.329      867.333
10/04/2013  00:46:00      -25.252       -0.448      -11.513       10.679       13.541        6.887      114.038      183.368       47.435        0.056        0.017       25.256        5.642        0.050      335.582        6.312      867.345
10/04/2013  00:47:00       -8.016      -13.617       -5.277       11.383        7.893        5.461      129.573       62.301       29.821        0.025        0.011       15.802        3.170        0.040      335.701        6.512      867.349
10/04/2013  00:48:00      -12.010      -18.241       -0.780        9.390        8.245        4.078       88.179       67.972       16.628        0.033        0.009       21.840        3.460        0.025      335.747        6.588      867.353
10/04/2013  00:49:00      -34.421      -11.800       -6.992        6.483       10.463        7.211       42.026      109.478       51.998        0.079        0.010       36.388        3.664        0.010      335.550        6.258      867.353
10/04/2013  00:50:00      -33.874        5.473       -8.542       20.514        6.879        7.092      420.810       47.319       50.293        0.088        0.026       34.313        6.836        0.040      335.592        6.328      867.372
10/04/2013  00:51:00      -57.256        8.533       -6.635       12.303       13.835        8.374      151.363      191.405       70.116        0.190        0.021       57.888        8.606        0.022      335.458        6.106      867.387
10/04/2013  00:52:00      -69.616        1.359      -12.837       10.158        9.033       10.411      103.195       81.599      108.384        0.265        0.015       69.629        3.830        0.003      335.328        5.889      867.416
10/04/2013  00:53:00      -63.309       -7.105       -9.569       22.668       18.846       14.570      513.857      355.170      212.288        0.262        0.054       63.706       13.613        0.046      335.321        5.875      867.434
10/04/2013  00:54:00      -70.753       -7.283      -12.746       24.503       18.615        9.430      600.387      346.512       88.920        0.313        0.052       71.127        8.166        0.013      335.220        5.709      867.445
10/04/2013  00:55:00      -55.937      -14.648      -10.773       24.815       16.793        9.990      615.782      281.999       99.792        0.223        0.050       57.823        5.804        0.010      335.158        5.606      867.464
10/04/2013  00:56:00      -51.449      -24.844       -8.982       19.431       18.005       11.517      377.572      324.176      132.646        0.209        0.042       57.134        7.863        0.019      335.162        5.613      867.485
10/04/2013  00:57:00      -76.877       -7.377      -11.380       14.896       13.021       11.552      221.897      169.543      133.454        0.331        0.026       77.230        6.679        0.007      335.058        5.440      867.501
10/04/2013  00:58:00      -77.224       -7.583      -10.681       25.287       13.188       11.282      639.449      173.920      127.282        0.354        0.047       77.595       10.506        0.018      335.096        5.503      867.514
10/04/2013  00:59:00      -88.180      -24.898      -12.662       15.061       15.439       11.458      226.822      238.358      131.282        0.458        0.030       91.627        6.028        0.004      335.069        5.460      867.522
10/04/2013  01:00:00      -87.633      -31.002       -4.652       20.559       17.983       11.888      422.672      323.381      141.321        0.477        0.044       92.955        9.805        0.011      334.992        5.331      867.529
10/04/2013  01:01:00     -100.843      -14.455      -10.043       20.501       19.751       12.957      420.282      390.083      167.875        0.573        0.049      101.873        9.881        0.009      334.933        5.232      867.545
10/04/2013  01:02:00      -56.418      -35.740       -2.854       32.585       19.682       19.421     1061.770      387.366      377.180        0.315        0.091       66.786        6.818        0.010      334.933        5.233      867.565
10/04/2013  01:03:00      -87.760      -31.844      -10.205       26.128       19.447       12.277      682.686      378.198      150.721        0.502        0.061       93.359       10.233        0.012      334.849        5.092      867.592
10/04/2013  01:04:00      -56.729      -36.794       -3.904       20.441       18.129       13.443      417.849      328.649      180.717        0.276        0.046       67.616        9.668        0.020      334.888        5.158      867.622
10/04/2013  01:05:00      -72.909      -17.864        0.010       36.707       31.544       17.359     1347.391      995.011      301.334        0.414        0.132       75.065       15.669        0.044      334.942        5.249      867.640
10/04/2013  01:06:00      -62.467      -13.418       -2.642       43.460       22.748       18.280     1888.732      517.492      334.154        0.341        0.137       63.892       17.110        0.072      335.023        5.382      867.651
10/04/2013  01:07:00      -80.894      -27.749      -10.549       22.596       20.615       13.248      510.563      424.962      175.498        0.427        0.056       85.521        4.998        0.003      335.077        5.473      867.649
10/04/2013  01:08:00      -68.011      -29.871       -6.285       16.658       18.462       12.756      277.473      340.858      162.723        0.317        0.039       74.282        8.333        0.013      335.067        5.456      867.642
10/04/2013  01:09:00      -37.721      -35.690       -8.729       28.485       18.336       13.790      811.422      336.218      190.160        0.206        0.067       51.929        8.517        0.027      335.023        5.382      867.636
10/04/2013  01:10:00      -76.095      -22.814      -15.568       21.826       18.934        9.704      476.392      358.494       94.164        0.374        0.046       79.442        7.611        0.009      334.958        5.273      867.641
10/04/2013  01:11:00      -63.805      -21.879       -6.150       17.974       21.527       11.479      323.080      463.417      131.763        0.275        0.046       67.452        6.807        0.010      334.990        5.327      867.669
10/04/2013  01:12:00      -76.000      -13.752       -7.985       19.188       23.364       11.323      368.193      545.879      128.208        0.354        0.052       77.234        9.979        0.017      334.901        5.179      867.699
10/04/2013  01:13:00      -91.416       -3.291      -15.223       41.541       27.016       18.648     1725.659      729.838      347.758        0.570        0.140       91.475       17.378        0.036      334.864        5.118      867.715
10/04/2013  01:14:00      -54.802        0.625       -1.192       34.399       35.799       23.336     1183.308     1281.557      544.572        0.301        0.150       54.805       20.494        0.140      334.721        4.880      867.748
10/04/2013  01:15:00      -69.703      -14.351       -3.343       41.442       24.267       22.894     1717.437      588.876      524.137        0.395        0.142       71.165       19.184        0.073      334.669        4.794      867.764
10/04/2013  01:16:00      -94.576      -20.039       -9.275       44.429       32.234       20.157     1973.932     1039.045      406.299        0.643        0.171       96.676       13.595        0.020      334.751        4.929      867.779
10/04/2013  01:17:00      -96.324      -38.345      -11.879       23.483       25.414       18.581      551.468      645.894      345.244        0.622        0.077      103.675        9.057        0.008      334.751        4.929      867.780
10/04/2013  01:18:00      -51.669       -9.020      -14.299       34.140       24.560       19.028     1165.544      603.185      362.058        0.254        0.107       52.451       14.208        0.073      334.719        4.877      867.786
10/04/2013  01:19:00      -18.845       -4.013       -5.002       22.859       13.962       11.896      522.546      194.927      141.517        0.063        0.043       19.267        4.489        0.054      334.706        4.857      867.787
10/04/2013  01:20:00      -26.786       -3.475       -4.840       25.187       19.564       17.245      634.393      382.766      297.379        0.103        0.066       27.010        9.648        0.128      334.763        4.950      867.805
10/04/2013  01:21:00       13.400      -30.654        4.803       20.008       26.287       17.750      400.313      691.016      315.046        0.127        0.070       33.455       14.377        0.185      334.747        4.924      867.837
10/04/2013  01:22:00      -64.090      -15.580      -21.939       25.477       18.529       14.498      649.088      343.337      210.206        0.302        0.060       65.956        4.495        0.005      334.797        5.006      867.840
10/04/2013  01:23:00      -63.999      -23.132       -3.145       31.462       21.058       19.496      989.836      443.427      380.075        0.323        0.091       68.051       19.677        0.084      334.689        4.827      867.833
10/04/2013  01:24:00      -61.848      -29.849       -6.881       17.149       21.558       12.924      294.099      464.752      167.023        0.284        0.046       68.674        5.934        0.007      334.741        4.915      867.833
10/04/2013  01:25:00      -45.347      -10.696       -4.360       26.580       16.022       14.387      706.493      256.715      206.996        0.168        0.059       46.591       11.067        0.056      334.717        4.874      867.838
10/04/2013  01:26:00      -73.237      -39.554      -21.646       17.531       23.435       15.979      307.327      549.191      255.343        0.425        0.056       83.235       12.243        0.022      334.746        4.922      867.845
10/04/2013  01:27:00      -69.746      -58.174      -14.122       25.387       27.613       19.710      644.495      762.492      388.488        0.512        0.090       90.823       10.986        0.015      334.732        4.897      867.854
10/04/2013  01:28:00     -104.959      -24.893      -18.642       17.490       18.577       14.432      305.916      345.113      208.275        0.642        0.043      107.871        7.432        0.005      334.646        4.754      867.860
10/04/2013  01:29:00     -105.706        0.342      -18.407       13.805       15.580       12.992      190.574      242.732      168.792        0.606        0.030      105.706       10.060        0.009      334.760        4.944      867.877
10/04/2013  01:30:00      -82.119      -14.596      -21.594       21.188       21.429        9.937      448.924      459.183       98.736        0.421        0.050       83.406        7.100        0.007      334.806        5.022      867.881
10/04/2013  01:31:00      -63.820      -24.269       -6.718       19.278       14.932       11.842      371.629      222.953      140.239        0.272        0.037       68.279        6.592        0.009      334.801        5.014      867.887
10/04/2013  01:32:00      -80.914      -40.609      -14.418       19.004       17.234       12.070      361.133      297.010      145.697        0.460        0.040       90.533        8.498        0.009      334.784        4.985      867.889
10/04/2013  01:33:00      -81.313      -11.472       -7.747       27.456       25.647       21.256      753.820      657.748      451.823        0.433        0.093       82.119       14.015        0.029      334.982        5.315      867.904
10/04/2013  01:34:00      -41.703       -6.760       -6.653       18.650       11.810       11.956      347.837      139.471      142.940        0.123        0.032       42.248        5.809        0.019      334.762        4.949      867.911
10/04/2013  01:35:00      -51.920      -18.006      -11.553       21.177       14.788       12.517      448.465      218.688      156.682        0.199        0.041       54.953        9.264        0.028      334.780        4.978      867.923
10/04/2013  01:36:00      -65.084      -20.569      -14.365       13.330       15.638       12.125      177.696      244.536      147.014        0.272        0.028       68.257        5.249        0.006      334.725        4.887      867.949
10/04/2013  01:37:00      -68.723      -18.184      -13.239       23.395       22.848       14.384      547.326      522.041      206.903        0.325        0.064       71.088        8.587        0.015      334.656        4.774      867.965
10/04/2013  01:38:00      -75.898      -16.902      -14.994       23.417       16.057       16.448      548.356      257.838      270.521        0.367        0.054       77.757       12.658        0.027      334.787        4.989      867.979
10/04/2013  01:39:00      -50.810      -25.268      -16.169       22.716       11.743       11.714      515.997      137.892      137.222        0.214        0.040       56.747        4.365        0.006      334.632        4.733      867.995
10/04/2013  01:40:00      -54.754      -29.932      -12.160       16.340       19.380       11.441      267.003      375.567      130.903        0.241        0.039       62.401        7.488        0.014      334.696        4.837      868.023
10/04/2013  01:41:00      -45.040      -20.424       -5.587       24.313       16.390       13.958      591.130      268.623      194.822        0.177        0.053       49.454        3.743        0.006      334.614        4.704      868.034
10/04/2013  01:42:00      -25.759       -4.349       -8.885       35.945       23.745       20.651     1292.070      563.845      426.481        0.152        0.114       26.123       18.315        0.492      335.037        5.405      868.024
10/04/2013  01:43:00      -28.565       -8.887        0.807       24.813       28.996       20.484      615.676      840.756      419.589        0.139        0.094       29.916       13.794        0.213      334.871        5.131      868.021
10/04/2013  01:44:00        7.257      -16.801       -8.966       10.784       14.280       12.022      116.302      203.931      144.520        0.044        0.023       18.301        8.215        0.201      334.715        4.872      868.031
10/04/2013  01:45:00       -6.534       -3.355        0.804       16.370       20.839        9.050      267.984      434.259       81.905        0.042        0.039        7.345        8.667        1.392      335.023        5.382      868.031
10/04/2013  01:46:00       -5.833        5.491       -0.477       18.275       18.819       11.332      333.991      354.167      128.418        0.044        0.041        8.011        5.072        0.401      335.136        5.569      868.019
10/04/2013  01:47:00      -34.872      -11.466       -2.586       23.668       15.246       16.530      560.169      232.432      273.252        0.121        0.053       36.708        8.031        0.048      334.861        5.113      868.011
10/04/2013  01:48:00      -67.305      -31.470       -7.991       14.125       17.151       12.339      199.504      294.146      152.242        0.311        0.032       74.298        7.804        0.011      334.503        4.520      868.027
10/04/2013  01:49:00      -75.873      -38.871      -13.381       10.180        9.654        6.780      103.632       93.192       45.969        0.384        0.012       85.251        4.119        0.002      334.397        4.344      868.044
10/04/2013  01:50:00      -76.127      -18.950      -15.356        8.906       13.021        7.833       79.321      169.538       61.362        0.335        0.016       78.450        6.881        0.008      334.449        4.429      868.062
10/04/2013  01:51:00      -57.693      -36.021      -15.495       13.833       12.008       11.941      191.356      144.193      142.586        0.267        0.024       68.015        8.517        0.016      334.637        4.743      868.084
10/04/2013  01:52:00      -73.700      -33.739       -7.461       24.444       14.983       14.121      597.506      224.484      199.415        0.382        0.051       81.055       10.443        0.017      334.649        4.761      868.109
10/04/2013  01:53:00     -104.020      -55.634       -9.536       26.405       22.400       16.871      697.200      501.759      284.635        0.774        0.074      117.963        8.475        0.005      334.671        4.799      868.133
10/04/2013  01:54:00      -99.244      -58.883       -2.963       55.000       31.605       22.478     3025.042      998.882      505.243        0.893        0.226      115.398       25.325        0.048      334.603        4.685      868.155
10/04/2013  01:55:00      -99.846      -52.229        1.394       25.013       22.887       20.019      625.644      523.793      400.743        0.712        0.078      112.681       14.678        0.017      334.510        4.531      868.174
10/04/2013  01:56:00      -81.612      -32.260       -0.835       34.835       23.518       16.106     1213.469      553.073      259.397        0.486        0.101       87.756       16.598        0.036      334.499        4.513      868.191
10/04/2013  01:57:00     -102.470      -29.031      -14.040       23.578       19.783       14.152      555.935      391.357      200.271        0.634        0.057      106.503        7.882        0.005      334.540        4.580      868.214
10/04/2013  01:58:00     -102.207      -10.042      -10.280       23.333       16.164       11.107      544.449      261.262      123.368        0.579        0.046      102.699        8.976        0.008      334.613        4.701      868.213
10/04/2013  01:59:00      -87.306       -8.733      -18.201       14.098       15.519       10.001      198.754      240.831      100.020        0.428        0.027       87.742        5.554        0.004      334.608        4.691      868.205
10/04/2013  02:00:00      -68.755        8.453       -8.809       10.172       10.922        7.808      103.461      119.296       60.964        0.258        0.014       69.273        6.644        0.009      334.636        4.740      868.203
10/04/2013  02:01:00      -83.646        1.785      -11.440       11.329        9.734        7.333      128.340       94.760       53.771        0.370        0.014       83.665        3.223        0.001      334.718        4.877      868.216
10/04/2013  02:02:00      -73.107       -9.684      -11.423       12.905       11.812        9.283      166.537      139.526       86.174        0.298        0.020       73.746        6.024        0.007      334.808        5.026      868.239
10/04/2013  02:03:00      -70.499      -12.981      -15.168        8.542        9.272        6.722       72.960       85.965       45.189        0.279        0.010       71.685        5.397        0.006      334.803        5.018      868.263
10/04/2013  02:04:00      -65.830       -9.842      -10.818       12.969       10.754        9.201      168.192      115.639       84.656        0.246        0.018       66.561        6.454        0.009      334.729        4.893      868.269
10/04/2013  02:05:00      -38.957      -10.805      -16.314       12.262       11.571        9.502      150.364      133.876       90.288        0.114        0.019       40.427        5.890        0.021      334.762        4.948      868.273
10/04/2013  02:06:00      -38.432      -10.852      -12.020       16.057       13.712        8.577      257.840      188.017       73.564        0.113        0.026       39.935        5.720        0.021      334.918        5.207      868.282
10/04/2013  02:07:00      -21.652      -29.883      -13.951       12.332       10.435        9.614      152.087      108.886       92.437        0.095        0.018       36.903        4.816        0.017      334.745        4.921      868.304
10/04/2013  02:08:00       -6.647       -9.657       -2.952       11.082       13.279        5.984      122.800      176.336       35.804        0.024        0.017       11.723        6.828        0.339      335.059        5.443      868.312
10/04/2013  02:09:00      -16.053        5.275        1.186       10.341        9.208        5.476      106.935       84.782       29.990        0.025        0.011       16.897        4.269        0.064      335.186        5.652      868.311
10/04/2013  02:10:00      -34.903      -20.716       -3.310       11.059       13.939        8.829      122.305      194.285       77.948        0.103        0.020       40.588        5.608        0.019      334.796        5.005      868.300
10/04/2013  02:11:00      -26.786      -14.676       -6.539       11.556       10.534        7.088      133.538      110.968       50.234        0.064        0.015       30.543        3.298        0.012      334.633        4.734      868.301
10/04/2013  02:12:00      -39.488      -19.700       -8.556        6.846        9.812        5.944       46.873       96.275       35.331        0.110        0.009       44.129        1.476        0.001      334.626        4.723      868.315
10/04/2013  02:13:00      -16.437        5.233        0.415       13.953       10.883        9.285      194.699      118.450       86.211        0.035        0.020       17.250        8.308        0.232      334.965        5.286      868.339
10/04/2013  02:14:00        9.126       12.972       -0.329       12.355       18.004        8.038      152.642      324.140       64.605        0.040        0.027       15.860        9.655        0.371      335.407        6.022      868.361
10/04/2013  02:15:00      -20.609      -23.875      -11.553       14.183       12.855       11.207      201.159      165.245      125.596        0.081        0.025       31.540        7.814        0.061      334.849        5.094      868.367
10/04/2013  02:16:00      -16.877      -10.636       -5.740       15.943       21.018       10.763      254.192      441.758      115.836        0.062        0.041       19.949       11.115        0.310      335.142        5.579      868.377
10/04/2013  02:17:00      -34.039      -32.216      -12.690       15.914       11.045        6.369      253.242      121.990       40.562        0.139        0.021       46.867        5.721        0.015      334.731        4.897      868.388
10/04/2013  02:18:00      -65.252      -17.343      -11.705        8.769        9.679        6.894       76.898       93.689       47.532        0.246        0.011       67.518        4.756        0.005      334.295        4.173      868.405
10/04/2013  02:19:00      -69.342      -11.377      -13.922       11.146       10.229        7.223      124.236      104.631       52.165        0.271        0.014       70.269        4.700        0.004      334.349        4.263      868.426
10/04/2013  02:20:00      -74.329      -21.290      -18.082       11.042        9.699        8.607      121.927       94.079       74.072        0.330        0.015       77.318        4.511        0.003      334.342        4.252      868.445
10/04/2013  02:21:00      -57.544      -25.174      -15.626       13.345       16.055        8.682      178.100      257.757       75.369        0.235        0.026       62.810        4.907        0.006      334.398        4.344      868.472
10/04/2013  02:22:00      -74.676      -32.842      -17.917        9.892       14.563       10.542       97.851      212.090      111.131        0.370        0.021       81.579        8.772        0.012      334.345        4.258      868.481
10/04/2013  02:23:00      -80.907      -31.170      -10.412       13.154       12.308       12.929      173.034      151.496      167.147        0.406        0.025       86.703        6.877        0.006      334.274        4.138      868.486
10/04/2013  02:24:00     -104.649      -46.539      -16.492       22.360       17.093       14.288      499.964      292.187      204.137        0.719        0.050      114.531        8.534        0.006      334.365        4.290      868.480
10/04/2013  02:25:00     -122.340      -29.667      -21.693       20.269       29.088       16.046      410.849      846.083      257.469        0.892        0.076      125.886        8.438        0.004      334.224        4.057      868.461
10/04/2013  02:26:00      -92.960        0.399      -16.026       14.271       14.376       13.412      203.652      206.683      179.873        0.474        0.030       92.961        9.579        0.011      334.224        4.056      868.447
10/04/2013  02:27:00      -76.500        6.373      -20.267       14.174       18.495       14.404      200.911      342.070      207.479        0.353        0.038       76.765       12.119        0.025      334.305        4.190      868.428
10/04/2013  02:28:00      -76.158      -15.004       -9.547       10.942       13.861       11.837      119.729      192.122      140.111        0.328        0.023       77.622        6.363        0.007      334.359        4.279      868.408
10/04/2013  02:29:00      -65.022      -23.936      -23.050       14.138       17.077       11.501      199.896      291.620      132.262        0.298        0.031       69.288        4.999        0.005      334.343        4.254      868.391
10/04/2013  02:30:00      -69.583      -11.827      -14.965       16.571       11.606       10.101      274.614      134.688      102.027        0.286        0.026       70.581        4.801        0.005      334.318        4.213      868.376
10/04/2013  02:31:00      -36.203      -17.444      -10.988        8.816       14.608       10.111       77.727      213.400      102.239        0.106        0.020       40.187        7.804        0.038      334.509        4.529      868.395
10/04/2013  02:32:00      -51.217        3.045      -12.447       13.743       13.300       13.555      188.860      176.889      183.733        0.167        0.027       51.308        5.657        0.012      334.637        4.741      868.416
10/04/2013  02:33:00      -65.218       -2.241      -10.829       17.147       14.133        7.707      294.030      199.736       59.397        0.246        0.028       65.256        9.069        0.019      334.359        4.279      868.438
10/04/2013  02:34:00      -37.237       -2.350       -8.976       10.272       11.674        4.167      105.513      136.279       17.365        0.087        0.013       37.311        3.790        0.010      334.404        4.355      868.455
10/04/2013  02:35:00      -42.358       16.170       -8.258       12.416       11.091        7.937      154.151      123.002       62.992        0.123        0.017       45.339        6.453        0.020      334.807        5.023      868.452
10/04/2013  02:36:00      -44.742       -6.403      -10.091       21.813       20.604        9.045      475.814      424.516       81.816        0.156        0.049       45.198        6.208        0.019      334.702        4.849      868.436
10/04/2013  02:37:00      -68.409      -18.553      -14.706       13.219       15.058       13.654      174.733      226.742      186.421        0.291        0.029       70.880        7.503        0.011      334.239        4.081      868.437
10/04/2013  02:38:00      -78.089      -25.537      -14.820       15.822       14.228        9.647      250.327      202.445       93.061        0.376        0.027       82.159        7.533        0.008      334.254        4.105      868.438
10/04/2013  02:39:00      -73.635      -43.296       -7.886       13.512       24.858       11.562      182.586      617.943      133.670        0.415        0.047       85.420        9.441        0.012      334.150        3.932      868.436
10/04/2013  02:40:00      -73.934      -16.969      -13.935       14.485       13.650        9.069      209.802      186.312       82.249        0.321        0.024       75.856        5.834        0.006      334.263        4.120      868.428
10/04/2013  02:41:00      -57.358      -39.631       -8.401       18.775       14.490       12.673      352.496      209.959      160.611        0.283        0.036       69.717       10.898        0.024      334.209        4.031      868.422
10/04/2013  02:42:00      -98.981      -42.100      -17.617       18.469       16.954       15.772      341.105      287.444      248.755        0.638        0.044      107.562       10.749        0.010      334.136        3.910      868.422
10/04/2013  02:43:00      -99.432      -51.882       -8.382       18.788       16.817       13.958      352.974      282.820      194.838        0.674        0.042      112.154       10.551        0.009      334.075        3.808      868.411
10/04/2013  02:44:00      -32.397      -36.759       -6.597       28.005       26.410       23.747      784.262      697.512      563.938        0.224        0.102       48.998       19.046        0.151      334.086        3.827      868.409
10/04/2013  02:45:00      -69.167      -21.530      -13.226       13.368       17.525       23.545      178.692      307.116      554.354        0.323        0.052       72.440       13.123        0.033      334.191        4.001      868.408
10/04/2013  02:46:00      -60.276      -30.749       -7.184       22.346       24.322       20.220      499.332      591.549      408.833        0.306        0.075       67.666        8.458        0.016      334.161        3.952      868.412
10/04/2013  02:47:00      -80.952       -7.331      -12.547       15.711       21.726       11.837      246.827      472.009      140.123        0.381        0.043       81.283        7.585        0.009      334.098        3.846      868.416
10/04/2013  02:48:00      -74.165       -9.658      -11.027       11.491       13.685       10.480      132.046      187.281      109.830        0.307        0.021       74.791        7.008        0.009      334.194        4.005      868.413
10/04/2013  02:49:00      -54.872       -3.430       -6.722       25.328       21.157       12.918      641.489      447.605      166.862        0.216        0.063       54.979       11.186        0.041      334.108        3.863      868.421
10/04/2013  02:50:00      -76.961      -14.705      -14.417       23.391       22.280       12.916      547.136      496.377      166.829        0.378        0.061       78.353        9.774        0.016      334.031        3.737      868.429
10/04/2013  02:51:00      -64.026      -19.731       -8.278       19.805       17.251       19.126      392.233      297.590      365.815        0.281        0.053       66.997       15.745        0.055      334.131        3.902      868.435
10/04/2013  02:52:00      -68.497      -25.395      -17.671       16.577       20.118       12.635      274.787      404.720      159.643        0.324        0.042       73.053        6.578        0.008      334.145        3.924      868.441
10/04/2013  02:53:00      -67.351      -24.785      -12.960       16.370       19.648       15.070      267.989      386.045      227.107        0.310        0.044       71.767        9.681        0.018      334.085        3.825      868.446
10/04/2013  02:54:00      -65.571      -10.438       -8.717       20.658       16.141       16.565      426.759      260.542      274.415        0.272        0.048       66.396       15.067        0.051      334.252        4.102      868.448
10/04/2013  02:55:00      -64.340      -24.838       -3.919       18.425       16.781       16.013      339.491      281.599      256.415        0.282        0.044       68.967        6.987        0.010      334.322        4.218      868.443
10/04/2013  02:56:00      -54.226       -1.690       -9.561       16.935       16.733       12.347      286.787      279.979      152.447        0.188        0.036       54.253       11.035        0.041      334.244        4.089      868.444
10/04/2013  02:57:00      -61.643      -17.312      -11.223       19.221       13.959       13.512      369.446      194.847      182.587        0.249        0.037       64.028        9.688        0.023      334.157        3.945      868.441
10/04/2013  02:58:00      -77.973        9.520      -16.246       15.380       20.664       11.800      236.546      427.019      139.244        0.362        0.040       78.552        7.633        0.009      334.128        3.897      868.443
10/04/2013  02:59:00      -71.363       18.346      -11.999       24.464       20.312       16.948      598.476      412.597      287.227        0.344        0.065       73.683       15.656        0.045      334.267        4.128      868.452
10/04/2013  03:00:00      -56.819       22.278      -11.353       18.583       21.735       11.400      345.328      472.411      129.967        0.240        0.047       61.031        8.381        0.019      334.299        4.182      868.462
10/04/2013  03:01:00      -43.557       21.028       -6.118       20.354       27.155       17.182      414.270      737.408      295.213        0.191        0.072       48.368       11.902        0.061      334.430        4.398      868.470
10/04/2013  03:02:00      -42.853       20.005       -9.706       16.400       26.826       13.954      268.968      719.608      194.717        0.176        0.059       47.293        9.725        0.042      334.456        4.442      868.469
10/04/2013  03:03:00      -55.013       49.830       -8.918       24.717       32.160       14.098      610.908     1034.266      198.755        0.372        0.092       74.226       14.971        0.041      334.847        5.090      868.471
10/04/2013  03:04:00      -48.569       76.191      -14.820       19.802       30.944       14.439      392.136      957.521      208.482        0.497        0.078       90.355       12.902        0.020      334.936        5.237      868.474
10/04/2013  03:05:00      -66.714       74.679      -18.694       24.405       18.702       11.966      595.584      349.758      143.188        0.573        0.054      100.139        8.501        0.007      335.011        5.362      868.481
10/04/2013  03:06:00      -51.796       62.916      -15.083       16.013       21.735       13.553      256.417      472.418      183.678        0.389        0.046       81.494        9.641        0.014      334.964        5.284      868.470
10/04/2013  03:07:00      -52.182       31.454       -9.360       14.896       18.027        9.442      221.877      324.975       89.161        0.222        0.032       60.929        5.144        0.007      334.776        4.972      868.466
10/04/2013  03:08:00      -60.396       74.874      -16.587       35.626       22.209       17.933     1269.208      493.252      321.608        0.581        0.104       96.196       13.300        0.019      334.890        5.160      868.468
10/04/2013  03:09:00      -73.340       86.759      -26.992       18.513       23.458       14.568      342.744      550.280      212.233        0.737        0.055      113.604       13.008        0.013      335.020        5.377      868.477
10/04/2013  03:10:00      -79.748       99.183      -24.430       18.536       32.890       15.172      343.570     1081.755      230.185        0.922        0.083      127.268       12.298        0.009      335.052        5.429      868.478
10/04/2013  03:11:00      -48.061       98.169      -15.946       28.888       27.772       13.986      834.501      771.299      195.621        0.700        0.090      109.302       10.858        0.010      335.117        5.537      868.482
10/04/2013  03:12:00      -31.186      102.485      -15.277       30.455       27.015       16.492      927.508      729.803      271.981        0.682        0.096      107.125       10.622        0.010      335.175        5.634      868.472
10/04/2013  03:13:00      -37.327       80.033      -12.541       20.209       17.339       12.614      408.417      300.640      159.110        0.441        0.043       88.310        9.953        0.013      335.138        5.572      868.466
10/04/2013  03:14:00      -26.133       92.200      -10.809       24.170       22.949       10.643      584.210      526.672      113.264        0.526        0.061       95.832        7.855        0.007      335.251        5.760      868.458
10/04/2013  03:15:00       -9.721      117.737      -10.597       16.546       30.572       14.818      273.771      934.632      219.569        0.775        0.071      118.138       15.731        0.018      335.238        5.738      868.462
10/04/2013  03:16:00        7.431      149.055      -22.498       12.289       16.757        9.801      151.030      280.811       96.055        1.165        0.026      149.240        7.772        0.003      335.264        5.782      868.470
10/04/2013  03:17:00       -6.669      150.684      -13.832       11.601       14.907        8.587      134.593      222.213       73.744        1.169        0.022      150.831        5.048        0.001      335.301        5.844      868.461
10/04/2013  03:18:00       -8.641      161.940      -16.242       11.630       14.988        7.712      135.253      224.633       59.480        1.349        0.021      162.170        4.025        0.001      335.381        5.976      868.473
10/04/2013  03:19:00      -14.660      167.722      -20.040       12.867       13.874        7.602      165.566      192.499       57.797        1.458        0.021      168.362        3.588        0.000      335.334        5.898      868.491
10/04/2013  03:20:00      -16.042      170.627      -19.512       15.165       17.577       10.826      229.964      308.949      117.196        1.520        0.033      171.379        8.290        0.002      335.378        5.971      868.503
10/04/2013  03:21:00      -18.559      174.000      -18.524       14.143       19.672        8.969      200.030      386.981       80.441        1.582        0.033      174.987        5.270        0.001      335.376        5.968      868.511
10/04/2013  03:22:00      -20.675      149.003      -20.133       14.245       17.848       10.376      202.917      318.544      107.651        1.183        0.031      150.431        6.332        0.002      335.291        5.826      868.511
10/04/2013  03:23:00      -18.930      153.598      -18.034       16.301       18.644        8.936      265.720      347.613       79.859        1.248        0.035      154.760        4.380        0.001      335.248        5.754      868.504
10/04/2013  03:24:00      -17.650      176.352      -19.937       12.919       19.830       11.364      166.892      393.236      129.138        1.625        0.034      177.233        8.254        0.002      335.254        5.765      868.497
10/04/2013  03:25:00      -18.291      161.512      -18.242       11.801       18.899       10.858      139.261      357.175      117.903        1.368        0.031      162.545        9.853        0.004      335.181        5.643      868.487
10/04/2013  03:26:00      -11.470      156.141      -20.529       14.492       16.378        8.561      210.019      268.238       73.290        1.274        0.028      156.562        6.257        0.002      335.200        5.676      868.481
10/04/2013  03:27:00      -31.309      146.397      -18.117       21.110       25.243       18.256      445.622      637.214      333.294        1.208        0.071      149.708       17.677        0.014      335.211        5.693      868.471
10/04/2013  03:28:00       -7.761      169.972      -21.559       12.389       16.168        7.433      153.489      261.411       55.249        1.494        0.024      170.149        5.303        0.001      335.296        5.835      868.471
10/04/2013  03:29:00        6.294      173.992      -24.522       19.357       18.445        8.851      374.690      340.218       78.348        1.585        0.040      174.105        7.878        0.002      335.311        5.861      868.474
10/04/2013  03:30:00       21.734      151.991      -22.237       20.787       45.672       21.358      432.118     2085.971      456.151        1.352        0.149      153.537       21.013        0.019      335.242        5.746      868.486
10/04/2013  03:31:00       27.500      135.744      -16.453       30.220       40.215       25.779      913.271     1617.214      664.575        1.132        0.160      138.501       21.937        0.025      335.228        5.721      868.500
10/04/2013  03:32:00       23.619      152.710      -21.656       22.764       42.604       22.922      518.177     1815.142      525.441        1.360        0.143      154.526       22.410        0.021      335.201        5.678      868.512
10/04/2013  03:33:00       17.358      120.525       -5.133       30.983       32.489       30.612      959.933     1055.518      937.104        0.890        0.148      121.768       20.948        0.030      335.114        5.533      868.514
10/04/2013  03:34:00       26.929      152.300      -25.490       18.162       29.114       18.793      329.868      847.622      353.178        1.305        0.077      154.663       17.383        0.013      335.164        5.616      868.505
10/04/2013  03:35:00       26.388      135.250      -21.925       19.471       31.477       20.473      379.111      990.817      419.160        1.063        0.089      137.800       18.111        0.017      335.158        5.606      868.503
10/04/2013  03:36:00       20.475       91.881       -6.257       28.179       40.302       26.125      794.058     1624.221      682.520        0.600        0.155       94.135       22.963        0.060      335.057        5.438      868.503
10/04/2013  03:37:00       24.336       95.025      -11.000       23.336       28.170       20.419      544.554      793.524      416.934        0.575        0.088       98.091       13.594        0.019      334.963        5.284      868.507
10/04/2013  03:38:00       29.779      122.331      -19.220       24.925       21.337       16.093      621.260      455.267      258.988        0.878        0.067      125.904       12.196        0.009      335.002        5.348      868.509
10/04/2013  03:39:00       27.015      138.926      -22.720       16.328       28.102       15.444      266.609      789.697      238.532        1.092        0.065      141.528       12.106        0.007      335.031        5.395      868.513
10/04/2013  03:40:00       34.112      139.716      -21.674       20.375       30.440       24.234      415.124      926.623      587.284        1.154        0.096      143.820       16.947        0.014      335.008        5.358      868.516
10/04/2013  03:41:00       31.093      123.078      -12.830       22.388       39.038       23.327      501.243     1523.932      544.144        0.942        0.128      126.945       21.687        0.029      334.978        5.307      868.512
10/04/2013  03:42:00       16.923      153.533      -27.438       19.636       19.590       11.237      385.567      383.776      126.278        1.275        0.045      154.463       10.655        0.005      335.101        5.513      868.509
10/04/2013  03:43:00       28.407      138.385      -23.213       22.057       24.727       16.776      486.521      611.410      281.444        1.094        0.069      141.270       14.150        0.010      334.999        5.342      868.514
10/04/2013  03:44:00       22.195      116.799      -17.632       19.018       19.961       14.363      361.699      398.434      206.294        0.771        0.048      118.889        9.432        0.006      335.001        5.346      868.534
10/04/2013  03:45:00       22.268      103.747      -12.664       23.101       24.291       17.254      533.655      590.051      297.703        0.642        0.071      106.110        9.056        0.007      334.969        5.292      868.549
10/04/2013  03:46:00        7.747      116.865      -13.246       21.037       23.585       13.807      442.566      556.243      190.645        0.754        0.059      117.122        8.238        0.005      335.034        5.400      868.561
10/04/2013  03:47:00       10.350      126.288      -18.619       20.419       20.888        9.310      416.955      436.300       86.681        0.867        0.047      126.711        9.077        0.005      335.025        5.385      868.565
10/04/2013  03:48:00       -3.250      121.792      -16.588       17.693       17.927        8.076      313.049      321.389       65.227        0.791        0.035      121.836        6.219        0.003      335.059        5.443      868.566
10/04/2013  03:49:00      -31.857       95.827      -20.033       33.987       41.117       14.485     1155.106     1690.616      209.814        0.683        0.153      100.984       11.351        0.013      334.863        5.117      868.567
10/04/2013  03:50:00      -27.100       77.516       -5.932       29.699       47.864       19.142      882.043     2290.954      366.399        0.516        0.177       82.117       21.575        0.069      334.727        4.892      868.558
10/04/2013  03:51:00      -14.541       66.883       -4.673       25.039       37.188       14.010      626.958     1382.946      196.289        0.346        0.110       68.445       15.966        0.054      334.862        5.115      868.557
10/04/2013  03:52:00      -16.764       75.931       -3.554       25.002       39.787       14.029      625.118     1582.986      196.807        0.423        0.120       77.759       18.228        0.055      334.849        5.094      868.555
10/04/2013  03:53:00      -19.555       99.003       -8.630       22.858       26.830       14.821      522.497      719.831      219.671        0.586        0.073      100.916       15.200        0.023      334.815        5.038      868.569
10/04/2013  03:54:00      -24.058       96.165       -4.802       16.465       42.517       14.040      271.101     1807.703      197.113        0.606        0.114       99.129       17.997        0.033      334.749        4.928      868.583
10/04/2013  03:55:00      -27.680       56.931      -15.593       22.845       33.015       11.188      521.876     1089.990      125.161        0.299        0.087       63.304        9.705        0.024      334.771        4.964      868.596
10/04/2013  03:56:00      -28.424       -1.535        0.616       14.699       18.033       12.534      216.049      325.185      157.090        0.075        0.035       28.466       11.416        0.161      334.420        4.380      868.598
10/04/2013  03:57:00      -19.726       10.664       -4.904       23.824       22.151       16.474      567.573      490.680      271.382        0.093        0.066       22.424        9.969        0.198      334.537        4.575      868.606
10/04/2013  03:58:00      -40.168       -7.118       -5.800       12.378        8.366       10.493      153.203       69.996      110.098        0.102        0.017       40.794        9.163        0.050      334.178        3.980      868.606
10/04/2013  03:59:00      -43.439      -14.968       -7.784       16.272       11.782        7.387      264.778      138.820       54.573        0.131        0.023       45.945        5.817        0.016      334.129        3.897      868.605
10/04/2013  04:00:00      -55.638      -18.824      -15.472        9.363        9.033        8.199       87.675       81.597       67.223        0.196        0.012       58.736        6.194        0.011      334.024        3.724      868.613
10/04/2013  04:01:00      -35.589      -18.193       -9.478       11.744        9.024        9.366      137.928       81.436       87.727        0.100        0.015       39.969        6.354        0.025      334.058        3.780      868.627
10/04/2013  04:02:00      -41.811       -7.970      -13.664       20.561       15.749        7.513      422.746      248.038       56.448        0.136        0.036       42.563        8.187        0.037      334.121        3.885      868.625
10/04/2013  04:03:00      -40.045       -4.976       -8.505       12.358       17.357        9.675      152.721      301.280       93.604        0.112        0.027       40.353        3.125        0.006      334.151        3.935      868.623
10/04/2013  04:04:00      -11.007       20.186       -4.230       15.143       22.936        8.361      229.304      526.061       69.906        0.069        0.041       22.992        4.133        0.032      334.432        4.402      868.618
10/04/2013  04:05:00       -3.166       70.080       -7.787       14.619       45.299       12.698      213.716     2052.033      161.248        0.370        0.121       70.152       17.549        0.063      334.769        4.962      868.622
10/04/2013  04:06:00        2.253      101.950      -12.270       12.306       14.497        8.536      151.426      210.158       72.869        0.549        0.022      101.975        4.389        0.002      334.744        4.919      868.622
10/04/2013  04:07:00       -4.314       98.183      -13.318       14.680       20.092        8.349      215.514      403.681       69.713        0.526        0.034       98.278        8.432        0.007      334.705        4.854      868.621
10/04/2013  04:08:00        0.307      102.118      -13.736       12.376       16.124       11.947      153.173      259.997      142.721        0.559        0.028      102.118        5.522        0.003      334.635        4.739      868.610
10/04/2013  04:09:00        9.520      122.272      -14.417       19.357       19.225       10.799      374.699      369.615      116.615        0.805        0.043      122.642        8.600        0.005      334.665        4.789      868.601
10/04/2013  04:10:00       -5.421      123.359      -15.994       14.529       20.117       12.592      211.101      404.678      158.564        0.814        0.039      123.478       12.381        0.010      334.616        4.707      868.593
10/04/2013  04:11:00        2.270      149.711      -17.758       28.718       21.924       19.674      824.751      480.682      387.061        1.221        0.085      149.728       14.057        0.009      334.674        4.800      868.593
10/04/2013  04:12:00       24.367      119.498      -12.384       28.206       33.398       19.785      795.597     1115.414      391.438        0.866        0.115      121.957       19.399        0.025      334.631        4.731      868.607
10/04/2013  04:13:00       25.480      106.429      -15.185       28.346       35.412       22.161      803.519     1254.001      491.121        0.738        0.127      109.436       17.740        0.026      334.519        4.545      868.619
10/04/2013  04:14:00       26.483      111.079      -11.504       24.826       29.505       21.561      616.318      870.559      464.895        0.756        0.098      114.192       17.014        0.022      334.535        4.571      868.630
10/04/2013  04:15:00       24.400      101.349      -15.613       25.962       39.686       24.375      674.048     1574.954      594.156        0.698        0.142      104.245       17.440        0.028      334.481        4.483      868.646
10/04/2013  04:16:00       21.448      126.850       -8.645       30.035       36.928       27.301      902.125     1363.714      745.335        0.982        0.151      128.650       24.086        0.035      334.501        4.514      868.661
10/04/2013  04:17:00       23.219      101.248       -6.422       33.160       58.422       29.544     1099.594     3413.109      872.834        0.811        0.269      103.877       30.994        0.089      334.550        4.596      868.677
10/04/2013  04:18:00       32.091       74.994       -8.129       45.845       62.779       33.542     2101.774     3941.160     1125.045        0.694        0.358       81.572       35.115        0.185      334.622        4.715      868.694
10/04/2013  04:19:00       11.731       31.956        9.701       30.911       36.326       24.990      955.471     1319.568      624.491        0.208        0.145       34.041       18.210        0.286      334.506        4.522      868.707
10/04/2013  04:20:00       26.950       43.701        2.510       33.594       35.592       33.743     1128.545     1266.767     1138.595        0.309        0.177       51.343       26.997        0.276      334.592        4.666      868.724
10/04/2013  04:21:00       48.412       63.469       -3.469       37.212       46.625       35.792     1384.708     2173.858     1281.091        0.561        0.242       79.825       32.461        0.165      334.610        4.695      868.735
10/04/2013  04:22:00       36.044       52.632        3.061       34.523       40.974       30.886     1191.862     1678.898      953.970        0.395        0.191       63.791       26.028        0.166      334.596        4.673      868.735
10/04/2013  04:23:00       38.862       77.650       -7.416       36.259       47.356       34.725     1314.745     2242.571     1205.811        0.618        0.238       86.832       34.084        0.154      334.598        4.676      868.733
10/04/2013  04:24:00       23.391       80.320       -6.818       34.987       47.279       37.421     1224.079     2235.318     1400.303        0.595        0.243       83.656       34.095        0.166      334.597        4.673      868.731
10/04/2013  04:25:00       27.408       62.199        1.110       35.838       41.921       31.192     1284.339     1757.408      972.927        0.432        0.201       67.970       25.253        0.138      334.613        4.700      868.719
10/04/2013  04:26:00       63.412       58.894        3.036       44.411       41.120       29.768     1972.327     1690.895      886.113        0.602        0.227       86.543       23.597        0.074      334.659        4.777      868.712
10/04/2013  04:27:00       48.734       68.963       -6.529       34.172       38.379       27.258     1167.748     1472.912      743.024        0.528        0.169       84.445       18.374        0.047      334.614        4.702      868.716
10/04/2013  04:28:00       63.915       49.979       -0.580       45.843       27.792       23.172     2101.621      772.401      536.944        0.500        0.171       81.136       14.060        0.030      334.641        4.747      868.726
10/04/2013  04:29:00       29.215       47.077        3.520       34.634       43.060       22.891     1199.493     1854.160      523.983        0.333        0.179       55.406       22.105        0.159      334.627        4.724      868.727
10/04/2013  04:30:00       61.181       52.585        6.799       41.267       35.169       26.697     1702.949     1236.875      712.713        0.510        0.183       80.674       20.715        0.066      334.652        4.766      868.736
10/04/2013  04:31:00       28.005       45.799       -2.207       27.518       30.070       18.402      757.237      904.208      338.648        0.244        0.100       53.682       19.115        0.127      334.615        4.705      868.747
10/04/2013  04:32:00       25.472       98.551      -14.765       28.000       36.221       21.345      784.015     1311.926      455.597        0.656        0.128      101.789       23.988        0.056      334.680        4.812      868.758
10/04/2013  04:33:00       32.004      122.770      -13.943       26.763       37.424       27.083      716.244     1400.536      733.467        0.957        0.143      126.873       21.833        0.030      334.729        4.893      868.759
10/04/2013  04:34:00       19.579       77.244       -6.216       38.305       38.262       28.483     1467.243     1464.004      811.262        0.506        0.187       79.686       23.305        0.086      334.682        4.815      868.762
10/04/2013  04:35:00       16.706      108.069       -6.981       30.767       37.835       28.244      946.579     1431.504      797.709        0.759        0.159      109.352       23.307        0.045      334.778        4.975      868.757
10/04/2013  04:36:00       21.578      109.036       -7.680       28.522       48.165       29.113      813.525     2319.889      847.561        0.820        0.199      111.151       30.160        0.074      334.761        4.947      868.756
10/04/2013  04:37:00       25.290      154.425      -22.971       22.338       29.648       20.530      499.007      878.999      421.481        1.341        0.090      156.483       17.001        0.012      334.824        5.051      868.759
10/04/2013  04:38:00       26.688      151.524      -16.242       23.373       28.023       25.456      546.315      785.290      648.007        1.296        0.099      153.856       16.504        0.012      334.796        5.004      868.757
10/04/2013  04:39:00       31.405      129.453      -17.493       28.611       40.345       26.831      818.586     1627.714      719.910        1.061        0.158      133.207       25.561        0.037      334.797        5.008      868.741
10/04/2013  04:40:00       25.210      151.680      -28.230       21.439       28.353       19.001      459.640      803.920      361.052        1.303        0.081      153.761       15.622        0.010      334.850        5.094      868.734
10/04/2013  04:41:00        2.479      153.620      -21.812       16.320       16.098        9.667      266.357      259.147       93.451        1.235        0.031      153.640        5.640        0.001      334.905        5.187      868.726
10/04/2013  04:42:00        7.341      142.951      -17.911       22.874       23.985       15.215      523.199      575.275      231.508        1.107        0.066      143.139       13.755        0.009      334.897        5.173      868.719
10/04/2013  04:43:00       30.623      131.322      -24.600       17.279       25.556       16.689      298.558      653.114      278.510        1.001        0.062      134.846       12.972        0.009      334.817        5.040      868.720
10/04/2013  04:44:00       25.635      136.562      -24.007       19.674       23.416       13.259      387.076      548.288      175.801        1.050        0.056      138.947        8.402        0.004      334.800        5.011      868.711
10/04/2013  04:45:00       17.015      156.033      -24.939       20.338       17.172       10.918      413.622      294.888      119.193        1.304        0.041      156.958        8.264        0.003      334.816        5.037      868.710
10/04/2013  04:46:00       31.720       98.291      -11.704       30.514       51.355       23.790      931.123     2637.291      565.943        0.747        0.207      103.282       25.317        0.060      334.663        4.783      868.718
10/04/2013  04:47:00       19.078       75.194       -6.764       33.782       46.984       26.407     1141.240     2207.452      697.324        0.505        0.202       77.576       28.695        0.137      334.589        4.660      868.723
10/04/2013  04:48:00       27.515       70.462        0.326       37.834       41.908       29.318     1431.440     1756.274      859.547        0.488        0.202       75.644       23.376        0.095      334.620        4.712      868.711
10/04/2013  04:49:00       17.006       61.139        0.363       20.392       30.691       25.948      415.823      941.951      673.317        0.303        0.102       63.460       18.977        0.089      334.580        4.646      868.705
10/04/2013  04:50:00       26.278       55.822        1.823       24.050       42.081       21.024      578.387     1770.783      442.026        0.330        0.140       61.698       17.836        0.084      334.575        4.637      868.706
10/04/2013  04:51:00       24.686       62.674       -1.682       22.951       39.916       25.231      526.750     1593.295      636.607        0.365        0.138       67.361       22.717        0.114      334.641        4.749      868.718
10/04/2013  04:52:00       25.168       37.608       -3.581       27.745       30.155       20.453      769.795      909.308      418.316        0.208        0.105       45.252       11.419        0.064      334.647        4.758      868.739
10/04/2013  04:53:00       52.850       28.678        7.481       18.016       16.257       15.228      324.592      264.277      231.895        0.225        0.041       60.130        9.940        0.027      334.579        4.644      868.763
10/04/2013  04:54:00       29.177        5.032        3.789       20.742       13.477       12.466      430.230      181.617      155.393        0.083        0.038       29.608        7.250        0.060      334.453        4.437      868.776
10/04/2013  04:55:00        7.604        2.094        4.162       16.654       13.796        7.590      277.369      190.326       57.606        0.030        0.026        7.887        6.873        0.759      334.440        4.416      868.782
10/04/2013  04:56:00       15.050       15.185       -6.134       14.645       17.660        8.433      214.462      311.884       71.108        0.055        0.030       21.380        7.733        0.131      334.563        4.618      868.781
10/04/2013  04:57:00       13.152       58.377      -10.077       17.993       40.057       12.196      323.760     1604.553      148.734        0.288        0.104       59.840       13.338        0.050      334.672        4.800      868.779
10/04/2013  04:58:00       12.378      108.690      -16.053       28.148       20.636       11.832      792.324      425.852      139.992        0.679        0.068      109.393        9.320        0.007      334.762        4.946      868.787
10/04/2013  04:59:00       17.605      104.407      -15.015       32.651       25.792       15.611     1066.078      665.248      243.707        0.671        0.099      105.881       12.337        0.014      334.690        4.828      868.790
10/04/2013  05:00:00       10.010       73.809       -8.641       15.652       35.067       13.069      244.991     1229.686      170.811        0.363        0.082       74.484       14.670        0.039      334.563        4.618      868.807
10/04/2013  05:01:00       -5.387       54.096       -9.683       17.134       18.442        8.457      293.569      340.094       71.526        0.188        0.035       54.363       10.710        0.039      334.585        4.656      868.807
10/04/2013  05:02:00      -17.476        2.996      -14.183       25.432       33.816       11.770      646.767     1143.496      138.531        0.122        0.096       17.731       11.312        0.407      334.488        4.494      868.794
10/04/2013  05:03:00      -49.964      -31.289       -7.747       15.940       15.991       10.874      254.082      255.724      118.240        0.208        0.031       58.953        6.914        0.014      334.216        4.044      868.792
10/04/2013  05:04:00       -1.599      -43.455       -4.232       29.211       28.766       18.740      853.279      827.482      351.202        0.197        0.102       43.484       14.132        0.106      334.254        4.105      868.805
10/04/2013  05:05:00      -29.089      -23.499       14.124       39.577       21.800       14.411     1566.351      475.221      207.680        0.192        0.112       37.395        6.864        0.034      334.230        4.066      868.818
10/04/2013  05:06:00      -30.563      -25.661        4.105       37.802       25.111       17.489     1428.955      630.578      305.848        0.199        0.118       39.907       15.075        0.143      334.202        4.020      868.813
10/04/2013  05:07:00        5.830      -19.065        2.792       12.575       13.216       11.100      158.134      174.660      123.205        0.043        0.023       19.936        7.657        0.148      334.194        4.008      868.813
10/04/2013  05:08:00        7.850        2.690       -4.043       12.286        8.692        5.009      150.948       75.545       25.086        0.017        0.013        8.298        4.141        0.249      334.140        3.916      868.811
10/04/2013  05:09:00      -33.496        9.360       -7.509       10.209        9.756        5.239      104.230       95.181       27.442        0.075        0.011       34.779        3.212        0.009      334.051        3.768      868.806
10/04/2013  05:10:00      -24.727      -16.032       -9.736       12.378       10.260        6.808      153.205      105.265       46.346        0.063        0.015       29.470        5.769        0.038      334.397        4.343      868.805
10/04/2013  05:11:00      -20.571       -6.189       -7.926       11.492        6.656        6.028      132.060       44.299       36.337        0.037        0.011       21.482        4.575        0.045      334.498        4.510      868.815
10/04/2013  05:12:00      -52.067       -4.480       -7.736       10.509        8.687        6.889      110.441       75.461       47.462        0.151        0.012       52.259        4.433        0.007      334.368        4.295      868.840
10/04/2013  05:13:00      -58.318      -16.108      -12.522       10.052        8.513       10.048      101.037       72.465      100.958        0.205        0.014       60.501        6.409        0.011      334.196        4.009      868.864
10/04/2013  05:14:00      -59.855      -14.410      -11.310        9.995       13.318        7.805       99.901      177.378       60.918        0.213        0.017       61.565        6.132        0.010      334.004        3.690      868.890
10/04/2013  05:15:00      -51.486      -10.957      -14.369        6.490       12.380        6.096       42.119      153.265       37.162        0.160        0.012       52.639        4.924        0.009      333.949        3.601      868.911
10/04/2013  05:16:00      -56.674      -15.896      -10.852        8.027       11.671        7.905       64.425      136.217       62.495        0.192        0.013       58.861        4.161        0.005      334.108        3.864      868.918
10/04/2013  05:17:00      -78.688       -6.788      -14.903       18.516       13.922       10.972      342.829      193.826      120.376        0.356        0.033       78.980        3.430        0.002      333.901        3.521      868.924
10/04/2013  05:18:00      -80.722        3.830      -13.057       15.775       14.087       12.049      248.865      198.449      145.173        0.365        0.030       80.813        7.926        0.010      333.786        3.327      868.941
10/04/2013  05:19:00      -51.439      -19.788       -5.504       11.733       12.561        8.575      137.656      157.788       73.522        0.172        0.018       55.114        6.202        0.013      333.907        3.531      868.959
10/04/2013  05:20:00      -42.988       -5.968       -5.562       10.072       11.517        9.055      101.450      132.638       81.998        0.112        0.016       43.401        5.326        0.015      333.913        3.540      868.969
10/04/2013  05:21:00      -38.248       -0.572       -2.438       11.998       11.164        7.121      143.961      124.635       50.707        0.089        0.016       38.253        4.227        0.012      333.961        3.620      868.978
10/04/2013  05:22:00      -56.234       -4.991       -9.048       11.046       11.606        6.111      122.009      134.696       37.344        0.178        0.015       56.455        3.360        0.004      334.005        3.692      868.981
10/04/2013  05:23:00      -61.090       -5.074      -11.777        9.194       14.152       11.775       84.521      200.285      138.653        0.216        0.021       61.300        1.232        0.000      333.885        3.493      868.983
10/04/2013  05:24:00      -72.908       -4.187      -11.962       15.099       16.419        9.287      227.989      269.585       86.248        0.303        0.029       73.028        6.751        0.009      333.796        3.346      869.001
10/04/2013  05:25:00      -80.295       -5.911       -8.139       21.246       11.458       15.163      451.397      131.288      229.918        0.368        0.041       80.513       14.886        0.034      333.742        3.255      869.010
10/04/2013  05:26:00      -98.323      -11.362      -18.195       29.646       20.208       12.232      878.873      408.379      149.616        0.578        0.072       98.977        7.400        0.006      333.685        3.163      869.015
10/04/2013  05:27:00     -118.143      -15.888      -15.041       33.948       20.033       16.754     1152.465      401.338      280.700        0.814        0.092      119.206       17.064        0.020      333.720        3.219      869.011
10/04/2013  05:28:00     -115.893      -12.445      -19.412       23.971       22.368       17.003      574.600      500.346      289.117        0.766        0.068      116.560       13.099        0.013      333.639        3.086      869.002
10/04/2013  05:29:00      -98.910       -8.783      -14.272       22.914       26.190       15.039      525.069      685.916      226.162        0.575        0.072       99.299       13.678        0.019      333.533        2.909      868.990
10/04/2013  05:30:00      -83.935       -6.727      -17.554       14.013       13.146       13.668      196.353      172.830      186.822        0.398        0.028       84.204        7.397        0.008      333.459        2.784      868.978
10/04/2013  05:31:00      -82.954      -17.371      -23.853       17.450       14.803       13.854      304.491      219.143      191.937        0.423        0.036       84.753        7.489        0.008      333.539        2.919      868.981
10/04/2013  05:32:00      -79.005      -14.507      -19.220       16.373       19.719       18.122      268.064      388.827      328.402        0.390        0.049       80.326        9.968        0.015      333.562        2.959      869.004
10/04/2013  05:33:00      -61.458      -24.789      -15.703       25.382       25.804       16.549      644.257      665.829      273.857        0.311        0.079       66.269        3.984        0.004      333.585        2.996      869.036
10/04/2013  05:34:00      -60.288      -32.429      -11.023       31.550       16.940       16.042      995.388      286.980      257.338        0.317        0.077       68.456       13.356        0.038      333.614        3.044      869.058
10/04/2013  05:35:00      -87.924      -53.721      -22.859       23.314       27.571       14.390      543.551      760.181      207.084        0.632        0.076      103.037       11.587        0.013      333.592        3.008      869.071
10/04/2013  05:36:00      -98.384      -57.993      -22.184       23.501       33.390       18.279      552.316     1114.907      334.138        0.777        0.100      114.204        7.852        0.005      333.478        2.819      869.074
10/04/2013  05:37:00      -61.482      -34.381      -10.294       31.316       22.764       18.363      980.700      518.205      337.191        0.345        0.092       70.442       14.542        0.043      333.416        2.717      869.096
10/04/2013  05:38:00      -70.657       -9.651       -8.198       15.485       22.294       14.099      239.791      497.016      198.787        0.304        0.047       71.313        4.162        0.003      333.344        2.596      869.109
10/04/2013  05:39:00      -72.047      -22.912      -20.340       19.254       20.343       11.733      370.733      413.833      137.662        0.353        0.046       75.603        5.364        0.005      333.416        2.716      869.109
10/04/2013  05:40:00      -94.099      -26.402      -11.690       32.752       30.986       21.675     1072.663      960.148      469.801        0.609        0.125       97.733       18.196        0.035      333.362        2.628      869.104
10/04/2013  05:41:00     -118.891      -32.366      -15.718       30.863       27.835       17.766      952.514      774.805      315.621        0.874        0.102      123.218       11.621        0.009      333.408        2.701      869.122
10/04/2013  05:42:00     -107.391      -20.509      -17.294       21.328       26.328       21.021      454.896      693.176      441.877        0.692        0.079      109.332       10.591        0.009      333.369        2.640      869.157
10/04/2013  05:43:00      -99.038      -34.188      -18.867       26.639       29.352       17.385      709.654      861.530      302.255        0.660        0.094      104.773       10.359        0.010      333.389        2.672      869.178
10/04/2013  05:44:00     -125.736      -26.299      -18.133       28.366       33.432       20.230      804.624     1117.689      409.260        0.958        0.117      128.457       13.144        0.010      333.329        2.574      869.187
10/04/2013  05:45:00      -70.934      -21.851      -12.893       33.682       29.448       21.945     1134.488      867.195      481.583        0.408        0.124       74.223       15.873        0.046      333.381        2.659      869.192
10/04/2013  05:46:00      -64.393       -9.584      -16.876       16.119       25.725       13.317      259.824      661.750      177.346        0.281        0.055       65.102        3.714        0.003      333.513        2.876      869.197
10/04/2013  05:47:00      -59.182       -4.307      -11.314       14.832       10.557       10.811      219.986      111.454      116.885        0.205        0.022       59.339        5.467        0.008      333.580        2.988      869.199
10/04/2013  05:48:00      -91.924      -32.665      -18.670       19.712       21.953       13.996      388.579      481.945      195.880        0.547        0.053       97.555        4.921        0.003      333.550        2.937      869.210
10/04/2013  05:49:00      -92.368      -45.858      -14.191       32.925       21.334       20.822     1084.054      455.157      433.540        0.640        0.099      103.125       10.858        0.011      333.359        2.621      869.231
10/04/2013  05:50:00     -101.088      -32.568      -13.648       29.308       18.955       17.193      858.974      359.293      295.582        0.649        0.076      106.205       13.638        0.016      333.397        2.685      869.247
10/04/2013  05:51:00      -76.272      -28.599      -22.337       18.163       23.026       15.947      329.905      530.214      254.309        0.412        0.056       81.458        8.716        0.011      333.375        2.648      869.269
10/04/2013  05:52:00      -94.439      -29.323      -22.969       16.985       16.574       15.067      288.479      274.683      227.013        0.555        0.040       98.887        7.707        0.006      333.385        2.665      869.286
10/04/2013  05:53:00      -87.349      -23.964      -12.125       17.934       20.195       13.526      321.629      407.854      182.949        0.463        0.046       90.577        9.053        0.010      333.402        2.693      869.280
10/04/2013  05:54:00      -75.018      -21.896       -9.483       17.733       27.287       14.235      314.456      744.599      202.644        0.373        0.063       78.148        9.606        0.015      333.425        2.729      869.268
10/04/2013  05:55:00      -80.420      -23.382      -17.625       18.321       13.937       14.795      335.658      194.238      218.904        0.404        0.037       83.750        6.326        0.006      333.384        2.664      869.287
10/04/2013  05:56:00      -53.826      -22.583        1.135       25.135       17.049       18.119      631.766      290.662      328.293        0.233        0.063       58.371       16.322        0.078      333.394        2.680      869.321
10/04/2013  05:57:00      -81.307      -49.689      -15.742       17.806       24.381       15.004      317.038      594.454      225.130        0.523        0.057       95.288        5.993        0.004      333.463        2.794      869.338
10/04/2013  05:58:00      -90.511      -56.034       -6.122       24.048       15.721       19.154      578.288      247.151      366.892        0.628        0.060      106.452       12.230        0.013      333.357        2.618      869.345
10/04/2013  05:59:00      -43.510      -32.621      -17.663       33.600       24.772       13.350     1128.942      613.671      178.232        0.259        0.096       54.381        6.661        0.015      333.395        2.681      869.365
10/04/2013  06:00:00      -46.015      -13.359      -15.313       24.658       19.639       16.664      608.017      385.691      277.688        0.190        0.064       47.915        7.648        0.025      333.449        2.771      869.377
10/04/2013  06:01:00      -84.740      -35.455      -12.519       24.118       28.807       13.888      581.697      829.864      192.884        0.510        0.080       91.859       13.638        0.022      333.460        2.788      869.364
10/04/2013  06:02:00      -86.244      -19.332      -11.295       27.417       17.641       12.890      751.677      311.199      166.150        0.458        0.061       88.384       11.426        0.017      333.357        2.618      869.356
10/04/2013  06:03:00      -41.678        2.151       -9.226       21.307       18.349       10.896      453.972      336.676      118.729        0.137        0.045       41.733        9.023        0.047      333.308        2.538      869.359
10/04/2013  06:04:00      -39.499        2.134      -10.447       14.026       15.317       10.844      196.726      234.603      117.589        0.111        0.027       39.557        9.239        0.055      333.420        2.723      869.356
10/04/2013  06:05:00      -55.391       -7.980       -8.783       22.195       11.724       10.826      492.625      137.456      117.197        0.198        0.037       55.963       12.746        0.052      333.580        2.987      869.352
10/04/2013  06:06:00      -72.594      -27.155      -16.396       11.194       12.677        9.354      125.299      160.701       87.494        0.332        0.019       77.507        5.222        0.005      333.565        2.961      869.348
10/04/2013  06:07:00      -90.705      -34.216      -16.000       17.055       18.209       13.363      290.857      331.585      178.575        0.523        0.040       96.944        7.165        0.005      333.421        2.724      869.361
10/04/2013  06:08:00     -101.859      -34.804      -18.651       12.617       18.201       10.783      159.185      331.264      116.270        0.627        0.030      107.640        2.909        0.001      333.333        2.578      869.366
10/04/2013  06:09:00      -75.302      -43.467      -22.762       17.091       22.638       17.831      292.108      512.476      317.938        0.460        0.056       86.947       10.708        0.015      333.414        2.711      869.381
10/04/2013  06:10:00      -67.041      -11.077       -6.709       15.004       20.707       17.185      225.131      428.787      295.314        0.281        0.047       67.950       11.695        0.030      333.434        2.746      869.414
10/04/2013  06:11:00      -79.149       -9.334      -14.212       16.513       15.760       17.481      272.680      248.392      305.598        0.369        0.041       79.698       14.271        0.032      333.447        2.767      869.444
10/04/2013  06:12:00      -91.646       -9.927      -19.235       20.434       12.048       12.285      417.545      145.165      150.928        0.479        0.036       92.182       10.346        0.013      333.513        2.877      869.452
10/04/2013  06:13:00      -74.436      -15.935      -17.549       10.677       14.083       14.501      114.004      198.344      210.278        0.331        0.026       76.122        3.178        0.002      333.463        2.793      869.454
10/04/2013  06:14:00      -83.840       -3.216      -11.353       19.194       10.486        9.601      368.428      109.958       92.185        0.387        0.029       83.902        5.474        0.004      333.493        2.842      869.456
10/04/2013  06:15:00      -55.901      -14.768      -11.541       13.261       11.277       11.833      175.857      127.162      140.015        0.196        0.022       57.818        6.487        0.013      333.566        2.964      869.469
10/04/2013  06:16:00      -52.373       -8.209      -13.921        8.283        8.705        6.428       68.605       75.782       41.323        0.159        0.009       53.013        3.275        0.004      333.544        2.927      869.472
10/04/2013  06:17:00      -55.660      -17.575      -12.689       12.014        9.847        8.016      144.342       96.959       64.261        0.194        0.015       58.369        4.105        0.005      333.438        2.753      869.480
10/04/2013  06:18:00      -53.244      -21.308       -9.742       17.909       13.706       10.334      320.745      187.851      106.784        0.200        0.031       57.349        6.488        0.013      333.526        2.898      869.494
10/04/2013  06:19:00      -63.166      -32.914      -13.576       16.882       15.620       10.196      284.996      243.979      103.952        0.295        0.032       71.227        7.604        0.011      333.475        2.814      869.507
10/04/2013  06:20:00      -60.959      -23.998       -5.764       21.861       11.557        9.094      477.922      133.564       82.695        0.251        0.035       65.512        4.972        0.006      333.362        2.626      869.526
10/04/2013  06:21:00      -49.748        0.653      -16.505       12.175       12.101       12.103      148.234      146.445      146.487        0.159        0.022       49.753        7.023        0.020      333.404        2.696      869.547
10/04/2013  06:22:00      -51.809       -8.133      -14.293       12.590       14.141        9.701      158.517      199.964       94.109        0.170        0.023       52.444        7.335        0.020      333.504        2.861      869.545
10/04/2013  06:23:00      -55.093      -10.312      -15.782       19.630       11.447       11.532      385.326      131.033      132.976        0.202        0.032       56.050       11.939        0.045      333.469        2.803      869.536
10/04/2013  06:24:00      -50.127      -11.280      -12.779       17.956       10.202        8.756      322.423      104.086       76.670        0.165        0.025       51.380        9.719        0.036      333.411        2.708      869.525
10/04/2013  06:25:00      -60.429       -4.001      -11.789       10.272        9.011        6.967      105.517       81.205       48.534        0.202        0.012       60.562        2.945        0.002      333.394        2.680      869.543
10/04/2013  06:26:00      -29.121      -23.465       -6.170       25.273       14.598       14.663      638.703      213.113      215.010        0.125        0.053       37.398       11.740        0.099      333.641        3.089      869.554
10/04/2013  06:27:00      -33.247      -18.535        6.068       21.852       17.802       11.234      477.510      316.895      126.193        0.120        0.046       38.064        9.934        0.068      333.681        3.155      869.569
10/04/2013  06:28:00       -9.177      -33.982       -5.200       17.024       13.580       11.940      289.827      184.426      142.552        0.094        0.031       35.199        5.904        0.028      333.658        3.117      869.589
10/04/2013  06:29:00      -44.618      -22.008       -8.579       12.311       10.725        9.247      151.559      115.023       85.515        0.145        0.018       49.750        3.060        0.004      333.748        3.266      869.604
10/04/2013  06:30:00      -59.413      -26.179      -10.787       17.541       11.286        7.224      307.677      127.367       52.181        0.241        0.024       64.924        4.045        0.004      333.574        2.977      869.609
10/04/2013  06:31:00      -55.669      -22.102      -12.547        8.196        9.339        7.133       67.177       87.215       50.882        0.198        0.010       59.896        4.844        0.007      333.533        2.911      869.611
10/04/2013  06:32:00      -31.775       -6.566       -6.861       15.478       16.526        9.179      239.564      273.095       84.261        0.085        0.030       32.446       10.392        0.103      333.958        3.615      869.612
10/04/2013  06:33:00      -28.132       -6.356       -4.763       11.607       10.245        8.918      134.718      104.950       79.532        0.059        0.016       28.841        5.099        0.031      333.932        3.573      869.627
10/04/2013  06:34:00      -47.939       -8.981      -10.961       15.173       10.560        9.950      230.219      111.511       99.011        0.147        0.022       48.773        6.163        0.016      333.675        3.145      869.637
10/04/2013  06:35:00      -62.175      -19.943       -6.062        8.802       11.328        9.284       77.481      128.330       86.192        0.230        0.015       65.295        5.185        0.006      333.608        3.033      869.656
10/04/2013  06:36:00      -51.550      -26.223       -9.366       10.438        9.791        8.306      108.961       95.869       68.989        0.185        0.014       57.837        3.860        0.004      333.691        3.173      869.667
10/04/2013  06:37:00      -16.192      -21.641       -5.113       20.799       16.481        8.031      432.596      271.630       64.503        0.076        0.038       27.028        8.919        0.109      333.841        3.419      869.676
10/04/2013  06:38:00      -31.955      -18.835      -12.171       20.045       12.754        9.889      401.817      162.658       97.797        0.109        0.033       37.093        8.899        0.058      333.780        3.318      869.684
10/04/2013  06:39:00      -59.524       -9.032      -10.907       23.644       11.791        9.174      559.055      139.022       84.158        0.226        0.039       60.206        8.771        0.021      333.580        2.987      869.696
10/04/2013  06:40:00      -54.169       -9.075       -4.844       17.204       15.967        8.827      295.989      254.935       77.908        0.183        0.031       54.924        7.008        0.016      333.508        2.868      869.711
10/04/2013  06:41:00      -54.552        3.208      -16.298       32.713       13.701       10.287     1070.141      187.728      105.824        0.231        0.068       54.646        7.695        0.020      333.768        3.299      869.715
10/04/2013  06:42:00      -77.800        8.042      -14.443       12.889       10.778        8.601      166.121      116.166       73.984        0.334        0.018       78.215        7.756        0.010      333.495        2.847      869.703
10/04/2013  06:43:00      -42.901        0.565       -8.857       15.948        7.304        6.652      254.327       53.345       44.252        0.114        0.018       42.904        7.787        0.033      333.454        2.779      869.704
10/04/2013  06:44:00       -5.186      -18.257        0.986       14.952       10.846        8.400      223.568      117.639       70.565        0.039        0.021       18.979        8.690        0.210      333.603        3.026      869.714
10/04/2013  06:45:00     -109.066        1.773      -16.119       40.735       13.638       14.695     1659.324      186.006      215.941        0.711        0.103      109.081       15.671        0.021      333.301        2.524      869.717
10/04/2013  06:46:00     -101.083        8.438      -21.086       29.858       15.670       14.196      891.482      245.536      201.516        0.604        0.067      101.435       16.062        0.025      333.221        2.392      869.732
10/04/2013  06:47:00      -66.024      -11.776      -14.542       16.698       14.065       12.322      278.817      197.831      151.837        0.267        0.031       67.066        7.582        0.013      333.244        2.431      869.756
10/04/2013  06:48:00       -9.777      -26.574      -14.153       23.262       15.834       14.239      541.128      250.702      202.754        0.100        0.050       28.315       13.112        0.214      333.314        2.548      869.758
10/04/2013  06:49:00       14.644      -54.308       -2.572       19.181       14.234       15.039      367.920      202.606      226.166        0.198        0.040       56.247        7.735        0.019      333.332        2.576      869.753
10/04/2013  06:50:00      -73.722      -46.224      -10.965       21.454       20.872       11.530      460.280      435.634      132.947        0.436        0.051       87.015        3.273        0.001      333.349        2.605      869.729
10/04/2013  06:51:00      -84.839      -22.225      -15.211       27.750       23.709       12.354      770.044      562.097      152.619        0.470        0.074       87.702       10.093        0.013      333.325        2.565      869.721
10/04/2013  06:52:00      -85.576       -3.279      -10.114       23.534       21.555       14.902      553.845      464.623      222.075        0.434        0.062       85.639       11.259        0.017      333.257        2.453      869.714
10/04/2013  06:53:00      -91.087       21.996      -15.698       19.879       23.643       11.648      395.156      558.992      135.668        0.506        0.054       93.705        9.358        0.010      333.466        2.799      869.714
10/04/2013  06:54:00      -86.601       21.177      -12.740       22.694       23.232       12.574      515.013      539.720      158.107        0.466        0.061       89.152       10.628        0.014      333.413        2.712      869.725
10/04/2013  06:55:00      -63.432      -12.662      -14.246       17.974       16.444       10.267      323.068      270.399      105.419        0.254        0.035       64.684        7.275        0.013      333.340        2.591      869.739
10/04/2013  06:56:00      -68.923      -33.596       -9.647       20.741       18.053       12.003      430.172      325.908      144.075        0.344        0.045       76.675        6.845        0.008      333.408        2.703      869.762
10/04/2013  06:57:00      -99.659      -50.136      -12.496       32.491       34.089       19.611     1055.653     1162.043      384.583        0.760        0.130      111.560       14.363        0.017      333.299        2.523      869.778
10/04/2013  06:58:00      -69.354       -8.134       -4.595       41.371       22.958       18.145     1711.587      527.088      329.243        0.373        0.128       69.829       16.221        0.054      333.165        2.301      869.807
10/04/2013  06:59:00      -69.484      -15.529      -17.631       17.636       20.756       15.660      311.024      430.797      245.228        0.318        0.049       71.198       10.326        0.021      333.252        2.441      869.830
10/04/2013  07:00:00      -77.059      -20.012      -17.724       11.436       13.167       11.772      130.772      173.381      138.590        0.355        0.022       79.615        4.778        0.004      333.409        2.705      869.830
10/04/2013  07:01:00      -84.401      -14.074      -16.893       18.842       11.816        9.924      355.009      139.621       98.495        0.410        0.030       85.566        9.724        0.013      333.303        2.528      869.833
10/04/2013  07:02:00     -102.387      -25.730      -17.018       17.133       14.391       13.751      293.541      207.108      189.085        0.606        0.034      105.571        4.343        0.002      333.221        2.392      869.834
10/04/2013  07:03:00      -82.682      -41.071      -16.814       19.933       21.296       13.777      397.305      453.535      189.811        0.492        0.052       92.321        7.426        0.006      333.326        2.568      869.845
10/04/2013  07:04:00      -84.819      -26.883       -9.960       24.982       29.353       18.013      624.106      861.604      324.481        0.491        0.091       88.977       11.931        0.018      333.308        2.538      869.857
10/04/2013  07:05:00      -89.562      -52.522      -12.849       33.202       26.201       15.406     1102.343      686.469      237.333        0.649        0.101      103.826       12.171        0.014      333.290        2.509      869.860
10/04/2013  07:06:00      -92.687      -17.775      -11.605       34.962       24.007       18.283     1222.354      576.347      334.264        0.559        0.107       94.376       15.232        0.026      333.207        2.370      869.861
10/04/2013  07:07:00     -128.392      -16.149       -9.132       30.381       28.874       20.301      923.005      833.682      412.116        0.950        0.108      129.403       15.648        0.015      333.173        2.313      869.854
10/04/2013  07:08:00     -124.883      -17.101      -17.912       48.456       21.942       15.910     2347.994      481.467      253.119        0.965        0.154      126.048       17.918        0.020      333.207        2.368      869.850
10/04/2013  07:09:00      -54.124      -18.823        1.971       31.083       40.168       16.006      966.124     1613.466      256.186        0.306        0.142       57.303       10.868        0.036      333.191        2.343      869.861
10/04/2013  07:10:00      -37.318      -25.733       -4.995       22.467       23.955       11.319      504.786      573.852      128.109        0.164        0.060       45.330       10.187        0.051      333.339        2.588      869.878
10/04/2013  07:11:00      -82.673      -20.531      -12.340       27.866       31.430       17.685      776.510      987.876      312.776        0.474        0.104       85.185       13.718        0.026      333.337        2.585      869.897
10/04/2013  07:12:00      -91.304      -47.600      -18.138       37.063       31.261       20.335     1373.678      977.257      413.515        0.685        0.138      102.967       12.928        0.016      333.424        2.731      869.911
10/04/2013  07:13:00      -73.094      -35.867      -13.198       55.592       26.304       21.160     3090.429      691.917      447.751        0.552        0.212       81.419       23.014        0.080      333.342        2.596      869.938
10/04/2013  07:14:00      -75.405       -4.364       -1.793       42.220       29.307       25.611     1782.515      858.929      655.901        0.450        0.165       75.531       20.754        0.075      333.296        2.518      869.945
10/04/2013  07:15:00      -75.337       -4.131       -7.591       23.722       21.704       15.578      562.710      471.068      242.675        0.351        0.064       75.450       15.273        0.041      333.287        2.503      869.952
10/04/2013  07:16:00      -91.633       10.470      -20.862       24.248       16.089       18.831      587.985      258.872      354.625        0.507        0.060       92.229       12.471        0.018      333.238        2.422      869.951
10/04/2013  07:17:00      -58.326        3.537      -13.086       25.284       22.468       15.346      639.268      504.799      235.503        0.248        0.069       58.433       13.704        0.055      333.285        2.499      869.969
10/04/2013  07:18:00      -53.164       -4.399      -15.157       21.596       15.037       14.549      466.387      226.122      211.667        0.199        0.045       53.346       10.865        0.041      333.429        2.737      869.979
10/04/2013  07:19:00     -106.201      -20.137      -15.871       23.231       20.335       14.962      539.669      413.497      223.859        0.656        0.059      108.093       12.595        0.014      333.437        2.752      869.974
10/04/2013  07:20:00      -88.814       -8.032       -7.512       27.961       24.813       15.853      781.800      615.698      251.328        0.483        0.082       89.176       13.016        0.021      333.411        2.709      869.974
10/04/2013  07:21:00      -61.820       -7.694      -10.037       28.180       20.104       15.564      794.128      404.153      242.250        0.271        0.072       62.297        8.740        0.020      333.365        2.631      869.994
10/04/2013  07:22:00      -57.925       16.581       -8.463       24.582       18.836       15.083      604.290      354.777      227.505        0.244        0.059       60.251       11.372        0.036      333.494        2.845      870.025
10/04/2013  07:23:00      -82.613       23.702      -10.756       16.494       10.644       11.148      272.054      113.302      124.278        0.401        0.025       85.946        9.239        0.012      333.774        3.311      870.039
10/04/2013  07:24:00      -64.692      -11.618      -13.417       17.553       14.851        9.185      308.121      220.566       84.356        0.256        0.031       65.727        7.676        0.014      333.730        3.237      870.053
10/04/2013  07:25:00      -89.780      -23.045      -17.558       17.024       15.348       11.473      289.803      235.570      131.621        0.478        0.033       92.690        7.893        0.007      333.651        3.106      870.071
10/04/2013  07:26:00      -76.054      -20.889      -15.133       17.458       14.768       12.413      304.792      218.092      154.088        0.356        0.034       78.870        9.695        0.015      333.658        3.117      870.083
10/04/2013  07:27:00      -69.786      -13.047      -15.532       14.126       16.669       10.197      199.551      277.866      103.974        0.293        0.029       70.995        5.397        0.006      333.666        3.130      870.099
10/04/2013  07:28:00      -61.930        1.312      -10.994       16.112       15.271       10.295      259.604      233.209      105.981        0.228        0.030       61.944        9.708        0.025      333.697        3.181      870.113
10/04/2013  07:29:00      -47.814      -13.404       -6.121        8.962       13.171        7.684       80.318      173.481       59.046        0.141        0.016       49.658        5.293        0.011      333.705        3.193      870.092
10/04/2013  07:30:00      -20.398      -23.879       -9.491       25.123       17.923        9.504      631.164      321.231       90.318        0.106        0.052       31.405       10.129        0.104      333.872        3.472      870.102
10/04/2013  07:31:00      -21.018      -18.339       -4.319       19.448       24.030       12.793      378.208      577.432      163.653        0.096        0.056       27.894        7.490        0.072      334.096        3.844      870.092
10/04/2013  07:32:00      -72.138      -29.827      -14.766       13.632       12.919       11.690      185.828      166.900      136.663        0.340        0.024       78.061        5.686        0.005      333.713        3.208      870.081
10/04/2013  07:33:00      -53.727      -34.623       -7.839       18.603       19.724       12.740      346.073      389.024      162.315        0.252        0.045       63.916        7.987        0.016      333.678        3.151      870.076
10/04/2013  07:34:00      -63.399      -38.925       -9.274       10.961       13.343        8.343      120.134      178.028       69.598        0.299        0.018       74.395        3.312        0.002      333.815        3.378      870.076
10/04/2013  07:35:00      -36.387       -9.906       -3.034       19.095       10.183       11.596      364.626      103.695      134.467        0.102        0.030       37.712        9.137        0.059      334.041        3.753      870.074
10/04/2013  07:36:00      -22.412       -7.066        7.901       12.826       13.435        9.562      164.512      180.495       91.426        0.053        0.022       23.500        7.161        0.093      334.188        3.995      870.087
10/04/2013  07:37:00        6.451       30.962       -3.474       21.784       31.530       11.561      474.533      994.123      133.654        0.131        0.080       31.627       16.336        0.267      334.489        4.495      870.090
10/04/2013  07:38:00       -7.180       66.370       -5.937       33.233       32.293       22.139     1104.402     1042.826      490.153        0.356        0.132       66.758       17.707        0.070      334.496        4.507      870.115
10/04/2013  07:39:00       12.858       45.835        2.108       19.961       35.462       16.447      398.453     1257.529      270.501        0.210        0.096       47.604       13.997        0.086      334.670        4.794      870.139
10/04/2013  07:40:00        2.859       28.369        3.032       16.635       22.744       13.393      276.737      517.284      179.381        0.090        0.049       28.513       15.075        0.280      334.794        5.001      870.164
10/04/2013  07:41:00        1.088        3.829       17.629        7.238        7.534        6.652       52.383       56.767       44.252        0.024        0.008        3.981        5.512        1.918      334.957        5.273      870.198
10/04/2013  07:42:00       18.423       13.149        9.853       11.957       11.249       12.080      142.976      126.544      145.933        0.051        0.021       22.634       11.695        0.267      334.549        4.594      870.227
10/04/2013  07:43:00       39.372       10.808        3.650       13.552       14.833       10.162      183.669      220.032      103.263        0.109        0.025       40.828        9.769        0.057      334.651        4.763      870.244
10/04/2013  07:44:00        6.331       19.481        8.316       16.679       21.840       13.567      278.198      477.001      184.067        0.071        0.047       20.484        9.278        0.205      334.855        5.103      870.240
10/04/2013  07:45:00        8.589        3.170       10.687        7.827        6.533        7.830       61.256       42.675       61.311        0.018        0.008        9.156        5.317        0.337      334.918        5.207      870.236
10/04/2013  07:46:00       -1.953        6.279       15.030        7.051       15.757        7.384       49.710      248.277       54.523        0.031        0.018        6.575        5.575        0.719      334.937        5.239      870.233
10/04/2013  07:47:00      -22.065      -19.477       -1.680       13.004        9.643        7.311      169.111       92.980       53.452        0.059        0.016       29.432        6.673        0.051      334.459        4.446      870.237
10/04/2013  07:48:00      -18.601       -3.046       -3.365        6.764        8.138        4.711       45.752       66.219       22.198        0.025        0.007       18.849        3.261        0.030      334.389        4.331      870.256
10/04/2013  07:49:00      -28.962       -2.118       -5.191        5.850        4.656        5.584       34.226       21.674       31.177        0.048        0.004       29.039        3.106        0.011      334.426        4.390      870.273
10/04/2013  07:50:00      -40.961        4.466       -4.677        8.007        7.818        6.273       64.105       61.115       39.355        0.094        0.008       41.203        4.044        0.010      334.459        4.446      870.295
10/04/2013  07:51:00      -16.822        2.660       11.082       12.589        9.870       10.339      158.489       97.413      106.904        0.039        0.018       17.031        8.927        0.275      334.993        5.332      870.326
10/04/2013  07:52:00      -10.886        2.004        2.391        6.962        9.384        9.389       48.463       88.055       88.161        0.018        0.011       11.069        6.341        0.328      334.725        4.886      870.346
10/04/2013  07:53:00       -1.857       -4.728        6.281        7.995        7.348       10.557       63.922       53.995      111.450        0.015        0.011        5.079        7.193        2.005      335.171        5.628      870.358
10/04/2013  07:54:00       17.874       14.709       19.717       19.943       15.643       16.183      397.708      244.708      261.889        0.091        0.045       23.148        9.796        0.179      335.113        5.533      870.368
10/04/2013  07:55:00       28.549       24.477        7.297       21.526       17.690       17.088      463.382      312.919      292.010        0.127        0.053       37.606       10.695        0.081      334.946        5.255      870.385
10/04/2013  07:56:00       70.798       31.815       11.019       32.696       28.424       21.548     1069.016      807.904      464.334        0.424        0.117       77.618       16.499        0.045      334.814        5.034      870.399
10/04/2013  07:57:00       30.340        9.228       12.576       19.479       13.023       14.974      379.449      169.586      224.216        0.097        0.039       31.713       12.776        0.162      334.959        5.276      870.417
10/04/2013  07:58:00       -1.516       14.107       27.973        9.574       11.726       10.508       91.670      137.498      110.410        0.066        0.017       14.188        7.377        0.270      335.394        5.999      870.423
10/04/2013  07:59:00        2.667       18.887       25.978       16.373       16.074       11.743      268.080      258.389      137.899        0.085        0.033       19.074        7.339        0.148      335.393        5.998      870.426
10/04/2013  08:00:00       17.944       28.240       22.436       16.063       17.723       18.587      258.009      314.104      345.480        0.127        0.046       33.458       11.073        0.110      335.194        5.667      870.421
10/04/2013  08:01:00       14.785       20.859       38.854       21.579       17.768       18.076      465.663      315.688      326.727        0.164        0.055       25.568       14.403        0.317      335.314        5.866      870.417
10/04/2013  08:02:00       40.003       49.147       51.521       26.179       23.651       11.519      685.346      559.389      132.683        0.402        0.069       63.369        4.963        0.006      335.177        5.637      870.420
10/04/2013  08:03:00       28.730       44.034       48.822       27.808       18.819       19.770      773.287      354.139      390.857        0.333        0.076       52.578       14.305        0.074      335.265        5.783      870.427
10/04/2013  08:04:00       31.418       75.286       66.818       36.606       25.308       16.356     1339.968      640.505      267.513        0.668        0.112       81.578       18.619        0.052      335.143        5.583      870.418
10/04/2013  08:05:00       63.043       55.340       34.688       30.651       16.564       19.632      939.494      274.379      385.412        0.492        0.080       83.887       19.445        0.054      335.190        5.660      870.409
10/04/2013  08:06:00       34.162       30.335       15.421       16.557       25.505       27.540      274.127      650.522      758.451        0.200        0.084       45.687       23.597        0.267      335.224        5.716      870.406
10/04/2013  08:07:00       41.590      -16.076       11.309       24.305       46.101       27.209      590.746     2125.323      740.304        0.279        0.173       44.588       20.724        0.216      335.399        6.006      870.402
10/04/2013  08:08:00       49.878      -86.790       -3.717       31.284       51.165       22.458      978.715     2617.810      504.363        0.707        0.205      100.102       17.828        0.032      335.434        6.066      870.406
10/04/2013  08:09:00       25.804        1.493       35.496       34.938       58.567       30.919     1220.656     3430.051      956.011        0.377        0.280       25.847       35.714        1.909      335.504        6.181      870.422
10/04/2013  08:10:00       16.799       41.505       39.247       24.946       29.145       23.844      622.287      849.436      568.534        0.279        0.102       44.776       17.290        0.149      335.546        6.253      870.461
10/04/2013  08:11:00       47.590      -46.382        9.504       26.351       50.168       23.085      694.385     2516.851      532.915        0.412        0.187       66.454       24.199        0.133      335.530        6.226      870.499
10/04/2013  08:12:00       46.321       30.110       26.766       27.487       25.418       25.215      755.539      646.051      635.785        0.290        0.102       55.248       16.447        0.089      335.558        6.272      870.532
10/04/2013  08:13:00       41.557       10.650       15.757       25.789       21.648       18.216      665.079      468.636      331.824        0.178        0.073       42.900       14.123        0.108      335.560        6.276      870.554
10/04/2013  08:14:00       55.530       29.786       13.531       30.644       33.950       25.263      939.059     1152.573      638.205        0.344        0.136       63.014       14.569        0.053      335.604        6.349      870.562
10/04/2013  08:15:00       91.909       26.492        7.068       27.455       27.755       24.196      753.767      770.333      585.447        0.565        0.105       95.651       11.173        0.014      335.551        6.258      870.580
10/04/2013  08:16:00      122.015       43.407       26.285       44.358       36.926       42.804     1967.659     1363.535     1832.166        1.131        0.258      129.506       25.175        0.038      335.345        5.917      870.592
10/04/2013  08:17:00       63.262       29.119       32.434       58.383       44.164       42.048     3408.598     1950.499     1768.019        0.651        0.356       69.641       42.214        0.367      335.461        6.109      870.590
10/04/2013  08:18:00       53.139       52.461       50.954       36.603       23.741       24.684     1339.795      563.626      609.296        0.534        0.126       74.672       10.629        0.020      335.508        6.189      870.596
10/04/2013  08:19:00       76.306       62.842       16.317       22.559       26.663       31.462      508.887      710.902      989.866        0.612        0.110       98.852       21.302        0.046      335.303        5.845      870.601
10/04/2013  08:20:00       48.658       50.206        1.657       18.251       18.326       18.132      333.111      335.836      328.764        0.294        0.050       69.916       11.131        0.025      335.478        6.138      870.613
10/04/2013  08:21:00       22.480       40.179       15.683       17.977       16.310       18.014      323.173      266.017      324.506        0.164        0.046       46.040        8.083        0.031      335.733        6.564      870.610
10/04/2013  08:22:00       28.628       52.835       55.102       33.492       29.994       28.996     1121.725      899.618      840.754        0.475        0.143       60.093       24.268        0.163      335.702        6.512      870.622
10/04/2013  08:23:00       68.557       69.714       60.393       38.652       31.694       26.504     1493.994     1004.481      702.447        0.820        0.160       97.775       23.960        0.060      335.506        6.185      870.623
10/04/2013  08:24:00        4.754       34.921       77.877       36.163       42.215       31.248     1307.754     1782.115      976.457        0.569        0.203       35.243       20.980        0.354      335.878        6.806      870.625
10/04/2013  08:25:00       26.374       49.636       31.253       40.782       32.364       39.873     1663.195     1047.398     1589.862        0.422        0.215       56.208       32.215        0.328      335.803        6.680      870.632
10/04/2013  08:26:00       91.687       84.746        4.866       49.185       44.292       30.299     2419.200     1961.812      918.038        1.045        0.265      124.854       16.633        0.018      335.552        6.261      870.633
10/04/2013  08:27:00       88.397       68.801       12.503       31.341       26.257       28.362      982.256      689.437      804.419        0.759        0.124      112.016       13.820        0.015      335.600        6.343      870.636
10/04/2013  08:28:00       88.976       72.925       19.296       36.527       31.124       29.350     1334.196      968.710      861.423        0.839        0.158      115.043        9.118        0.006      335.726        6.551      870.652
10/04/2013  08:29:00      130.420       85.586       21.275       53.559       48.398       36.967     2868.536     2342.318     1366.526        1.568        0.329      155.995       19.320        0.015      335.605        6.349      870.658
10/04/2013  08:30:00      180.714      103.630       15.718       45.154       43.086       37.613     2038.848     1856.415     1414.737        2.448        0.266      208.318       25.114        0.015      335.466        6.117      870.663
10/04/2013  08:31:00      166.317      110.774       21.711       55.387       47.366       39.447     3067.688     2243.501     1556.098        2.363        0.343      199.831       24.673        0.015      335.395        5.997      870.675
10/04/2013  08:32:00       86.705       64.169       26.994       38.242       36.146       31.250     1462.435     1306.541      976.586        0.805        0.187      107.868       17.138        0.025      335.515        6.200      870.687
10/04/2013  08:33:00       89.912       64.697       16.708       29.203       27.094       28.989      852.819      734.093      840.357        0.749        0.121      110.769       19.956        0.032      335.561        6.275      870.699
10/04/2013  08:34:00       56.441       52.531       54.020       61.152       49.753       44.273     3739.527     2475.314     1960.126        0.852        0.409       77.104       28.705        0.139      335.831        6.727      870.722
10/04/2013  08:35:00       18.096       59.134       78.091       43.343       36.232       26.091     1878.605     1312.789      680.716        0.690        0.194       61.841       19.979        0.104      335.932        6.895      870.752
10/04/2013  08:36:00       69.650       70.661       64.646       62.555       49.465       48.364     3913.174     2446.833     2339.096        1.136        0.435       99.218       42.858        0.187      335.822        6.711      870.773
10/04/2013  08:37:00      117.212       72.087       14.878       54.322       46.887       35.723     2950.902     2198.383     1276.155        1.279        0.321      137.605       23.455        0.029      335.860        6.775      870.781
10/04/2013  08:38:00       98.356       69.513       44.791       56.070       49.201       35.891     3143.899     2420.755     1288.183        1.168        0.343      120.441       25.260        0.044      335.730        6.558      870.779
10/04/2013  08:39:00       98.707       38.217       34.229       65.596       49.110       41.335     4302.837     2411.745     1708.555        1.040        0.421      105.847       25.465        0.058      335.941        6.910      870.772
10/04/2013  08:40:00      120.038      149.665      107.395       92.764       71.771       76.399     8605.084     5151.065     5836.819        3.396        0.980      191.856       68.732        0.128      335.836        6.731      870.765
10/04/2013  08:41:00       69.203        7.109       39.608       58.912       51.804       34.222     3470.612     2683.623     1171.151        0.687        0.366       69.567       31.356        0.203      335.990        6.992      870.774
10/04/2013  08:42:00      128.806       25.543       61.586      133.857       70.319       62.569    17917.810     4944.724     3914.831        2.390        1.339      131.315       53.696        0.167      335.980        6.973      870.767
10/04/2013  08:43:00      133.114       48.161       98.463      113.143      121.314       88.646    12801.306    14717.176     7858.126        3.255        1.769      141.559       72.846        0.265      335.932        6.892      870.765
10/04/2013  08:44:00      175.559      100.470       93.569      108.666       90.696       79.649    11808.226     8225.762     6343.939        3.802        1.319      202.275       59.984        0.088      335.752        6.592      870.779
10/04/2013  08:45:00      158.827       85.540       34.938       97.294       77.145       56.440     9466.213     5951.385     3185.471        2.618        0.930      180.397       39.077        0.047      335.719        6.538      870.791
10/04/2013  08:46:00      100.093       88.547       60.373       84.534       63.702       62.622     7146.071     4057.915     3921.571        1.831        0.756      133.638       44.921        0.113      335.998        7.003      870.791
10/04/2013  08:47:00      169.558      162.304      139.684      104.086       70.464       79.481    10833.814     4965.210     6317.265        4.836        1.106      234.718       65.057        0.077      335.831        6.723      870.794
10/04/2013  08:48:00      193.038      124.565       71.608      137.629       85.001       96.364    18941.647     7225.229     9285.945        4.667        1.773      229.740       93.108        0.164      335.840        6.740      870.799
10/04/2013  08:49:00      193.708       94.528       47.744       93.575       79.534       66.193     8756.331     6325.677     4381.532        3.410        0.973      215.542       43.343        0.040      335.927        6.884      870.800
10/04/2013  08:50:00      100.748       48.907       42.402       75.636       57.348       35.610     5720.853     3288.756     1268.047        1.231        0.514      111.991       24.895        0.049      336.185        7.316      870.811
10/04/2013  08:51:00      145.470       82.942       15.375       67.046       60.487       42.350     4495.135     3658.682     1793.555        1.911        0.497      167.454       15.495        0.009      335.982        6.976      870.825
10/04/2013  08:52:00      134.491       78.337       17.118       72.569       53.941       49.074     5266.302     2909.632     2408.257        1.755        0.529      155.642       41.140        0.070      335.904        6.848      870.835
10/04/2013  08:53:00      251.522      168.153       43.417      131.601       91.217       70.749    17318.748     8320.497     5005.396        6.203        1.532      302.553       43.602        0.021      335.821        6.706      870.845
10/04/2013  08:54:00      269.238       97.035       15.514      107.056       81.441       55.513    11460.943     6632.564     3081.663        5.166        1.059      286.190       33.770        0.014      335.817        6.699      870.854
10/04/2013  08:55:00      226.840      119.068       15.597       77.315       81.495       64.247     5977.608     6641.397     4127.719        4.131        0.837      256.191       46.399        0.033      335.640        6.405      870.881
10/04/2013  08:56:00      158.196      102.004       32.425       72.964       62.517       43.598     5323.762     3908.349     1900.754        2.381        0.557      188.230       37.514        0.040      335.776        6.635      870.884
10/04/2013  08:57:00      112.113       72.185       33.036       65.903       57.749       47.757     4343.206     3334.917     2280.760        1.441        0.498      133.342       32.494        0.059      335.990        6.991      870.887
10/04/2013  08:58:00       40.838       11.590       47.907       48.570       59.825       37.945     2359.006     3579.004     1439.806        0.574        0.369       42.451       26.989        0.404      336.316        7.537      870.898
10/04/2013  08:59:00      103.084        9.946       63.669       66.788       77.705       57.580     4460.656     6038.125     3315.424        1.429        0.691      103.562       50.816        0.241      336.235        7.399      870.914
10/04/2013  09:00:00       54.105        2.521       37.064       45.852       99.970       47.155     2102.391     9994.011     2223.623        0.931        0.716       54.164       22.312        0.170      336.291        7.493      870.934
10/04/2013  09:01:00      243.643      145.790       33.066       71.289       47.990       56.185     5082.108     2302.996     3156.785        4.612        0.527      283.930       40.642        0.020      335.919        6.870      870.955
10/04/2013  09:02:00      147.366      114.131       16.913       64.723       61.073       43.740     4189.009     3729.936     1913.145        2.243        0.492      186.393       28.901        0.024      335.917        6.870      870.954
10/04/2013  09:03:00      162.876      105.299       39.410      129.863       71.984       53.963    16864.433     5181.751     2911.995        3.206        1.248      193.950       43.258        0.050      336.106        7.184      870.956
10/04/2013  09:04:00      107.615       -6.137       20.021       80.046      111.747       46.141     6407.438    12487.337     2129.034        1.652        1.051      107.790       40.096        0.138      336.130        7.224      870.941
10/04/2013  09:05:00      118.875       51.833       73.321       67.186       66.515       53.533     4513.930     4424.213     2865.788        1.700        0.590      129.684       52.607        0.165      336.077        7.136      870.944
10/04/2013  09:06:00       94.428       70.183       85.033       85.512       67.787       64.700     7312.338     4595.134     4186.141        1.858        0.805      117.653       54.528        0.215      336.144        7.247      870.941
10/04/2013  09:07:00       61.910       87.790       83.124       64.176       48.423       52.243     4118.565     2344.819     2729.366        1.382        0.460      107.424       51.098        0.226      336.114        7.199      870.938
10/04/2013  09:08:00       79.340       50.922       35.672       77.559       44.155       49.501     6015.442     1949.660     2450.305        1.029        0.521       94.275       45.644        0.234      336.353        7.598      870.938
10/04/2013  09:09:00      170.159       84.622       32.019       76.599       65.467       59.870     5867.375     4285.900     3584.452        2.544        0.687      190.039       30.418        0.026      336.341        7.576      870.946
10/04/2013  09:10:00       52.129       -5.187       40.451       65.919       49.324       36.831     4345.375     2432.811     1356.546        0.626        0.407       52.387       22.030        0.177      336.666        8.121      870.954
10/04/2013  09:11:00       22.941       -0.644       53.395       40.895       52.250       45.648     1672.400     2730.087     2083.729        0.493        0.324       22.950       33.696        2.156      336.907        8.524      870.957
10/04/2013  09:12:00       67.851       30.348       61.264       93.229       78.801       62.443     8691.699     6209.561     3899.183        1.404        0.940       74.328       53.716        0.522      336.583        7.983      870.952
10/04/2013  09:13:00      133.632       78.138       39.527       92.198       69.560       56.599     8500.430     4838.653     3203.403        2.103        0.827      154.800       47.734        0.095      336.155        7.265      870.954
10/04/2013  09:14:00      143.965      157.913      109.507       75.870       57.303       73.548     5756.329     3283.621     5409.325        3.605        0.722      213.688       59.540        0.078      336.200        7.337      870.957
10/04/2013  09:15:00      248.486      144.015       64.704      126.310      105.961      107.322    15954.232    11227.710    11518.087        6.268        1.935      287.203       93.442        0.106      336.175        7.297      870.964
10/04/2013  09:16:00      181.433      101.117       62.484      163.435      109.030       61.820    26710.920    11887.434     3821.697        4.472        2.121      207.708       69.992        0.114      336.189        7.321      870.959
10/04/2013  09:17:00      204.878      144.082       32.171       89.981       73.639       65.517     8096.633     5422.713     4292.523        4.079        0.891      250.469       46.566        0.035      336.137        7.234      870.953
10/04/2013  09:18:00      202.158      124.066       83.999      124.141       87.387       83.035    15411.010     7636.515     6894.873        4.662        1.497      237.192       79.179        0.111      336.283        7.477      870.957
10/04/2013  09:19:00      149.330       84.913       63.719       92.705       60.409       68.532     8594.262     3649.272     4696.596        2.525        0.847      171.784       62.089        0.131      336.432        7.727      870.981
10/04/2013  09:20:00       77.307       15.213       29.185       74.632       73.044       54.441     5569.998     5335.403     2963.795        1.046        0.693       78.789       35.550        0.204      336.577        7.973      870.980
10/04/2013  09:21:00      169.497       58.640       74.466      108.696       80.071       56.399    11814.813     6411.429     3180.834        2.956        1.070      179.354       45.215        0.064      336.685        8.151      870.979
10/04/2013  09:22:00       97.776       27.266       88.951       84.572      121.527       84.600     7152.427    14768.834     7157.167        2.364        1.454      101.507       72.798        0.514      336.829        8.392      871.003
10/04/2013  09:23:00      139.177     -189.501        2.890      109.832      111.589       69.839    12063.047    12452.115     4877.417        4.233        1.470      235.118       72.231        0.094      336.536        7.901      871.002
10/04/2013  09:24:00      123.119       13.419       79.841       89.260      120.140       91.017     7967.396    14433.567     8284.043        2.619        1.534      123.848       95.137        0.590      336.640        8.076      871.011
10/04/2013  09:25:00      131.187       73.009       72.133       96.489       70.950       73.612     9310.190     5033.964     5418.684        2.375        0.988      150.135       59.082        0.155      336.426        7.717      871.008
10/04/2013  09:26:00      220.833      115.203       63.464      137.308       86.746       97.654    18853.596     7524.867     9536.299        5.098        1.796      249.076       92.589        0.138      336.423        7.711      871.003
10/04/2013  09:27:00      107.416      121.619      106.516       80.779       70.106       71.132     6525.275     4914.878     5059.751        2.708        0.825      162.263       57.178        0.124      336.589        7.991      871.013
10/04/2013  09:28:00       88.572       19.962       67.772       92.925      154.009       76.640     8634.969    23718.718     5873.743        2.552        1.911       90.794       87.577        0.930      336.851        8.427      870.998
10/04/2013  09:29:00      163.308     -119.132       23.286      128.528      147.601       94.379    16519.553    21786.087     8907.378        4.430        2.361      202.144      105.105        0.270      336.709        8.190      870.983
10/04/2013  09:30:00       98.594     -161.765       15.618       83.512      126.967       63.197     6974.197    16120.569     3993.923        3.161        1.354      189.443       71.237        0.141      336.478        7.805      870.992
10/04/2013  09:31:00      112.538       35.452       74.166       83.635      146.215       78.790     6994.790    21378.756     6207.797        2.699        1.729      117.990       82.930        0.494      336.726        8.218      870.996
10/04/2013  09:32:00      154.808       18.894       91.838      127.532      187.397      110.166    16264.409    35117.790    12136.505        4.813        3.176      155.957      134.781        0.747      336.599        8.006      870.994
10/04/2013  09:33:00      130.471      -16.298       86.096       89.770       98.599       82.854     8058.738     9721.781     6864.779        2.467        1.232      131.485       76.183        0.336      336.816        8.370      871.016
10/04/2013  09:34:00       86.035      -46.563       16.401       72.179       68.798       51.887     5209.816     4733.129     2692.310        1.123        0.632       97.827       46.847        0.229      336.989        8.660      871.019
10/04/2013  09:35:00      152.027     -127.987       10.249       92.798      115.932       63.311     8611.411    13440.196     4008.322        3.282        1.303      198.728       65.563        0.109      336.922        8.546      871.009
10/04/2013  09:36:00       69.716      -35.307       57.764       86.686      137.042       95.953     7514.415    18780.420     9206.945        2.247        1.775       78.147      102.885        1.733      337.057        8.773      871.031
10/04/2013  09:37:00      144.496      -72.398       45.343      119.465      120.052       84.244    14271.921    14412.447     7097.054        3.197        1.789      161.618       87.972        0.296      336.787        8.321      871.034
10/04/2013  09:38:00      143.574      105.439       98.262      104.393       91.498       76.147    10897.973     8371.968     5798.296        3.322        1.253      178.132       66.685        0.140      336.733        8.230      871.032
10/04/2013  09:39:00      157.379      127.578      108.958      132.396      134.606       97.698    17528.816    18118.693     9544.936        4.905        2.260      202.593       71.293        0.124      336.783        8.314      871.000
10/04/2013  09:40:00      160.371      132.838      180.964      152.901      144.554      100.947    23378.572    20895.737    10190.264        6.528        2.723      208.243      100.733        0.234      336.772        8.295      870.991
10/04/2013  09:41:00      112.840       11.728       95.340      139.819      129.022       87.159    19549.392    16646.752     7596.664        3.287        2.190      113.448       86.370        0.580      337.042        8.748      870.993
10/04/2013  09:42:00      163.569       48.252      122.043      155.654      153.308      113.801    24228.118    23503.416    12950.581        5.232        3.034      170.538      128.615        0.569      336.755        8.268      871.027
10/04/2013  09:43:00      133.965     -162.372        0.620      113.585      123.805       77.447    12901.628    15327.644     5998.082        3.926        1.711      210.503       72.006        0.117      336.925        8.550      871.010
10/04/2013  09:44:00      200.204      -88.296       85.697      188.499      206.662      122.576    35531.807    42709.217    15024.900        7.422        4.663      218.810      156.351        0.511      336.861        8.445      871.001
10/04/2013  09:45:00      208.755      -32.310      114.750      170.271      175.011      103.250    28992.129    30628.902    10660.603        6.402        3.514      211.240      126.006        0.356      336.859        8.440      871.015
10/04/2013  09:46:00      131.707      -72.434       73.508       98.966       85.623       63.854     9794.337     7331.381     4077.384        2.460        1.060      150.311       49.074        0.107      336.826        8.387      871.034
10/04/2013  09:47:00      155.835      122.833      118.359      121.466      123.170      104.282    14754.031    15170.883    10874.682        4.708        2.040      198.425       92.054        0.215      336.811        8.360      871.036
10/04/2013  09:48:00      169.102       73.585      136.513      118.535       88.361       77.719    14050.593     7807.580     6040.304        4.027        1.395      184.419       70.569        0.146      336.864        8.450      871.035
10/04/2013  09:49:00       77.257       62.899       82.246       91.372       77.644       72.403     8348.801     6028.631     5242.202        1.815        0.981       99.624       54.252        0.297      337.017        8.707      871.046
10/04/2013  09:50:00      119.224       99.246       91.096      122.838       73.194       73.674    15089.116     5357.413     5427.798        2.911        1.294      155.126       74.976        0.234      337.175        8.970      871.065
10/04/2013  09:51:00      278.024      138.564      141.689      176.053      133.581      113.357    30994.775    17843.999    12849.820        8.912        3.084      310.640       91.074        0.086      336.798        8.338      871.038
10/04/2013  09:52:00      143.510      198.513      187.936      112.329      115.459       95.285    12617.826    13330.818     9079.244        6.517        1.751      244.954       83.163        0.115      336.732        8.229      871.053
10/04/2013  09:53:00      129.948      114.243      108.021      151.907      106.445       77.251    23075.765    11330.478     5967.702        4.098        2.019      173.026       64.138        0.137      336.932        8.563      871.034
10/04/2013  09:54:00      316.197      166.455       53.816      138.484      144.074      118.452    19177.937    20757.361    14030.901        9.226        2.698      357.335       62.407        0.031      336.729        8.223      871.021
10/04/2013  09:55:00      241.267      113.272       67.641      183.255      117.062      122.015    33582.469    13703.457    14887.669        6.888        3.109      266.534       99.870        0.140      336.719        8.207      871.022
10/04/2013  09:56:00      153.932      124.666       33.143      160.569       70.382       77.259    25782.322     4953.685     5968.896        3.851        1.835      198.082       57.165        0.083      336.676        8.136      871.038
10/04/2013  09:57:00      256.243      160.250       28.406       94.462       68.058       69.986     8923.067     4631.860     4897.984        5.530        0.923      302.226       36.465        0.015      336.706        8.185      871.030
10/04/2013  09:58:00      251.049      116.029       77.294      136.414       92.584       88.216    18608.817     8571.757     7782.058        5.871        1.748      276.565       65.054        0.055      336.733        8.229      871.022
10/04/2013  09:59:00      251.940      171.713       58.329      126.314       82.584       85.296    15955.254     6820.045     7275.491        6.320        1.503      304.892       44.747        0.022      336.732        8.229      871.029
10/04/2013  10:00:00      241.449      142.685       70.649      128.503      107.280       87.857    16512.929    11508.894     7718.821        5.969        1.787      280.458       71.353        0.065      336.897        8.505      871.031
10/04/2013  10:01:00      189.774      164.953       50.956      114.569       72.903       82.414    13126.148     5314.796     6792.102        4.552        1.262      251.443       63.998        0.065      336.946        8.586      871.050
10/04/2013  10:02:00      206.274       89.082       24.527      115.507       87.108       53.520    13341.824     7587.820     2864.364        3.744        1.190      224.688       50.421        0.050      336.695        8.165      871.065
10/04/2013  10:03:00      138.550      118.625       75.534       94.205       58.291       71.753     8874.528     3397.801     5148.556        2.819        0.871      182.395       67.056        0.135      337.006        8.687      871.062
10/04/2013  10:04:00      126.065       80.544       46.785       72.417       72.487       64.594     5244.275     5254.302     4172.351        1.962        0.734      149.599       50.345        0.113      337.162        8.948      871.053
10/04/2013  10:05:00       93.966       57.884       75.592       96.970      113.440       66.696     9403.143    12868.563     4448.342        2.230        1.336      110.364       73.157        0.439      337.422        9.384      871.051
10/04/2013  10:06:00       88.285      -98.840       42.170       91.185      142.236       92.729     8314.614    20231.118     8598.743        2.824        1.857      132.527       93.602        0.499      337.539        9.579      871.048
10/04/2013  10:07:00      158.946     -141.519       22.044      125.836      192.891      105.878    15834.576    37206.763    11210.135        5.500        3.213      212.818      131.625        0.383      337.203        9.016      871.034
10/04/2013  10:08:00       94.166      -75.333       63.792      109.200      202.010      111.187    11924.565    40808.058    12362.501        4.184        3.255      120.591      145.212        1.450      337.237        9.074      871.049
10/04/2013  10:09:00      231.486     -295.100      -39.533       90.852       84.866       49.562     8254.108     7202.247     2456.427        8.007        0.896      375.060       37.784        0.010      336.822        8.379      871.038
10/04/2013  10:10:00       75.196       57.619      114.790      118.738      130.696       79.579    14098.771    17081.401     6332.869        2.982        1.876       94.733      100.955        1.136      337.324        9.219      871.042
10/04/2013  10:11:00       89.918       -8.123      110.116      132.776      193.615      112.413    17629.476    37486.589    12636.633        4.400        3.388       90.284      137.468        2.318      337.274        9.136      871.039
10/04/2013  10:12:00      131.288     -128.597       27.724      141.682      225.109       80.253    20073.860    50673.876     6440.605        5.585        3.859      183.777      108.089        0.346      337.227        9.058      870.984
10/04/2013  10:13:00      158.370       92.373       32.391      123.267       84.096       54.028    15194.693     7072.161     2919.001        2.992        1.259      183.340       43.649        0.057      337.218        9.040      871.043
10/04/2013  10:14:00      144.005      103.389       81.156      130.947       84.943       83.739    17147.018     7215.310     7012.193        3.469        1.569      177.276       62.491        0.124      337.111        8.863      871.035
10/04/2013  10:15:00      214.228       88.381       38.316       72.022       58.070       44.137     5187.114     3372.078     1948.089        3.284        0.525      231.743       17.815        0.006      337.111        8.862      871.047
10/04/2013  10:16:00      144.433        5.625       77.655      118.630      114.069       72.923    14073.170    13011.737     5317.833        2.966        1.620      144.542       60.293        0.174      337.363        9.285      871.040
10/04/2013  10:17:00      105.567      133.613      182.107      148.919      169.646      124.291    22176.735    28779.915    15448.149        6.427        3.320      170.285      143.912        0.714      337.077        8.806      871.035
10/04/2013  10:18:00      123.819      165.635      149.531      115.956      113.150       93.475    13445.694    12802.981     8737.495        5.005        1.749      206.800       71.682        0.120      336.963        8.614      871.041
10/04/2013  10:19:00      159.553      130.983      131.372      110.735      109.274       94.252    12262.321    11940.874     8883.404        4.647        1.654      206.431       80.934        0.154      336.837        8.404      871.058
10/04/2013  10:20:00      154.727       93.160      116.992      115.818      121.523       81.012    13413.864    14767.874     6562.909        4.052        1.737      180.608       78.264        0.188      337.234        9.068      871.068
10/04/2013  10:21:00      135.915      156.622      160.685      132.758       99.340      102.475    17624.810     9868.433    10501.035        5.340        1.900      207.373       92.008        0.197      337.044        8.750      871.067
10/04/2013  10:22:00      107.781       95.015      113.666      116.764      129.705       89.048    13633.758    16823.261     7929.526        3.597        1.919      143.682       73.984        0.265      337.231        9.063      871.066
10/04/2013  10:23:00       68.982       86.335       94.924       88.386       81.979       67.981     7812.060     6720.515     4621.424        2.018        0.958      110.509       50.040        0.205      337.521        9.550      871.075
10/04/2013  10:24:00       97.488       55.498       44.579       78.743       78.959       54.855     6200.408     6234.590     3009.115        1.500        0.772      112.178       36.030        0.103      337.602        9.685      871.066
10/04/2013  10:25:00      249.022      168.314       38.669       64.127       45.588       58.653     4112.243     2078.284     3440.164        5.073        0.482      300.568       22.061        0.005      336.962        8.610      871.045
10/04/2013  10:26:00      112.048       57.893       40.542      102.122       68.032       49.423    10428.837     4628.389     2442.600        1.752        0.875      126.120       53.204        0.178      337.338        9.243      871.013
10/04/2013  10:27:00       79.227       59.631       47.860       82.931       67.905       60.843     6877.518     4611.048     3701.847        1.365        0.760       99.160       43.298        0.191      337.760        9.950      871.003
10/04/2013  10:28:00       99.413       71.638       78.174       80.930       79.183       59.059     6549.588     6269.988     3487.952        1.871        0.815      122.536       45.936        0.141      337.438        9.412      871.010
10/04/2013  10:29:00       83.293       39.084       75.656       85.420      116.253       79.058     7296.556    13514.833     6250.131        2.062        1.353       92.007       86.741        0.889      337.557        9.611      870.993
10/04/2013  10:30:00      130.976       18.470       74.531      118.223       95.908       74.095    13976.674     9198.305     5489.999        2.585        1.433      132.272       62.851        0.226      337.601        9.683      871.004
10/04/2013  10:31:00       95.718     -115.374       15.496       79.867      118.385       59.566     6378.789    14015.039     3548.092        2.332        1.197      149.911       63.765        0.181      337.602        9.687      870.990
10/04/2013  10:32:00       17.381       85.131      153.394       53.717      131.745       71.500     2885.563    17356.762     5112.241        2.821        1.268       86.887       78.991        0.826      337.951       10.271      870.993
10/04/2013  10:33:00       59.771       66.235      130.850      100.119      102.339       75.182    10023.829    10473.338     5652.302        2.561        1.307       89.217       75.105        0.709      337.799       10.016      870.989
10/04/2013  10:34:00      100.472       97.125      114.564       75.513       86.288       64.411     5702.219     7445.672     4148.824        2.497        0.865      139.742       57.916        0.172      337.287        9.156      870.998
10/04/2013  10:35:00      -44.006      -30.297       24.185       41.729       48.235       31.768     1741.273     2326.585     1009.232        0.426        0.254       53.427       21.342        0.160      337.796       10.013      870.961
10/04/2013  10:36:00       38.563       80.861      119.767      103.990      111.082       89.750    10813.829    12339.131     8055.110        2.678        1.560       89.586       89.094        0.989      337.576        9.641      870.955
10/04/2013  10:37:00      135.697      153.043      123.450      127.782      108.852       94.658    16328.122    11848.657     8960.134        4.710        1.857      204.539       88.760        0.188      337.209        9.027      870.967
10/04/2013  10:38:00      200.936      127.268       56.927      104.339       76.293       78.395    10886.628     5820.658     6145.717        4.133        1.143      237.849       57.850        0.059      337.377        9.307      871.003
10/04/2013  10:39:00      217.655      139.758       52.744      100.470       86.420       76.832    10094.195     7468.434     5903.123        4.657        1.173      258.662       50.426        0.038      337.161        8.946      871.022
10/04/2013  10:40:00      200.549      144.721        2.942       91.206       67.920       59.876     8318.592     4613.140     3585.076        3.884        0.826      247.314       35.693        0.021      337.132        8.897      871.040
10/04/2013  10:41:00      230.908      142.394       41.292      116.632       77.987       67.269    13603.123     6081.969     4525.052        4.975        1.211      271.284       32.973        0.015      337.260        9.112      871.053
10/04/2013  10:42:00      104.594       27.450       55.757      115.412       97.129       73.599    13319.980     9434.053     5416.870        2.148        1.409      108.136       77.120        0.509      337.858       10.114      871.051
10/04/2013  10:43:00      121.429       73.429       75.702       89.113      104.319       74.749     7941.103    10882.363     5587.359        2.513        1.221      141.904       55.513        0.153      337.666        9.791      871.038
10/04/2013  10:44:00      137.179       67.868       42.751       95.147       75.637       63.829     9052.927     5720.991     4074.152        2.205        0.942      153.049       43.850        0.082      337.199        9.010      871.036
10/04/2013  10:45:00      146.707      116.593       21.499       89.674       69.708       51.664     8041.416     4859.145     2669.127        2.557        0.778      187.395       36.512        0.038      337.550        9.598      871.006
10/04/2013  10:46:00      208.419      103.851       22.264      141.289       65.941       54.309    19962.469     4348.227     2949.480        4.098        1.363      232.859        5.943        0.001      337.481        9.482      870.968
10/04/2013  10:47:00      177.962      108.761       39.974       78.127       64.277       65.588     6103.876     4131.510     4301.726        2.981        0.727      208.565       36.153        0.030      337.924       10.224      870.939
10/04/2013  10:48:00      127.288      138.404      135.119      133.054      113.262      117.115    17703.343    12828.386    13715.851        4.892        2.212      188.037      105.537        0.315      337.687        9.825      870.930
10/04/2013  10:49:00      175.050      110.034       44.345       97.741       70.935       60.723     9553.364     5031.730     3687.233        3.149        0.914      206.761       26.827        0.017      337.295        9.170      870.910
10/04/2013  10:50:00       82.440       59.043       59.334       79.617       59.184       54.786     6338.861     3502.726     3001.464        1.332        0.642      101.402       44.709        0.194      337.980       10.320      870.899
10/04/2013  10:51:00      142.468       78.075       97.165      114.812      112.694       82.644    13181.866    12700.049     6829.951        3.427        1.636      162.459       79.396        0.239      337.870       10.135      870.879
10/04/2013  10:52:00      212.668      149.802      127.137      139.858      126.846      110.447    19560.171    16089.874    12198.490        6.583        2.392      260.132      104.892        0.163      337.616        9.707      870.882
10/04/2013  10:53:00      179.965      118.968       80.147      110.757       93.278       80.737    12267.076     8700.825     6518.479        4.022        1.374      215.733       55.862        0.067      337.522        9.551      870.897
10/04/2013  10:54:00      206.741      138.592      101.697      172.383       97.220       80.141    29715.796     9451.675     6422.537        5.893        2.280      248.896       94.674        0.145      337.702        9.851      870.888
10/04/2013  10:55:00      281.306      171.654       46.308      176.187      122.670       90.717    31041.817    15047.894     8229.510        8.252        2.716      329.543      100.109        0.092      337.495        9.505      870.877
10/04/2013  10:56:00      182.656      107.168       39.648       95.005      105.417       62.226     9025.941    11112.813     3872.108        3.521        1.201      211.774       36.231        0.029      337.810       10.033      870.875
10/04/2013  10:57:00      145.419      104.492       86.038       97.207       80.084       68.221     9449.190     6413.472     4654.074        2.999        1.026      179.068       36.547        0.042      338.136       10.579      870.852
10/04/2013  10:58:00      159.259       80.788       76.650      117.767       94.080       60.738    13868.995     8851.069     3689.045        3.208        1.320      178.578       47.510        0.071      337.612        9.702      870.824
10/04/2013  10:59:00      208.486      120.834       81.821      143.749      103.112       94.702    20663.897    10632.153     8968.516        5.251        2.013      240.972       85.290        0.125      337.559        9.613      870.813
10/04/2013  11:00:00      220.501      120.499      101.028      149.307      119.518      108.776    22292.717    14284.480    11832.232        6.087        2.420      251.278       74.263        0.087      337.687        9.826      870.804
10/04/2013  11:01:00      202.213      199.616      179.400      154.577      137.611      120.645    23894.028    18936.732    14555.185        8.514        2.869      284.142      101.447        0.127      337.574        9.638      870.785
10/04/2013  11:02:00      210.998       59.120       30.865      166.705      111.664      103.324    27790.671    12468.877    10675.746        4.994        2.547      219.124       70.917        0.105      337.402        9.350      870.785
10/04/2013  11:03:00      107.981       31.393       81.851      154.636      195.292      109.026    23912.198    38138.910    11886.698        4.663        3.697      112.452      111.324        0.980      337.889       10.166      870.791
10/04/2013  11:04:00      199.207     -177.233       18.507       96.784      115.983       67.990     9367.231    13452.084     4622.614        4.943        1.372      266.637       74.399        0.078      337.625        9.722      870.799
10/04/2013  11:05:00      110.394      -34.263       39.262       94.698      158.211       80.911     8967.662    25030.787     6546.656        2.772        2.027      115.589       82.797        0.513      337.990       10.334      870.783
10/04/2013  11:06:00      123.692       91.847      133.675      114.351      140.275      104.585    13076.097    19677.111    10938.086        4.264        2.185      154.063       96.745        0.394      337.793       10.004      870.792
10/04/2013  11:07:00      123.197       34.102      111.730      100.495      179.309      101.971    10099.237    32151.568    10398.007        4.073        2.632      127.829      122.875        0.924      337.912       10.204      870.759
10/04/2013  11:08:00      131.433       14.313       91.551       92.307      116.037       88.751     8520.619    13464.541     7876.719        2.786        1.493      132.210       89.801        0.461      337.777        9.977      870.756
10/04/2013  11:09:00      248.415      176.788       67.768      176.432       91.471       83.400    31128.126     8366.961     6955.513        7.199        2.323      304.900       69.318        0.052      337.671        9.800      870.753
10/04/2013  11:10:00      368.495      207.349       44.100      134.610       96.660       79.276    18119.747     9343.097     6284.738       10.723        1.687      422.827       47.134        0.012      337.437        9.408      870.720
10/04/2013  11:11:00      217.479      136.609      120.857      143.150      125.792       96.782    20492.054    15823.527     9366.747        6.311        2.284      256.825       75.379        0.086      337.962       10.287      870.729
10/04/2013  11:12:00      100.966       -5.544       39.700      119.320      141.710       86.678    14237.314    20081.845     7513.092        2.681        2.092      101.118       87.749        0.753      338.104       10.526      870.761
10/04/2013  11:13:00      141.412      141.685       81.817       88.322       59.562       79.499     7800.779     3547.625     6320.050        3.221        0.883      200.180       49.884        0.062      338.472       11.144      870.763
10/04/2013  11:14:00      210.493      137.446       21.733      129.033       96.667       81.251    16649.590     9344.444     6601.687        4.813        1.630      251.394       47.038        0.035      337.904       10.190      870.756
10/04/2013  11:15:00      219.033      150.646       28.640      155.321      107.590      114.843    24124.509    11575.644    13188.961        6.018        2.444      265.837       65.297        0.060      337.839       10.080      870.724
10/04/2013  11:16:00      184.474       93.770       57.892      123.103       76.988       71.900    15154.379     5927.207     5169.629        3.621        1.313      206.939       72.886        0.124      338.379       10.988      870.719
10/04/2013  11:17:00      225.561      134.862       83.145      169.033      107.983      109.602    28572.251    11660.308    12012.619        6.410        2.612      262.803       90.253        0.118      338.330       10.904      870.712
10/04/2013  11:18:00      318.422      149.175       44.631      172.654      148.083       96.710    29809.320    21928.662     9352.832        9.335        3.055      351.633       57.346        0.027      337.633        9.736      870.731
10/04/2013  11:19:00      205.211      145.562      128.943      130.086       98.824       87.401    16922.245     9766.151     7638.997        5.712        1.716      251.595       61.967        0.061      337.637        9.741      870.746
10/04/2013  11:20:00      172.885       78.834       84.240       75.915       77.835       70.079     5763.068     6058.346     4911.000        2.996        0.837      190.011       49.596        0.068      337.522        9.549      870.738
10/04/2013  11:21:00      187.956      125.909       65.669      103.713       94.369       69.419    10756.358     8905.593     4819.030        3.998        1.224      226.231       37.896        0.028      337.665        9.790      870.725
10/04/2013  11:22:00      209.920      163.167      120.190      157.017      108.247      102.426    24654.341    11717.364    10491.139        6.599        2.343      265.876       93.856        0.125      338.029       10.399      870.699
10/04/2013  11:23:00      287.963      160.867       36.984      101.060       82.778       60.827    10213.034     6852.211     3699.881        6.546        1.038      329.850       29.557        0.008      337.530        9.563      870.710
10/04/2013  11:24:00      154.623       75.374       22.577       78.409       63.454       52.165     6147.990     4026.461     2721.138        2.149        0.645      172.016       36.580        0.045      337.840       10.085      870.700
10/04/2013  11:25:00      265.420      176.380       41.710      101.094       71.206       59.322    10220.051     5070.249     3519.109        6.105        0.940      318.682       37.485        0.014      337.837       10.077      870.671
10/04/2013  11:26:00      282.970      171.196      100.813      125.096      128.245      100.181    15648.938    16446.740    10036.273        8.083        2.107      330.727       79.153        0.057      338.190       10.670      870.650
10/04/2013  11:27:00      169.302      112.938      102.142      132.037       97.016       73.108    17433.683     9412.125     5344.822        4.201        1.610      203.514       66.688        0.107      338.096       10.512      870.673
10/04/2013  11:28:00      180.433       32.263      135.816      129.087      168.201      107.337    16663.368    28291.498    11521.178        5.425        2.824      183.295      114.824        0.392      338.006       10.360      870.668
10/04/2013  11:29:00      140.409        2.085       94.735      143.126      151.173      101.581    20484.943    22853.303    10318.667        4.116        2.683      140.424      113.414        0.652      337.892       10.171      870.655
10/04/2013  11:30:00       67.165      123.875      184.151      133.320      129.709       86.026    17774.149    16824.540     7400.482        4.787        2.100      140.912       94.167        0.447      338.086       10.497      870.626
10/04/2013  11:31:00       77.971     -213.243        9.493       92.737       98.447       71.015     8600.204     9691.765     5043.130        3.748        1.167      227.050       72.440        0.102      337.819       10.048      870.587
10/04/2013  11:32:00       78.861       73.328       81.884      118.497       92.818       67.978    14041.469     8615.263     4620.993        2.278        1.364      107.685       59.043        0.301      338.385       11.000      870.545
10/04/2013  11:33:00      249.264      169.559       20.685      125.413      102.202       76.670    15728.424    10445.197     5878.246        6.167        1.603      301.468       49.979        0.027      338.229       10.735      870.579
10/04/2013  11:34:00      260.137      152.993       21.568      108.375       99.990       73.921    11745.190     9997.973     5464.351        5.937        1.360      301.791       29.167        0.009      338.128       10.567      870.600
10/04/2013  11:35:00      237.986      107.664       53.817      118.187       81.525       65.424    13968.062     6646.390     4280.315        4.800        1.245      261.206       49.697        0.036      338.421       11.058      870.598
10/04/2013  11:36:00      172.451      109.160       58.201       99.960       78.533       66.340     9991.979     6167.450     4401.020        3.280        1.028      204.096       38.037        0.035      338.697       11.521      870.600
10/04/2013  11:37:00      157.984      103.073       98.308      152.901      110.506       84.329    23378.672    12211.548     7111.357        4.397        2.135      188.635       68.728        0.133      338.912       11.885      870.592
10/04/2013  11:38:00      225.731       42.990       28.906      184.594      166.823       80.319    34074.982    27829.948     6451.130        6.098        3.418      229.788       56.309        0.060      338.189       10.668      870.597
10/04/2013  11:39:00       92.358     -133.205       26.665      108.376      148.150       78.913    11745.365    21948.320     6227.184        3.344        1.996      162.091       85.462        0.278      338.296       10.848      870.581
10/04/2013  11:40:00      100.680       14.018       64.717      124.183       95.278       70.981    15421.446     9077.844     5038.234        2.202        1.477      101.651       70.544        0.482      338.573       11.315      870.577
10/04/2013  11:41:00      157.305     -127.528       41.453      136.112      112.316       78.908    18526.404    12614.976     6226.413        4.004        1.868      202.505       70.698        0.122      338.380       10.990      870.579
10/04/2013  11:42:00      242.496      202.761      106.213      168.135      117.980       96.000    28269.447    13919.174     9215.922        8.129        2.570      316.096       67.232        0.045      338.343       10.929      870.594
10/04/2013  11:43:00      197.873      136.957       65.899      123.001       89.789       78.318    15129.270     8062.001     6133.762        4.578        1.466      240.647       53.399        0.049      338.371       10.974      870.572
10/04/2013  11:44:00      161.034       99.708       71.831      164.796       91.219       86.474    27157.829     8320.896     7477.728        4.199        2.148      189.403       89.819        0.225      338.393       11.012      870.553
10/04/2013  11:45:00      103.926      121.460       88.284      103.208       64.191       65.763    10651.980     4120.537     4324.743        2.622        0.955      159.854       58.534        0.134      338.390       11.009      870.527
10/04/2013  11:46:00      178.661      133.092       88.130      175.536      124.359       99.559    30812.855    15465.044     9911.937        5.678        2.809      222.785       81.376        0.133      338.462       11.129      870.489
10/04/2013  11:47:00      276.989      154.990      128.596      174.815      167.993      141.374    30560.198    28221.672    19986.589        9.801        3.938      317.403      111.556        0.124      338.140       10.586      870.451
10/04/2013  11:48:00      215.086      163.022      167.524      158.899      146.492      135.979    25248.877    21459.849    18490.364        8.304        3.260      269.885      126.590        0.220      338.338       10.919      870.446
10/04/2013  11:49:00      151.595      127.915      135.417      146.738      142.894      114.450    21532.135    20418.646    13098.727        5.635        2.752      198.351       91.644        0.213      338.678       11.488      870.414
10/04/2013  11:50:00      160.337      116.892      142.911      118.347      103.130       92.136    14005.945    10635.778     8489.074        4.646        1.657      198.423       83.128        0.176      338.825       11.736      870.434
10/04/2013  11:51:00      127.805       17.594      105.488      159.282      156.812      107.874    25370.821    24590.061    11636.862        4.467        3.080      129.010      113.249        0.771      338.623       11.398      870.451
10/04/2013  11:52:00      130.757      114.000      156.983      132.663      147.208       99.278    17599.542    21670.332     9856.140        5.192        2.456      173.475       79.243        0.209      338.446       11.102      870.455
10/04/2013  11:53:00      121.232       66.074      106.944       98.750      128.130       66.992     9751.571    16417.268     4487.982        3.057        1.533      138.069       62.067        0.202      338.438       11.087      870.469
10/04/2013  11:54:00      148.169      140.172      113.789      125.853       92.033       97.723    15838.991     8470.046     9549.798        4.420        1.693      203.966       79.074        0.150      338.443       11.096      870.464
10/04/2013  11:55:00      233.850      149.437      108.447      122.672      105.068       96.686    15048.416    11039.237     9348.210        6.210        1.772      277.520       65.771        0.056      338.342       10.925      870.465
10/04/2013  11:56:00      121.702      103.435       72.325       98.517       75.129       64.962     9705.662     5644.438     4220.046        2.515        0.979      159.719       60.152        0.142      338.470       11.142      870.436
10/04/2013  11:57:00      199.816       95.743       29.770       91.128       85.150       58.139     8304.317     7250.512     3380.114        3.445        0.947      221.570       27.594        0.016      338.439       11.088      870.399
10/04/2013  11:58:00       62.036      -26.484       48.274      103.384      142.755       85.215    10688.228    20378.931     7261.576        2.260        1.916       67.453       98.930        2.151      338.576       11.320      870.392
10/04/2013  11:59:00      153.232       20.821       44.161      136.465      110.234       65.915    18622.808    12151.614     4344.815        3.048        1.756      154.640       51.526        0.111      338.705       11.538      870.368
10/04/2013  12:00:00      121.850      104.128      126.629      143.463      121.240       75.864    20581.629    14699.185     5755.351        4.137        2.052      160.281       63.727        0.158      338.832       11.751      870.344
10/04/2013  12:01:00      254.998      165.081      133.789      177.618      140.731      103.434    31548.211    19805.261    10698.684        8.610        3.103      303.769       94.759        0.097      338.618       11.388      870.321
10/04/2013  12:02:00      243.767      120.505      108.913      132.114       95.459       86.390    17454.102     9112.486     7463.183        5.991        1.701      271.926       67.848        0.062      338.348       10.934      870.337
10/04/2013  12:03:00      123.840       62.173       84.761      123.594      123.272       63.387    15275.359    15195.921     4017.959        3.043        1.724      138.571       42.562        0.094      338.840       11.763      870.358
10/04/2013  12:04:00      106.097      -21.475       98.383      161.425      217.191      139.098    26057.997    47171.730    19348.377        5.697        4.629      108.248      168.594        2.426      338.711       11.546      870.349
10/04/2013  12:05:00      235.707     -198.943        8.668      120.229      160.405       93.166    14454.907    25729.864     8679.924        7.203        2.443      308.441       70.944        0.053      338.646       11.437      870.328
10/04/2013  12:06:00      150.294       43.252      108.542      109.026      150.317       87.071    11886.593    22595.236     7581.370        3.914        2.103      156.393       89.949        0.331      338.533       11.248      870.379
10/04/2013  12:07:00      185.987       76.094       41.789      123.463       85.168       86.722    15243.117     7253.538     7520.789        3.607        1.501      200.952       56.288        0.078      338.231       10.740      870.359
10/04/2013  12:08:00      219.979      124.519      102.489      124.105      116.149       83.354    15402.115    13490.700     6947.872        5.511        1.792      252.776       72.610        0.083      338.523       11.229      870.366
10/04/2013  12:09:00      144.221       -2.155      119.426      148.257      149.470       93.072    21980.163    22341.392     8662.379        4.401        2.649      144.237       99.805        0.479      338.824       11.736      870.365
10/04/2013  12:10:00      226.155      152.415       72.019      123.959       92.846       94.552    15365.803     8620.342     8940.032        5.624        1.646      272.720       63.121        0.054      338.727       11.572      870.396
10/04/2013  12:11:00      346.728      162.748       58.730      124.718      107.010       95.051    15554.656    11451.075     9034.705        9.309        1.802      383.024       36.518        0.009      338.489       11.172      870.411
10/04/2013  12:12:00      225.693      108.507       44.201      124.090      119.074       58.088    15398.267    14178.533     3374.187        4.880        1.648      250.422       21.640        0.007      338.470       11.141      870.420
10/04/2013  12:13:00      102.882       67.387      101.761       94.390      100.285       73.210     8909.533    10057.075     5359.746        2.490        1.216      122.987       70.385        0.328      338.484       11.165      870.402
10/04/2013  12:14:00      166.878      116.721       77.081       97.003       94.210       91.484     9409.562     8875.481     8369.242        3.703        1.333      203.647       71.665        0.124      338.374       10.979      870.383
10/04/2013  12:15:00      245.329      168.420       33.674      132.082       93.754       63.003    17445.646     8789.850     3969.365        5.994        1.510      297.577       39.951        0.018      338.434       11.080      870.376
10/04/2013  12:16:00      223.907       97.577       41.620      116.467       85.191       70.306    13564.602     7257.531     4942.961        4.357        1.288      244.245       59.260        0.059      338.377       10.985      870.367
10/04/2013  12:17:00      188.876      103.148       24.608       84.553       75.585       63.196     7149.247     5713.108     3993.734        3.188        0.843      215.206       39.727        0.034      338.588       11.338      870.372
10/04/2013  12:18:00      279.462      155.338       16.429      106.778       85.368       73.045    11401.524     7287.688     5335.506        6.326        1.201      319.732       41.611        0.017      338.364       10.962      870.338
10/04/2013  12:19:00      201.112      137.739      164.265      160.402      123.182       96.696    25728.846    15173.878     9350.154        6.832        2.513      243.759       80.920        0.110      338.627       11.404      870.300
10/04/2013  12:20:00      326.526      192.247       65.821      119.799      103.903       93.565    14351.720    10795.771     8754.415        9.090        1.695      378.917       71.511        0.036      338.713       11.549      870.296
10/04/2013  12:21:00      243.376      119.245       39.841      136.353       92.625       78.538    18592.042     8579.392     6168.264        5.418        1.667      271.019       62.278        0.053      338.803       11.702      870.318
10/04/2013  12:22:00      176.579      125.962       76.365       86.796       91.019       70.605     7533.624     8284.526     4985.082        3.684        1.040      216.902       47.634        0.048      338.971       11.983      870.331
10/04/2013  12:23:00      140.892       98.558       41.603      127.972      102.579       70.616    16376.954    10522.476     4986.659        3.158        1.594      171.943       60.096        0.122      339.193       12.358      870.323
10/04/2013  12:24:00      285.656      206.933       29.478      108.659       87.329       79.480    11806.696     7626.268     6317.032        7.551        1.287      352.733       50.875        0.021      338.719       11.557      870.312
10/04/2013  12:25:00      189.190      117.889       90.485      121.589       87.439       79.371    14783.860     7645.632     6299.794        4.330        1.436      222.914       45.522        0.042      339.076       12.158      870.302
10/04/2013  12:26:00      315.490      184.329       37.253      179.544      134.466       92.001    32235.963    18081.033     8464.123        9.683        2.939      365.392       54.007        0.022      338.848       11.777      870.289
10/04/2013  12:27:00      241.702      149.015       26.592      122.442       89.503       70.336    14991.927     8010.791     4947.092        5.464        1.397      283.946       36.637        0.017      338.597       11.353      870.281
10/04/2013  12:28:00      260.658      175.356       63.542      116.525       86.807       67.508    13578.030     7535.440     4557.368        6.420        1.284      314.154       31.743        0.010      338.534       11.249      870.263
10/04/2013  12:29:00      168.086      117.105       23.954       91.616       67.791       54.944     8393.550     4595.575     3018.874        2.927        0.800      204.858       33.431        0.027      338.523       11.230      870.257
10/04/2013  12:30:00      216.880      111.402       35.922       79.446       63.693       55.428     6311.600     4056.772     3072.242        3.709        0.672      243.819       34.475        0.020      338.613       11.382      870.248
10/04/2013  12:31:00      259.788      159.457       29.408      131.833      104.527       89.779    17379.859    10925.798     8060.352        6.507        1.818      304.822       60.719        0.040      338.640       11.426      870.263
10/04/2013  12:32:00      281.179      219.130       21.578      127.391       91.672      101.284    16228.398     8403.802    10258.547        8.121        1.745      356.482       67.711        0.036      338.421       11.057      870.257
10/04/2013  12:33:00      219.483      141.137       21.866      136.331       95.993       87.446    18586.055     9214.703     7646.772        5.200        1.772      260.945       49.224        0.036      338.674       11.484      870.236
10/04/2013  12:34:00      267.417      163.758       54.022      164.301      120.315       94.467    26994.841    14475.689     8924.082        7.581        2.520      313.574       55.601        0.031      338.724       11.569      870.239
10/04/2013  12:35:00      155.231      125.262       17.649      100.423       81.511       63.883    10084.723     6644.007     4081.043        3.045        1.040      199.468       38.409        0.037      338.637       11.422      870.244
10/04/2013  12:36:00      176.843      120.429        9.773       84.401       69.430       53.862     7123.506     4820.585     2901.136        3.036        0.742      213.955       28.207        0.017      338.883       11.833      870.216
10/04/2013  12:37:00      174.793       74.258       89.522      125.235      118.698       80.168    15683.752    14089.297     6426.844        4.013        1.810      189.912       70.784        0.139      339.155       12.292      870.228
10/04/2013  12:38:00      301.603      159.148      106.470      180.330      133.193      107.684    32519.083    17740.277    11595.819        9.473        3.093      341.016       90.782        0.071      338.851       11.782      870.210
10/04/2013  12:39:00      273.248      138.568       74.020      126.983      120.148       95.137    16124.801    14435.551     9050.974        6.947        1.981      306.375       64.359        0.044      338.698       11.523      870.239
10/04/2013  12:40:00      333.463      161.880       89.266      146.914      120.500      100.168    21583.776    14520.137    10033.610        9.575        2.307      370.679       70.832        0.037      338.749       11.609      870.247
10/04/2013  12:41:00      279.445      134.301       21.111      144.231      106.408       63.822    20802.503    11322.765     4073.214        6.638        1.810      310.042       36.025        0.014      338.629       11.408      870.260
10/04/2013  12:42:00      285.939      203.023       39.307      158.847       88.964       86.429    25232.410     7914.550     7469.890        8.256        2.031      350.684       65.808        0.035      338.581       11.327      870.241
10/04/2013  12:43:00      154.312       73.192       53.785      146.521      107.975       82.670    21468.290    11658.550     6834.342        3.600        1.998      170.790       66.926        0.154      339.049       12.114      870.218
10/04/2013  12:44:00      151.483      121.775      130.917      135.034      114.563       97.060    18234.200    13124.610     9420.738        4.784        2.039      194.361       72.055        0.137      339.212       12.389      870.217
10/04/2013  12:45:00      170.740      139.829       90.389      159.579       88.955       93.261    25465.536     7912.975     8697.567        4.947        2.104      220.690       88.771        0.162      339.110       12.217      870.222
10/04/2013  12:46:00       96.056       73.276       59.085       87.687       61.382       60.192     7689.008     3767.764     3623.106        1.658        0.754      120.814       49.168        0.166      339.276       12.498      870.213
10/04/2013  12:47:00      132.522      107.053       59.223       71.092       49.700       50.760     5054.111     2470.055     2576.622        2.131        0.505      170.360       33.934        0.040      338.894       11.854      870.180
10/04/2013  12:48:00       66.511       10.796       37.997       78.805       85.767       39.518     6210.266     7355.986     1561.654        1.055        0.756       67.382       39.336        0.341      339.233       12.425      870.142
10/04/2013  12:49:00      101.799       48.799       48.401       89.234      117.297       61.863     7962.660    13758.680     3827.079        2.031        1.277      112.891       61.639        0.298      339.354       12.629      870.097
10/04/2013  12:50:00       32.944       99.309      105.772       75.722       71.765       51.282     5733.819     5150.274     2629.894        1.782        0.676      104.631       52.984        0.256      339.421       12.742      870.103
10/04/2013  12:51:00      263.730      180.904       46.780      110.801       95.475      101.526    12276.824     9115.545    10307.466        6.808        1.585      319.812       52.704        0.027      339.061       12.132      870.115
10/04/2013  12:52:00      289.274      177.571       41.514      123.690       84.846       93.820    15299.326     7198.767     8802.263        7.411        1.565      339.428       75.561        0.050      338.815       11.720      870.082
10/04/2013  12:53:00      238.328      125.318       48.056      114.650      104.258       70.746    13144.609    10869.781     5004.985        5.191        1.451      269.267       42.022        0.024      339.004       12.039      870.080
10/04/2013  12:54:00      227.324      163.402       79.425       90.794       81.924       66.896     8243.634     6711.581     4475.112        5.205        0.972      279.958       44.056        0.025      339.155       12.293      870.075
10/04/2013  12:55:00      194.622      128.301       78.435      133.855      101.406       99.931    17917.041    10283.271     9986.152        4.933        1.909      233.107       88.485        0.144      339.199       12.366      870.069
10/04/2013  12:56:00      123.416      149.619      129.164      100.880      104.986       98.237    10176.707    11022.088     9650.551        4.257        1.542      193.952       69.935        0.130      338.907       11.874      870.112
10/04/2013  12:57:00      187.658      109.761       47.866      125.769       68.663       64.544    15817.896     4714.558     4165.891        3.712        1.235      217.401       30.208        0.019      338.786       11.671      870.114
10/04/2013  12:58:00      165.576       60.997        2.460       58.669       52.218       34.753     3442.091     2726.703     1207.795        1.926        0.369      176.454       16.392        0.009      338.702       11.532      870.116
10/04/2013  12:59:00       70.563        5.042       61.874       74.236       65.245       61.328     5510.952     4256.973     3761.132        1.118        0.676       70.743       43.183        0.373      339.267       12.483      870.096
10/04/2013  13:00:00      235.408      142.599      157.186      162.669      121.951      123.570    26461.223    14872.066    15269.525        7.852        2.830      275.230      101.431        0.136      339.048       12.112      870.074
10/04/2013  13:01:00      210.318      184.590      208.195      159.151      184.515      146.713    25328.921    34045.760    21524.577       10.126        4.045      279.834      157.949        0.319      338.978       11.995      870.037
10/04/2013  13:02:00      207.344      150.968      146.029      139.461      138.659      115.599    19449.462    19226.357    13363.096        6.956        2.602      256.482       93.529        0.133      339.053       12.120      870.055
10/04/2013  13:03:00      121.019      112.389      118.320      124.727       94.280       71.682    15556.755     8888.675     5138.367        3.542        1.479      165.158       53.858        0.106      339.351       12.623      870.063
10/04/2013  13:04:00      203.601      -18.347        6.557      130.045      169.452       85.819    16911.805    28713.967     7364.967        4.740        2.650      204.426       71.720        0.123      339.177       12.328      870.042
10/04/2013  13:05:00      128.669       89.714       87.581       99.152       77.263       71.884     9831.102     5969.498     5167.345        2.662        1.048      156.858       58.963        0.141      339.283       12.510      870.022
10/04/2013  13:06:00       26.454      -51.162       39.721       79.467      129.461       82.828     6315.042    16760.062     6860.560        1.741        1.497       57.597       90.886        2.490      339.523       12.915      870.010
10/04/2013  13:07:00      127.675      -37.649       73.978      101.023      210.841      114.655    10205.554    44453.942    13145.853        4.548        3.390      133.110      139.112        1.092      339.379       12.670      869.977
10/04/2013  13:08:00      147.608       91.474       82.670      115.135      107.586       66.752    13256.075    11574.650     4455.829        3.313        1.464      173.654       47.535        0.075      339.484       12.848      869.973
10/04/2013  13:09:00      382.483      205.074       56.463      149.407      111.969       99.182    22322.434    12537.028     9837.130       11.811        2.235      433.992       66.552        0.024      339.157       12.295      869.993
10/04/2013  13:10:00      304.597      182.155       69.277      133.738       80.624       81.187    17885.729     6500.207     6591.292        8.086        1.549      354.908       73.673        0.043      339.082       12.169      869.990
10/04/2013  13:11:00      188.227      129.156      119.489      132.283      100.282       73.433    17498.720    10056.404     5392.477        4.966        1.647      228.278       80.199        0.123      339.208       12.381      869.981
10/04/2013  13:12:00      124.410      121.910       66.420      146.035       92.998       75.782    21326.300     8648.599     5742.866        3.523        1.786      174.184       49.634        0.081      339.491       12.859      869.976
10/04/2013  13:13:00      325.950      157.996       53.936      193.431      136.385       90.014    37415.713    18600.770     8102.582        9.910        3.206      362.224       53.342        0.022      339.100       12.200      870.001
10/04/2013  13:14:00      140.086       82.837       22.715       85.592       68.330       48.665     7326.021     4668.938     2368.252        2.068        0.718      162.745       37.717        0.054      338.945       11.939      870.035
10/04/2013  13:15:00      129.832       69.044       19.496       77.093       71.806       47.527     5943.319     5156.133     2258.779        1.768        0.668      147.049       33.235        0.051      339.381       12.674      870.018
10/04/2013  13:16:00      150.217      110.286       55.876      119.763      126.792       91.055    14343.222    16076.316     8291.104        3.827        1.936      186.355       77.435        0.173      339.389       12.686      869.984
10/04/2013  13:17:00      331.524      207.864       57.989      106.210       90.582       98.480    11280.520     8205.173     9698.310        9.283        1.459      391.300       57.519        0.022      339.126       12.243      869.970
10/04/2013  13:18:00      215.195      119.620       98.291      129.371      109.803      105.726    16736.729    12056.679    11177.889        5.512        1.999      246.207       98.270        0.159      339.303       12.540      869.970
10/04/2013  13:19:00      135.948       91.553       57.192       70.671       71.329       68.913     4994.322     5087.896     4749.066        2.248        0.742      163.902       50.753        0.096      339.180       12.335      869.980
10/04/2013  13:20:00      282.021      175.077       66.911      138.590      112.993       84.243    19207.302    12767.432     7096.871        7.686        1.954      331.946       23.016        0.005      339.160       12.302      869.912
10/04/2013  13:21:00      249.886      193.242      138.215      202.139      144.026      116.071    40860.049    20743.536    13472.570        9.697        3.754      315.889      115.410        0.133      339.456       12.798      869.886
10/04/2013  13:22:00      195.632      151.421      113.706      121.084      107.444       95.760    14661.444    11544.210     9170.043        5.475        1.769      247.387       71.169        0.083      339.019       12.064      869.931
10/04/2013  13:23:00      129.639      -47.072       38.498       90.553      100.318       51.857     8199.920    10063.774     2689.128        2.072        1.048      137.921       58.438        0.180      338.933       11.920      869.914
10/04/2013  13:24:00       83.762       20.763       85.717       70.847      127.159       69.389     5019.359    16169.429     4814.877        2.039        1.300       86.297       79.930        0.858      339.351       12.625      869.863
10/04/2013  13:25:00      178.710      123.443       76.007      118.829      104.101       85.269    14120.401    10837.079     7270.806        4.258        1.611      217.199       71.393        0.108      339.469       12.820      869.867
10/04/2013  13:26:00      172.969      101.280       44.972      116.399       82.582       87.325    13548.816     6819.764     7625.654        3.509        1.400      200.439       60.166        0.090      339.298       12.532      869.862
10/04/2013  13:27:00      212.112      167.381       35.603      104.369       66.170       57.164    10892.798     4378.424     3267.670        4.640        0.927      270.200       28.763        0.011      339.092       12.184      869.851
10/04/2013  13:28:00      195.651      134.924       31.667      110.127       86.445       65.752    12128.038     7472.737     4323.314        4.070        1.196      237.663       55.608        0.055      339.160       12.300      869.827
10/04/2013  13:29:00      243.057      166.007       50.220      139.155      103.257       96.064    19364.079    10661.931     9228.306        6.420        1.963      294.338       77.193        0.069      339.605       13.050      869.798
10/04/2013  13:30:00      205.916       70.391       61.300      126.309      102.590       88.812    15953.838    10524.797     7887.593        4.273        1.718      217.615       55.552        0.065      339.804       13.386      869.769
10/04/2013  13:31:00      249.460      168.836       52.780      164.384      121.068      102.635    27022.206    14657.507    10533.850        7.286        2.611      301.223       84.608        0.079      339.818       13.409      869.790
10/04/2013  13:32:00      124.233      114.044      103.936      107.684       83.122       87.029    11595.792     6909.280     7574.028        3.266        1.304      168.642       47.217        0.078      339.254       12.459      869.833
10/04/2013  13:33:00       40.309       14.903       52.439       44.961       61.982       40.745     2021.464     3841.745     1660.164        0.606        0.376       42.976       36.332        0.715      339.295       12.528      869.799
10/04/2013  13:34:00      243.695      150.220      115.216      206.699      134.767      129.052    42724.285    18162.092    16654.522        8.637        3.877      286.275      126.552        0.195      339.303       12.541      869.772
10/04/2013  13:35:00      195.895       59.163      131.749      153.502      115.852       92.780    23562.971    13421.703     8608.075        5.240        2.280      204.634       94.168        0.212      339.330       12.587      869.788
10/04/2013  13:36:00      226.700      127.784      182.584      182.009      268.832      146.309    33127.309    72270.827    21406.244       11.391        6.340      260.234      155.141        0.355      339.322       12.573      869.733
10/04/2013  13:37:00      242.814       -0.904       87.312      139.002      162.070       95.153    19321.502    26266.842     9054.071        6.060        2.732      242.816       96.724        0.159      339.308       12.550      869.797
10/04/2013  13:38:00      153.082      -51.572       51.301      104.029      165.935       97.528    10821.941    27534.300     9511.705        3.829        2.393      161.535      116.919        0.524      339.272       12.490      869.784
10/04/2013  13:39:00      126.829       30.523       64.268       75.807      157.425       69.928     5746.769    24782.703     4889.907        2.828        1.771      130.450       75.718        0.337      339.328       12.583      869.791
10/04/2013  13:40:00      231.808      147.402        6.488      130.859       86.451       66.623    17124.002     7473.772     4438.689        5.226        1.452      274.704       53.053        0.037      339.359       12.635      869.818
10/04/2013  13:41:00      175.728      129.425       25.085      105.270       85.590       76.952    11081.791     7325.730     5921.652        3.629        1.216      218.246       47.449        0.047      339.496       12.867      869.790
10/04/2013  13:42:00      216.170      147.030       27.736      106.547       87.841       77.240    11352.320     7716.057     5965.953        4.707        1.252      261.433       56.548        0.047      339.175       12.326      869.791
10/04/2013  13:43:00      182.504      116.363       24.226      156.425       98.795       83.716    24468.778     9760.448     7008.359        4.433        2.062      216.444       53.848        0.062      339.291       12.520      869.758
10/04/2013  13:44:00      258.197      124.713       85.494      127.476      110.622       99.077    16250.161    12237.246     9816.275        6.391        1.915      286.739       81.208        0.080      339.612       13.061      869.743
10/04/2013  13:45:00      224.735      114.256       59.422      156.940      117.756       97.391    24630.052    13866.490     9485.069        5.753        2.399      252.111       75.610        0.090      339.684       13.185      869.751
10/04/2013  13:46:00      200.448       86.844       30.791      155.003      111.771       91.303    24025.841    12492.768     8336.256        4.675        2.243      218.453       50.462        0.053      339.469       12.822      869.737
10/04/2013  13:47:00      192.209       94.813       44.880      111.597       98.711       67.107    12453.954     9743.770     4503.396        3.732        1.335      214.321       39.348        0.034      339.690       13.194      869.734
10/04/2013  13:48:00       68.720       47.745       45.687       81.411       94.632       72.212     6627.826     8955.252     5214.638        1.494        1.040       83.678       55.634        0.442      339.672       13.164      869.732
10/04/2013  13:49:00      115.810       86.951       19.661       95.031       73.867       46.857     9030.908     5456.304     2195.539        1.902        0.834      144.819       27.154        0.035      339.736       13.273      869.737
10/04/2013  13:50:00       64.311       15.326       19.435       79.810       63.456       36.449     6369.715     4026.626     1328.554        0.823        0.586       66.112       27.293        0.170      340.003       13.723      869.731
10/04/2013  13:51:00      181.862      115.703       28.015      166.685      109.792       88.497    27783.830    12054.384     7831.712        4.745        2.383      215.548       39.380        0.033      339.787       13.358      869.714
10/04/2013  13:52:00      318.910      207.362      117.661      192.576      170.066      118.703    37085.706    28922.476    14090.321       11.931        4.005      380.398      114.260        0.090      339.639       13.105      869.695
10/04/2013  13:53:00      267.389      176.749      146.173      119.475      108.572       97.408    14274.289    11787.890     9488.337        7.982        1.778      320.527       74.653        0.054      339.438       12.765      869.722
10/04/2013  13:54:00      163.911      150.305      107.928      126.382       84.352       90.928    15972.423     7115.326     8267.848        4.622        1.568      222.392       76.616        0.119      339.556       12.967      869.711
10/04/2013  13:55:00      259.713      174.253      114.711      154.281      134.856      114.082    23802.660    18186.113    13014.747        8.298        2.750      312.754       98.225        0.099      339.502       12.875      869.688
10/04/2013  13:56:00      292.163      158.766       84.236      204.808      124.186       99.806    41946.198    15422.154     9961.335        9.248        3.366      332.515       70.363        0.045      339.541       12.943      869.708
10/04/2013  13:57:00      225.238      137.830       51.256      155.907      109.694       81.411    24307.148    12032.870     6627.687        5.765        2.148      264.063       54.942        0.043      339.514       12.897      869.729
10/04/2013  13:58:00      314.822      210.938       22.407      145.823      125.074       89.937    21264.380    15643.518     8088.704        9.454        2.250      378.956       44.944        0.014      339.203       12.374      869.698
10/04/2013  13:59:00      263.034      210.105       21.537      177.733      124.675      102.027    31588.912    15543.808    10409.601        8.566        2.877      336.646       73.488        0.048      339.327       12.581      869.683
10/04/2013  14:00:00      260.480      221.307       32.129      152.260      116.376       93.557    23183.114    13543.296     8753.005        8.166        2.274      341.799       73.881        0.047      339.332       12.589      869.657
10/04/2013  14:01:00      327.434      245.298       36.282      174.438      120.869       90.608    30428.744    14609.388     8209.750       11.096        2.662      409.126       56.886        0.019      339.280       12.502      869.653
10/04/2013  14:02:00      281.826      181.555       39.139       99.649      102.177       65.933     9930.020    10440.162     4347.158        6.931        1.236      335.243       45.194        0.018      339.464       12.812      869.661
10/04/2013  14:03:00      314.669      154.962       67.388      133.962      130.465       87.577    17945.859    17021.107     7669.753        8.510        2.132      350.756       37.998        0.012      339.672       13.163      869.696
10/04/2013  14:04:00      349.076      170.236       54.642      172.041      138.013       99.206    29597.995    19047.634     9841.815       10.614        2.924      388.374       73.196        0.036      339.377       12.667      869.711
10/04/2013  14:05:00      242.855      168.270       40.158      166.612      100.011       66.841    27759.617    10002.155     4467.737        6.556        2.111      295.455       41.579        0.020      339.324       12.577      869.688
10/04/2013  14:06:00      162.063      136.436       11.683      108.187       81.174       71.737    11704.355     6589.227     5146.201        3.422        1.172      211.847       47.917        0.051      339.531       12.925      869.677
10/04/2013  14:07:00      181.562      124.561       68.241      112.520       84.726       71.657    12660.777     7178.566     5134.741        3.905        1.249      220.182       48.276        0.048      339.665       13.151      869.683
10/04/2013  14:08:00      134.529      136.214       57.135      139.117      118.976       98.800    19353.631    14155.218     9761.405        4.158        2.164      191.448       47.797        0.062      339.845       13.455      869.672
10/04/2013  14:09:00      150.796       92.406       66.798      145.177       84.254       61.544    21076.288     7098.683     3787.716        3.385        1.598      176.857       68.677        0.151      340.082       13.854      869.676
10/04/2013  14:10:00      214.929      114.422       39.843      120.025       83.697       74.124    14405.888     7005.243     5494.375        4.388        1.345      243.488       52.538        0.047      340.024       13.756      869.702
10/04/2013  14:11:00      164.610       85.428       27.564      146.540       91.679       78.851    21473.994     8405.121     6217.440        3.562        1.805      185.457       59.553        0.103      339.883       13.518      869.696
10/04/2013  14:12:00       82.788       52.826       55.889       92.995       77.228       57.006     8648.047     5964.162     3249.701        1.531        0.893       98.206       51.769        0.278      340.176       14.016      869.671
10/04/2013  14:13:00      283.855      206.154       47.637      196.172      119.720       77.796    38483.293    14332.785     6052.176        9.209        2.943      350.818       29.288        0.007      339.804       13.386      869.658
10/04/2013  14:14:00      325.632      254.098       40.146      233.005      152.139      115.001    54291.451    23146.203    13225.123       13.142        4.533      413.040       75.545        0.033      339.370       12.654      869.608
10/04/2013  14:15:00      358.949      184.186       20.121      159.563      124.017       87.877    25460.472    15380.176     7722.392       10.586        2.428      403.446       48.187        0.014      339.468       12.820      869.594
10/04/2013  14:16:00      234.029      148.093       69.454      135.188      110.680      100.096    18275.773    12250.079    10019.214        6.103        2.027      276.950       61.160        0.049      339.432       12.758      869.613
10/04/2013  14:17:00      204.907      149.023       32.550      121.018       91.153       85.247    14645.258     8308.828     7267.008        4.773        1.511      253.367       50.923        0.040      339.600       13.041      869.603
10/04/2013  14:18:00      240.412      164.820       48.411      146.153      108.392      100.236    21360.626    11748.885    10047.261        6.522        2.158      291.485       58.062        0.040      339.823       13.416      869.628
10/04/2013  14:19:00      197.930       80.175       47.806      151.774      132.603       77.045    23035.403    17583.464     5935.930        4.721        2.328      213.551       62.862        0.087      339.777       13.341      869.656
10/04/2013  14:20:00      155.200      153.735      134.836      148.394       89.776       80.889    22020.804     8059.678     6543.076        5.126        1.831      218.452       54.505        0.062      339.887       13.524      869.647
10/04/2013  14:21:00      284.689       99.468      111.952      198.304      137.904       96.009    39324.447    19017.646     9217.678        8.550        3.378      301.565       92.113        0.093      339.624       13.081      869.657
10/04/2013  14:22:00      152.065      123.773      121.450      128.362       93.581       74.880    16476.751     8757.382     5607.074        4.201        1.542      196.070       79.307        0.164      339.742       13.280      869.690
10/04/2013  14:23:00      174.276      111.469       81.948      150.169      106.982       54.801    22550.600    11445.075     3003.116        4.325        1.850      206.876       49.766        0.058      339.853       13.470      869.690
10/04/2013  14:24:00      208.905      155.203       70.658      185.620      125.840       89.777    34454.845    15835.827     8059.860        6.552        2.918      260.248       67.471        0.067      339.914       13.571      869.686
10/04/2013  14:25:00      265.503      146.085       81.640      112.346       93.196       75.310    12621.697     8685.500     5671.664        6.273        1.349      303.039       47.121        0.024      339.707       13.221      869.675
10/04/2013  14:26:00      103.314      -38.594       46.728       86.048      115.422       71.652     7404.301    13322.139     5134.041        2.010        1.293      110.288       85.341        0.599      339.482       12.843      869.612
10/04/2013  14:27:00      180.080       81.923       81.266      154.925      118.788       86.406    24001.622    14110.506     7465.915        4.565        2.279      197.839       69.925        0.125      339.719       13.245      869.579
10/04/2013  14:28:00      310.667      188.882       77.503      193.650      120.723      113.872    37500.472    14574.045    12966.838       10.161        3.252      363.580       77.899        0.046      339.484       12.845      869.553
10/04/2013  14:29:00      189.908      117.421       96.136       97.484      105.165       86.369     9503.157    11059.755     7459.558        4.355        1.401      223.277       60.828        0.074      339.462       12.808      869.575
10/04/2013  14:30:00      260.779       83.467       89.386      149.518      122.937      105.662    22355.508    15113.509    11164.541        6.579        2.432      273.811       82.339        0.090      339.554       12.964      869.518
10/04/2013  14:31:00      337.530      246.257       44.739      159.425      116.228      113.308    25416.251    13508.969    12838.654       11.416        2.588      417.814       71.455        0.029      339.572       12.995      869.523
10/04/2013  14:32:00      431.295      229.246       62.045      147.651      117.463       90.486    21800.810    13797.628     8187.739       14.309        2.189      488.435       50.095        0.011      339.508       12.885      869.533
10/04/2013  14:33:00      130.155      113.806      130.800      147.108      122.909       96.293    21640.751    15106.552     9272.436        4.650        2.301      172.893       82.155        0.226      339.669       13.160      869.504
10/04/2013  14:34:00      376.327      209.930       58.579      182.093      132.995      106.791    33157.742    17687.597    11404.328       12.567        3.112      430.921       75.808        0.031      339.671       13.161      869.522
10/04/2013  14:35:00      283.774      119.579       25.287      145.902      130.826       90.510    21287.486    17115.471     8192.057        7.102        2.330      307.940       68.209        0.049      339.452       12.792      869.563
10/04/2013  14:36:00      233.304       73.580       26.497      111.465      101.182       67.592    12424.554    10237.851     4568.683        4.388        1.362      244.632       41.985        0.029      339.622       13.079      869.571
10/04/2013  14:37:00      272.723      180.875       62.404      145.636      115.515       98.040    21209.842    13343.793     9611.856        7.757        2.208      327.252       54.863        0.028      339.796       13.373      869.571
10/04/2013  14:38:00      201.830      102.984       89.475      149.295      123.166       96.222    22288.934    15169.764     9258.605        5.302        2.336      226.586       82.683        0.133      339.976       13.675      869.580
10/04/2013  14:39:00      148.557       88.388      142.997      131.408      133.218       80.788    17268.023    17747.025     6526.628        4.593        2.077      172.863       88.492        0.262      339.849       13.462      869.549
10/04/2013  14:40:00      161.324      107.461       40.624      151.067       98.778       69.426    22821.231     9757.056     4819.970        3.830        1.870      193.838       20.860        0.012      340.130       13.936      869.558
10/04/2013  14:41:00      144.884       99.749       63.864       83.431       65.993       65.329     6960.809     4355.038     4267.942        2.530        0.779      175.901       53.865        0.094      340.269       14.172      869.565
10/04/2013  14:42:00       79.684       57.277      100.972      111.812       66.815       60.889    12501.838     4464.290     3707.431        2.025        1.034       98.134       56.794        0.335      340.044       13.793      869.559
10/04/2013  14:43:00      277.660      187.757       71.241      158.656      119.233      103.675    25171.634    14216.519    10748.606        8.377        2.507      335.183       56.513        0.028      339.925       13.589      869.561
10/04/2013  14:44:00      361.925      179.342       75.238      206.496      186.164      107.344    42640.679    34656.893    11522.636       12.880        4.441      403.922       76.137        0.036      339.903       13.551      869.561
10/04/2013  14:45:00      156.665      182.288      142.640      163.834      121.308      119.327    26841.584    14715.660    14238.965        6.695        2.790      240.360       89.215        0.138      339.908       13.560      869.585
10/04/2013  14:46:00      178.144      162.478      111.461      141.552       89.011       77.617    20036.983     7922.932     6024.420        5.226        1.699      241.111       79.143        0.108      340.100       13.885      869.602
10/04/2013  14:47:00      325.631      185.023       50.357      163.867      113.229       84.418    26852.388    12820.860     7126.411        9.479        2.340      374.525       31.546        0.007      339.717       13.239      869.636
10/04/2013  14:48:00      146.449       36.402       43.878      145.893      117.698       81.320    21284.725    13852.863     6612.982        3.322        2.088      150.905       52.122        0.119      339.659       13.142      869.608
10/04/2013  14:49:00      141.666      -12.270       56.329       89.369      102.996       62.360     7986.792    10608.171     3888.778        2.293        1.124      142.197       49.976        0.124      339.843       13.453      869.575
10/04/2013  14:50:00      142.762       71.940       28.611       79.940       59.404       49.304     6390.368     3528.873     2430.880        1.936        0.618      159.864       26.419        0.027      339.876       13.507      869.576
10/04/2013  14:51:00      169.459      102.710       30.509       76.980       61.783       53.585     5925.856     3817.163     2871.397        2.640        0.631      198.156       35.456        0.032      339.801       13.380      869.575
10/04/2013  14:52:00       64.625       73.189       65.591       85.551       90.736       73.165     7319.010     8233.024     5353.177        1.737        1.045       97.637       65.112        0.445      339.946       13.627      869.560
10/04/2013  14:53:00      288.554      215.288      116.265      144.514      114.040       95.610    20884.318    13005.088     9141.302        9.307        2.152      360.017       73.258        0.041      339.917       13.577      869.541
10/04/2013  14:54:00       86.263       50.960       51.345       88.875       80.965       73.703     7898.780     6555.409     5432.064        1.628        0.994      100.191       58.609        0.342      340.276       14.184      869.560
10/04/2013  14:55:00      176.522      102.510       24.251      128.005      109.305       72.593    16385.399    11947.669     5269.726        3.792        1.680      204.128       20.801        0.010      340.356       14.319      869.590
10/04/2013  14:56:00      278.711      138.003       76.774      139.289      112.261       94.844    19401.377    12602.489     8995.304        7.180        2.050      311.006       71.463        0.053      339.928       13.593      869.602
10/04/2013  14:57:00      289.436      153.295       43.656      150.159      129.253       90.449    22547.690    16706.397     8181.009        7.830        2.372      327.525       60.747        0.034      339.833       13.434      869.604
10/04/2013  14:58:00      331.494      225.357       64.266      149.113      131.928      104.400    22234.629    17404.925    10899.449       10.766        2.527      400.842       71.653        0.032      339.650       13.125      869.620
10/04/2013  14:59:00      270.991      191.669       66.396      160.305      112.022      102.079    25697.833    12549.027    10420.187        8.161        2.433      331.924       67.554        0.041      339.669       13.155      869.585
10/04/2013  15:00:00      345.139      212.866       73.640      128.843       97.428      101.112    16600.586     9492.180    10223.607       10.308        1.816      405.503       65.101        0.026      339.937       13.609      869.601
10/04/2013  15:01:00      104.925       41.402       77.444      119.987      100.414       62.926    14396.988    10082.964     3959.739        2.357        1.422      112.797       43.393        0.148      339.791       13.364      869.591
10/04/2013  15:02:00      193.697      133.657       94.468      178.190      109.993      102.106    31751.578    12098.477    10425.730        5.928        2.714      235.335       91.353        0.151      339.866       13.489      869.567
10/04/2013  15:03:00      262.955      152.822       45.724      128.448      121.678       89.976    16498.778    14805.609     8095.733        6.699        1.970      304.138       52.620        0.030      339.833       13.433      869.580
10/04/2013  15:04:00      202.353       64.991       26.065      119.543       95.419       83.260    14290.476     9104.747     6932.164        3.808        1.516      212.534       41.153        0.037      339.928       13.594      869.584
10/04/2013  15:05:00      243.796      145.433       56.213      173.254      146.170       86.561    30017.041    21365.616     7492.829        7.130        2.944      283.879       46.546        0.027      340.014       13.739      869.627
10/04/2013  15:06:00      170.224      130.654      112.184      155.330      107.277      121.701    24127.394    11508.277    14811.057        5.453        2.522      214.585      104.044        0.235      339.820       13.412      869.636
10/04/2013  15:07:00      218.205      115.830       95.887      188.569      115.417      109.771    35558.157    13321.102    12049.565        6.556        3.046      247.043       92.683        0.141      339.860       13.481      869.655
10/04/2013  15:08:00      257.492      138.469       88.142      169.537      107.058       93.840    28742.851    11461.342     8805.919        7.112        2.451      292.362       93.976        0.103      339.775       13.336      869.660
10/04/2013  15:09:00      187.610      105.367      114.462      144.472      120.564       97.946    20872.073    14535.575     9593.452        5.219        2.250      215.174       86.792        0.163      339.876       13.508      869.657
10/04/2013  15:10:00      342.488      188.952      172.128      192.761      160.898      152.194    37156.879    25888.265    23163.117       13.440        4.310      391.153      128.369        0.108      339.681       13.179      869.640
10/04/2013  15:11:00      420.088      166.301       86.047      226.323      180.412      158.165    51222.051    32548.640    25016.012       16.014        5.439      451.807      127.465        0.080      339.707       13.221      869.635
10/04/2013  15:12:00      184.714      157.391      114.317      146.688      121.343      110.467    21517.414    14724.226    12203.054        6.019        2.422      242.675       70.050        0.083      339.704       13.216      869.681
10/04/2013  15:13:00      127.020       73.065       99.400      142.690      114.344       87.432    20360.507    13074.488     7644.275        3.621        2.054      146.536       78.078        0.284      339.977       13.678      869.696
10/04/2013  15:14:00      216.823      161.257      133.096      199.335      122.555      128.006    39734.373    15019.634    16385.580        8.092        3.557      270.215      121.723        0.203      339.771       13.328      869.692
10/04/2013  15:15:00      273.249      141.677       63.362      171.862      160.123       99.129    29536.475    25639.241     9826.588        8.186        3.250      307.794       77.688        0.064      339.711       13.229      869.683
10/04/2013  15:16:00      198.719       96.232       90.898      178.107      112.638      109.220    31722.023    12687.365    11929.034        5.666        2.817      220.793       95.057        0.185      339.852       13.466      869.659
10/04/2013  15:17:00      296.612      149.101       78.563      178.539      141.039      117.678    31876.211    19892.106    13848.121        9.099        3.281      331.979       90.713        0.075      339.864       13.485      869.658
10/04/2013  15:18:00      216.649      163.188       45.870      164.005      123.081       74.262    26897.614    15148.976     5514.916        6.161        2.378      271.233       47.687        0.031      339.922       13.585      869.662
10/04/2013  15:19:00      238.472      134.945       27.026      123.822       98.984       77.574    15331.883     9797.898     6017.726        5.347        1.557      274.005       41.357        0.023      339.882       13.516      869.651
10/04/2013  15:20:00      175.476      151.500      105.841      133.451      114.210      116.466    17809.233    13044.013    13564.242        5.467        2.221      231.828      102.219        0.194      340.193       14.041      869.668
10/04/2013  15:21:00      253.986      144.269       98.175      184.523      141.726      136.138    34048.702    20086.342    18533.557        8.380        3.633      292.100      102.853        0.124      340.037       13.777      869.663
10/04/2013  15:22:00      493.790      277.008       59.864      170.559      138.371      116.377    29090.276    19146.407    13543.717       19.295        3.089      566.182       76.472        0.018      339.559       12.971      869.662
10/04/2013  15:23:00      297.702      196.101       49.738      203.813      133.832       78.157    41539.552    17911.014     6108.506        9.754        3.278      356.486       35.920        0.010      339.671       13.162      869.674
10/04/2013  15:24:00      213.312      124.854       37.869      150.074       99.283       68.002    22522.317     9857.050     4624.218        4.976        1.850      247.165       34.223        0.019      339.827       13.424      869.675
10/04/2013  15:25:00      233.367      122.698       23.954      138.776      110.801       86.656    19258.709    12276.811     7509.233        5.456        1.952      263.657       62.628        0.056      339.740       13.278      869.627
10/04/2013  15:26:00      185.029      131.511       79.265      112.954       73.743       68.694    12758.565     5438.093     4718.844        4.036        1.146      227.004       59.843        0.069      340.016       13.742      869.622
10/04/2013  15:27:00      195.319      114.786       50.062      129.737      111.750      101.746    16831.636    12487.954    10352.184        4.674        1.984      226.551       53.288        0.055      340.148       13.967      869.597
10/04/2013  15:28:00      234.063      138.807       84.327      101.505       96.706       94.591    10303.320     9352.017     8947.394        5.488        1.430      272.127       58.854        0.047      339.688       13.189      869.567
10/04/2013  15:29:00      150.443      106.675       62.066      119.932       79.736       80.075    14383.689     6357.835     6412.079        3.250        1.358      184.425       40.355        0.048      339.883       13.518      869.548
10/04/2013  15:30:00      208.015      235.427       -0.750      227.627      151.142      113.706    51813.850    22843.940    12929.069        9.312        4.379      314.159       95.269        0.092      339.766       13.321      869.527
10/04/2013  15:31:00      196.964      173.727       13.317      131.625      116.719       95.412    17325.163    13623.280     9103.526        5.459        2.003      262.632       73.017        0.077      339.786       13.356      869.525
10/04/2013  15:32:00      238.581      138.715       39.798      154.521      106.606       84.194    23876.620    11364.837     7088.636        6.003        2.117      275.976       67.035        0.059      339.900       13.548      869.522
10/04/2013  15:33:00      255.542      171.457       65.653      154.663       92.883       82.972    23920.641     8627.246     6884.399        6.921        1.972      307.732       86.434        0.079      339.906       13.558      869.526
10/04/2013  15:34:00      277.247      203.205       29.491      143.006       89.709       87.084    20450.701     8047.794     7583.649        7.755        1.804      343.742       70.951        0.043      339.930       13.598      869.552
10/04/2013  15:35:00      263.163      141.064       56.766      165.286      118.069      100.101    27319.560    13940.202    10020.251        7.182        2.564      298.587       67.698        0.051      339.964       13.654      869.562
10/04/2013  15:36:00      317.470      193.683       39.142      190.644      153.895       94.826    36345.058    23683.610     8992.058       10.441        3.451      371.887       90.515        0.059      339.921       13.582      869.571
10/04/2013  15:37:00      169.619       50.450       77.404      131.103      117.929       92.831    17187.878    13907.147     8617.652        3.850        1.986      176.962       75.874        0.184      339.939       13.613      869.591
10/04/2013  15:38:00      210.305       81.236       81.148      177.454      119.101       93.579    31489.964    14185.156     8756.964        5.591        2.722      225.450       78.075        0.120      339.836       13.439      869.575
10/04/2013  15:39:00      140.636       65.807      126.535      116.243      175.875       94.699    13512.326    30931.906     8967.838        4.676        2.671      155.271       91.390        0.346      339.951       13.634      869.548
10/04/2013  15:40:00      249.589      100.364      105.939      179.435      145.082      104.010    32197.013    21048.835    10818.092        7.381        3.203      269.012       68.912        0.066      339.845       13.455      869.560
10/04/2013  15:41:00      262.653      178.842      102.270      153.603      107.575      113.285    23593.799    11572.283    12833.501        7.971        2.400      317.760       88.682        0.078      339.784       13.351      869.534
10/04/2013  15:42:00      136.116      119.807      113.991      137.008      100.948       85.342    18771.060    10190.546     7283.240        4.105        1.812      181.332       62.136        0.117      340.059       13.816      869.547
10/04/2013  15:43:00      219.496      169.643       92.949      131.235      101.580       84.558    17222.597    10318.521     7150.056        6.014        1.735      277.411       57.961        0.044      339.900       13.547      869.564
10/04/2013  15:44:00      207.327       99.179       86.424      152.364      101.019       94.757    23214.769    10204.820     8978.879        5.134        2.120      229.828       87.247        0.144      339.726       13.255      869.558
10/04/2013  15:45:00      244.386      107.877       50.879      146.238      121.550       89.826    21385.606    14774.522     8068.652        5.908        2.211      267.136       64.194        0.058      339.698       13.207      869.572
10/04/2013  15:46:00      232.294       97.178       31.725      160.616      106.251       84.362    25797.471    11289.284     7116.921        5.430        2.210      251.801       59.623        0.056      339.910       13.565      869.589
10/04/2013  15:47:00      170.413       99.045      124.258      142.385      120.077       96.282    20273.484    14418.586     9270.257        4.912        2.198      197.105       84.191        0.182      340.163       13.992      869.566
10/04/2013  15:48:00      117.913      119.775      119.788      127.752      119.438       83.138    16320.526    14265.469     6912.010        4.004        1.875      168.076       79.935        0.226      340.003       13.722      869.557
10/04/2013  15:49:00      138.362      110.659      131.008      123.505      144.932       83.170    15253.496    21005.209     6917.254        4.586        2.159      177.170       70.502        0.158      339.979       13.680      869.558
10/04/2013  15:50:00      203.134       96.384       50.170      124.656       92.556       69.239    15539.102     8566.596     4794.100        4.098        1.445      224.840       64.175        0.081      339.966       13.659      869.550
10/04/2013  15:51:00      138.333       80.023      122.968      141.939      126.493       92.261    20146.790    16000.395     8512.094        4.265        2.233      159.812       95.153        0.355      339.955       13.641      869.518
10/04/2013  15:52:00      264.343      146.973       42.676      142.441       81.769       79.363    20289.372     6686.246     6298.415        6.328        1.664      302.454       46.287        0.023      340.003       13.720      869.530
10/04/2013  15:53:00      200.139       97.848       24.537      132.048      109.329       67.348    17436.557    11952.890     4535.711        4.207        1.696      222.777       53.243        0.057      339.991       13.702      869.513
10/04/2013  15:54:00      299.835      197.156       25.723      166.911      137.936       92.687    27859.318    19026.331     8590.960        9.244        2.774      358.847       51.374        0.020      339.883       13.519      869.512
10/04/2013  15:55:00      380.552      245.207       45.655      160.251      131.270       92.417    25680.388    17231.860     8540.891       12.923        2.573      452.710       46.191        0.010      339.844       13.452      869.502
10/04/2013  15:56:00      280.652      148.673       26.512      116.908       87.672       78.253    13667.403     7686.458     6123.479        6.452        1.374      317.599       48.631        0.023      339.881       13.516      869.493
10/04/2013  15:57:00      289.460      214.069        0.060      189.854      129.510      112.722    36044.448    16772.759    12706.276        9.756        3.276      360.018       66.015        0.034      339.770       13.328      869.492
10/04/2013  15:58:00      303.108      189.725       51.608      124.227      108.213       87.303    15432.358    11710.149     7621.737        8.264        1.738      357.589       42.475        0.014      339.832       13.432      869.486
10/04/2013  15:59:00      218.147      165.867       32.216      159.562       98.131       95.736    25460.113     9629.757     9165.476        6.019        2.213      274.044       44.349        0.026      339.905       13.555      869.466
10/04/2013  16:00:00      294.631      199.249       40.548      183.690      107.578       83.825    33742.088    11573.031     7026.658        9.024        2.617      355.679       55.661        0.024      339.881       13.516      869.458
10/04/2013  16:01:00      297.824      212.567       33.023      173.618      123.662      117.283    30143.105    15292.388    13755.304        9.707        2.960      365.901       80.512        0.048      339.842       13.449      869.433
10/04/2013  16:02:00      332.530      229.030       46.288      214.820      149.704      108.431    46147.739    22411.356    11757.315       12.273        4.016      403.771       53.367        0.017      339.902       13.551      869.433
10/04/2013  16:03:00      427.596      252.527       77.606      211.806      192.061      139.575    44861.906    36887.372    19481.194       17.691        5.062      496.597      100.160        0.041      339.765       13.319      869.408
10/04/2013  16:04:00      363.863      225.872       42.448      211.355      149.414      105.102    44671.005    22324.644    11046.510       13.161        3.902      428.269       67.495        0.025      339.737       13.271      869.435
10/04/2013  16:05:00      356.109      238.161       21.719      190.945      150.596      108.051    36459.954    22679.061    11675.039       12.740        3.541      428.409       42.706        0.010      339.823       13.416      869.434
10/04/2013  16:06:00      301.558      215.659       51.984      139.393      119.462       93.930    19430.495    14271.158     8822.789        9.133        2.126      370.736       84.120        0.051      339.824       13.418      869.448
10/04/2013  16:07:00      348.742      178.269       34.225      158.550      111.061       84.687    25138.122    12334.583     7171.895        9.960        2.232      391.664       22.989        0.003      339.663       13.147      869.429
10/04/2013  16:08:00      189.212       77.931       50.953      153.594       99.237       71.703    23591.129     9847.914     5141.256        4.152        1.929      204.633       38.883        0.036      339.871       13.498      869.420
10/04/2013  16:09:00      342.988      242.714       10.171      175.286      116.453       98.776    30725.019    13561.187     9756.739       11.534        2.702      420.180       52.038        0.015      339.878       13.509      869.406
10/04/2013  16:10:00      387.745      261.859       56.048      177.681      131.433      122.474    31570.397    17274.635    14999.804       14.294        3.192      467.885       84.010        0.032      339.732       13.264      869.397
10/04/2013  16:11:00      303.482      223.518       41.123      133.881       96.627       79.899    17924.114     9336.804     6383.845        8.869        1.682      376.910       47.390        0.016      339.688       13.190      869.410
10/04/2013  16:12:00      468.030      267.241       48.260      132.362      140.488       86.361    17519.595    19736.990     7458.140       16.875        2.236      538.953       46.785        0.008      339.840       13.444      869.390
10/04/2013  16:13:00      293.626      232.342       82.446      187.555      133.955      111.266    35176.752    17943.840    12380.227       10.624        3.275      374.431       69.725        0.035      339.896       13.541      869.375
10/04/2013  16:14:00      395.777      235.012       57.051      189.514      131.326      116.305    35915.647    17246.430    13526.936       14.089        3.334      460.293       87.459        0.036      339.857       13.475      869.376
10/04/2013  16:15:00      360.559      227.862       79.398      206.884      129.930      103.169    42801.138    16881.744    10643.934       12.926        3.516      426.526       96.572        0.051      339.996       13.708      869.361
10/04/2013  16:16:00      243.866      151.541      154.503      179.200      160.460      121.218    32112.558    25747.275    14693.880        8.942        3.628      287.115      122.110        0.181      339.987       13.693      869.366
10/04/2013  16:17:00      265.841      174.080      137.097      126.424      111.084      106.758    15982.916    12339.681    11397.210        7.974        1.986      317.766       75.769        0.057      339.959       13.646      869.390
10/04/2013  16:18:00      254.031      106.621       68.107      151.337      168.249       95.298    22903.028    28307.601     9081.779        7.040        3.015      275.499       42.817        0.024      340.047       13.796      869.415
10/04/2013  16:19:00      236.525      149.901       90.991      163.797      102.035       86.396    26829.520    10411.199     7464.251        6.569        2.235      280.026       51.235        0.033      339.980       13.680      869.419
10/04/2013  16:20:00      170.886       86.152       85.886      100.692       86.427       66.687    10138.823     7469.657     4447.188        3.302        1.103      191.374       53.307        0.078      339.924       13.588      869.440
10/04/2013  16:21:00      138.692       90.097       16.770       98.127       60.221       54.919     9628.993     3626.556     3016.122        2.195        0.814      165.387       27.774        0.028      340.047       13.794      869.424
10/04/2013  16:22:00      152.611       95.539       13.657       96.970       74.914       60.635     9403.124     5612.087     3676.634        2.564        0.935      180.049       47.291        0.069      340.264       14.161      869.451
10/04/2013  16:23:00      227.071       98.164       57.318      156.781       93.948       88.251    24580.235     8826.253     7788.292        5.283        2.060      247.381       45.332        0.034      340.127       13.931      869.453
10/04/2013  16:24:00      328.228      161.453       62.251      162.065      124.245      101.684    26265.077    15436.711    10339.565        9.485        2.602      365.787       66.323        0.033      339.904       13.553      869.460
10/04/2013  16:25:00      384.925      246.135       30.467      115.771      121.680       99.949    13402.857    14806.059     9989.706       12.393        1.910      456.891       36.993        0.007      339.807       13.390      869.496
10/04/2013  16:26:00      337.697      138.876       74.752      147.622      124.308       97.357    21792.362    15452.526     9478.448        9.281        2.336      365.138       68.907        0.036      339.918       13.577      869.495
10/04/2013  16:27:00      217.402      127.980      108.618      159.614      108.072      102.374    25476.720    11679.567    10480.494        6.153        2.382      252.275       93.336        0.137      339.945       13.622      869.503
10/04/2013  16:28:00      253.251      132.094       54.353      170.042      127.458       83.646    28914.208    16245.539     6996.662        6.834        2.608      285.631       76.448        0.072      339.943       13.620      869.551
10/04/2013  16:29:00      292.031      123.109       29.333      135.865      108.997       82.486    18459.353    11880.283     6803.915        6.921        1.857      316.919       37.891        0.014      339.910       13.563      869.561
10/04/2013  16:30:00      225.179       78.644       62.470      136.997      100.317       79.981    18768.079    10063.407     6396.993        4.800        1.761      238.517       67.497        0.080      339.999       13.715      869.563
10/04/2013  16:31:00      292.048      127.803       72.118      204.141      119.842       96.265    41673.512    14362.156     9266.898        8.605        3.265      318.788       97.041        0.093      339.931       13.599      869.547
10/04/2013  16:32:00      315.361      202.871       48.330      126.986       97.209       97.328    16125.408     9449.662     9472.722        8.899        1.752      374.979       73.812        0.039      339.881       13.514      869.557
10/04/2013  16:33:00      202.682       91.200       42.291       90.062      104.009       77.253     8111.239    10817.905     5968.091        3.804        1.245      222.255       59.271        0.071      339.998       13.713      869.567
10/04/2013  16:34:00      206.101      105.199       32.910      126.141      127.572       80.473    15911.657    16274.604     6475.854        4.664        1.933      231.397       61.504        0.071      339.983       13.686      869.551
10/04/2013  16:35:00      164.416      135.075       49.892      104.790       90.924       75.572    10980.928     8267.198     5711.053        3.636        1.248      212.786       45.499        0.046      340.076       13.843      869.557
10/04/2013  16:36:00      290.887      154.957       65.183      231.595      134.793       99.354    53636.295    18169.203     9871.152        9.726        4.084      329.586       58.690        0.032      340.012       13.736      869.553
10/04/2013  16:37:00      242.824      168.917       23.974      176.925      119.377       90.266    31302.546    14250.908     8147.963        7.088        2.685      295.798       49.689        0.028      339.799       13.378      869.561
10/04/2013  16:38:00      374.273      228.162       45.094      156.679      152.761       98.644    24548.426    23335.857     9730.724       12.588        2.881      438.335       28.955        0.004      339.775       13.336      869.590
10/04/2013  16:39:00      392.484      233.252       58.622      227.565      149.854      120.819    51785.627    22456.323    14597.244       15.035        4.442      456.564       59.439        0.017      339.684       13.183      869.573
10/04/2013  16:40:00      325.118      190.475       60.032      187.775      159.131      107.454    35259.288    25322.766    11546.310       10.884        3.606      376.806       59.811        0.025      339.713       13.232      869.584
10/04/2013  16:41:00      240.228      152.838       47.636      186.427      122.028       73.580    34754.908    14890.818     5413.950        6.919        2.753      284.726       44.063        0.024      339.911       13.564      869.612
10/04/2013  16:42:00      358.802      204.797       56.945      174.206      127.231       98.475    30347.830    16187.763     9697.308       11.507        2.812      413.136       50.550        0.015      339.809       13.392      869.619
10/04/2013  16:43:00      319.707      148.947       87.325      213.188      139.409      125.032    45449.002    19434.933    15633.053       10.625        4.026      352.701      101.706        0.083      339.743       13.282      869.614
10/04/2013  16:44:00      333.327      193.006       80.999      163.969      111.983       99.952    26885.984    12540.271     9990.333       10.216        2.471      385.173       78.999        0.042      339.843       13.452      869.634
10/04/2013  16:45:00      278.485      170.339       94.132      124.088      115.672      104.425    15397.729    13379.930    10904.537        7.755        1.984      326.449       59.410        0.033      339.855       13.471      869.655
10/04/2013  16:46:00      365.843      177.556       66.010      174.427      133.329       98.755    30424.797    17776.511     9752.477       11.383        2.898      406.654       74.186        0.033      339.785       13.353      869.662
10/04/2013  16:47:00      232.056      132.758       71.848      108.285       72.945       74.735    11725.634     5320.949     5585.259        4.963        1.132      267.347       41.195        0.024      339.936       13.607      869.698
10/04/2013  16:48:00      344.246      224.443       38.389      137.039      115.078       85.194    18779.680    13242.928     7258.053       10.481        1.964      410.951       64.110        0.024      339.850       13.463      869.715
10/04/2013  16:49:00      426.326      298.383       74.194      114.236       93.471       80.107    13049.920     8736.780     6417.129       15.224        1.410      520.371       54.843        0.011      339.630       13.093      869.718
10/04/2013  16:50:00      231.004      143.419       10.338      148.735      116.653       70.834    22122.232    13607.858     5017.471        5.739        2.037      271.905       43.930        0.026      339.874       13.505      869.732
10/04/2013  16:51:00      232.990      234.877      -12.104      177.521      111.547       86.680    31513.799    12442.741     7513.454        8.052        2.573      330.834       50.723        0.024      339.839       13.443      869.740
10/04/2013  16:52:00      332.935      226.564       31.506      100.298       88.593       73.626    10059.660     7848.723     5420.812        9.324        1.166      402.712       40.523        0.010      339.927       13.591      869.745
10/04/2013  16:53:00      327.925      179.393       34.462      139.711      125.658       73.025    19519.080    15789.892     5332.580        9.076        2.032      373.787       40.331        0.012      339.952       13.633      869.741
10/04/2013  16:54:00      258.366      161.792       62.558      125.263       97.999       94.185    15690.774     9603.871     8870.802        6.550        1.708      304.844       73.198        0.058      339.967       13.659      869.724
10/04/2013  16:55:00      344.803      211.917       42.289      172.154      138.339       88.034    29637.145    19137.584     7749.906       11.104        2.826      404.720       49.930        0.015      339.920       13.581      869.712
10/04/2013  16:56:00      265.566      194.093       39.706      203.733      147.974      129.945    41507.238    21896.216    16885.832        9.502        4.014      328.934       81.479        0.061      339.805       13.387      869.677
10/04/2013  16:57:00      250.344      190.970       33.421      158.415      122.257      111.711    25095.257    14946.853    12479.273        7.638        2.626      314.867       73.375        0.054      339.830       13.428      869.700
10/04/2013  16:58:00      246.457      162.641       17.798      142.569      119.618       97.882    20325.846    14308.470     9580.919        6.585        2.211      295.285       73.214        0.061      339.834       13.435      869.716
10/04/2013  16:59:00      280.107      179.793       35.174      144.845      107.643       87.742    20979.996    11586.957     7698.736        7.614        2.013      332.844       45.263        0.018      339.784       13.352      869.724
10/04/2013  17:00:00      380.010      223.459       33.175      144.384      102.301       72.777    20846.822    10465.471     5296.451       11.602        1.830      440.842       69.350        0.025      339.855       13.471      869.729
10/04/2013  17:01:00      197.466      129.214       37.757      107.890       84.142       67.468    11640.224     7079.884     4551.896        4.019        1.164      235.985       28.553        0.015      340.010       13.732      869.748
10/04/2013  17:02:00      232.228      191.601      115.502      200.390      116.369      103.552    40156.015    13541.672    10723.011        8.419        3.221      301.066       81.702        0.074      339.934       13.603      869.756
10/04/2013  17:03:00      387.008      248.402       45.173      144.925      135.460       98.026    21003.224    18349.545     9609.037       13.123        2.448      459.868       54.921        0.014      339.715       13.235      869.741
10/04/2013  17:04:00      237.322      131.190       70.637      111.828      108.450       79.000    12505.499    11761.350     6240.974        5.451        1.525      271.169       40.782        0.023      339.880       13.514      869.762
10/04/2013  17:05:00      281.956      199.674       31.992      140.144      107.900       94.276    19640.238    11642.372     8887.966        8.027        2.009      345.498       54.939        0.025      339.822       13.414      869.772
10/04/2013  17:06:00      134.164      120.359       -3.349      112.998       84.232       74.819    12768.524     7095.057     5597.868        2.897        1.273      180.239       42.808        0.056      339.874       13.505      869.770
10/04/2013  17:07:00      312.739      194.180       38.558      142.891       98.887       76.067    20417.811     9778.665     5786.201        8.648        1.799      368.120       46.049        0.016      339.683       13.183      869.757
10/04/2013  17:08:00      104.164       81.834       99.051      139.076       93.445       83.291    19342.127     8731.911     6937.421        3.118        1.751      132.465       71.611        0.292      339.751       13.298      869.748
10/04/2013  17:09:00      172.136       91.771       47.546      165.637      102.137       78.820    27435.552    10432.003     6212.593        4.219        2.204      195.071       60.919        0.098      339.818       13.411      869.763
10/04/2013  17:10:00      178.958      126.029       45.342      182.896      114.496       96.872    33451.048    13109.342     9384.206        5.294        2.797      218.882       53.815        0.060      339.794       13.369      869.775
10/04/2013  17:11:00      371.883      249.191       59.499      133.623      109.480       85.066    17854.977    11985.943     7236.245       12.050        1.854      447.653       42.958        0.009      339.691       13.195      869.789
10/04/2013  17:12:00      210.731      143.287       23.927      159.141      104.167       75.878    25325.733    10850.839     5757.445        5.371        2.097      254.831       47.682        0.035      339.711       13.229      869.767
10/04/2013  17:13:00      176.322      223.698       14.471      178.870      148.603       83.134    31994.642    22082.910     6911.301        7.115        3.049      284.834       73.625        0.067      339.689       13.192      869.744
10/04/2013  17:14:00      241.204      146.591       31.914      185.061      142.815       96.188    34247.395    20396.001     9252.078        7.228        3.195      282.255       32.352        0.013      339.759       13.310      869.734
10/04/2013  17:15:00      163.043       71.861       42.264       90.062       76.975       60.799     8111.178     5925.082     3696.506        2.563        0.887      178.177       42.304        0.056      339.889       13.531      869.770
10/04/2013  17:16:00      171.499       86.040      119.223      126.318      131.930       97.778    15956.244    17405.579     9560.631        4.697        2.146      191.872       80.511        0.176      339.781       13.348      869.756
10/04/2013  17:17:00      277.208      156.084       76.450      148.258      111.553       91.395    21980.401    12444.017     8353.048        7.491        2.139      318.129       66.056        0.043      339.752       13.299      869.762
10/04/2013  17:18:00      137.625      131.330      103.691      102.863       98.386       71.259    10580.856     9679.835     5077.884        3.613        1.267      190.232       57.625        0.092      339.838       13.442      869.740
10/04/2013  17:19:00      194.734      104.878       58.074       99.458       82.012       61.218     9891.933     6725.903     3747.647        3.633        1.018      221.181       49.650        0.050      339.804       13.386      869.728
10/04/2013  17:20:00      172.410      108.383       29.118      106.985       90.283       67.670    11445.890     8151.098     4579.187        3.324        1.209      203.647       43.043        0.045      339.808       13.392      869.720
10/04/2013  17:21:00      210.535      179.291       82.707      181.239      102.639       61.573    32847.519    10534.757     3791.187        6.523        2.359      276.533       60.091        0.047      339.789       13.361      869.716
10/04/2013  17:22:00      222.683      123.357       42.274       99.137       81.017       66.001     9828.078     6563.805     4356.147        4.367        1.037      254.567       49.885        0.038      339.808       13.392      869.743
10/04/2013  17:23:00      239.295      158.658       52.735      100.544       77.445       68.994    10109.106     5997.702     4760.180        5.304        1.043      287.114       25.707        0.008      339.913       13.567      869.760
10/04/2013  17:24:00      226.048      136.762       43.078      119.911      106.018       70.057    14378.590    11239.841     4907.998        5.109        1.526      264.200       46.249        0.031      339.798       13.375      869.754
10/04/2013  17:25:00      237.226      125.709       37.942      125.353       83.630       62.148    15713.366     6993.924     3862.366        5.004        1.328      268.475       56.162        0.044      339.813       13.401      869.768
10/04/2013  17:26:00      141.917      102.466       24.340       96.481       65.280       60.826     9308.551     4261.426     3699.808        2.425        0.863      175.041       56.513        0.104      339.873       13.502      869.782
10/04/2013  17:27:00      204.637      136.628       57.122      144.300      107.519       99.716    20822.435    11560.379     9943.370        5.306        2.116      246.056       81.057        0.109      339.812       13.400      869.785
10/04/2013  17:28:00      125.556      102.219       69.602      102.790       86.587       86.356    10565.869     7497.239     7457.428        2.828        1.276      161.905       60.893        0.141      339.731       13.264      869.786
10/04/2013  17:29:00      245.455      180.543       15.553      160.314      115.779       93.231    25700.519    13404.823     8692.007        7.043        2.390      304.703       50.615        0.028      339.758       13.309      869.779
10/04/2013  17:30:00      199.840      121.395       54.170       97.682       79.462       68.833     9541.733     6314.137     4737.980        3.910        1.030      233.822       46.867        0.040      339.819       13.411      869.773
10/04/2013  17:31:00      151.513       38.885       29.315       86.479       58.819       49.360     7478.613     3459.709     2436.424        1.935        0.669      156.423       29.058        0.035      339.877       13.509      869.773
10/04/2013  17:32:00       91.563       61.510       47.484       89.595       89.193       76.524     8027.186     7955.389     5855.979        1.813        1.092      110.305       62.971        0.326      339.899       13.546      869.764
10/04/2013  17:33:00      189.699      121.897       80.828      163.779      103.401      101.758    26823.529    10691.786    10354.743        5.261        2.394      225.487       88.077        0.153      339.788       13.359      869.749
10/04/2013  17:34:00      141.052      143.392       84.853      156.970      104.269       77.607    24639.561    10871.941     6022.854        4.459        2.077      201.139       73.205        0.132      339.816       13.405      869.742
10/04/2013  17:35:00      207.894       93.134       37.289      114.841      105.907       79.780    13188.459    11216.365     6364.773        4.202        1.538      227.802       35.011        0.024      339.846       13.456      869.743
10/04/2013  17:36:00      254.387      147.173       18.575       98.212       83.983       68.278     9645.558     7053.152     4661.937        5.403        1.068      293.892       55.538        0.036      339.782       13.348      869.753
10/04/2013  17:37:00      121.470       71.244       48.892       64.968       58.179       51.149     4220.864     3384.777     2616.232        1.622        0.511      140.821       34.978        0.062      339.855       13.474      869.761
10/04/2013  17:38:00      155.462       99.591       18.202       77.519       66.113       55.861     6009.240     4370.864     3120.455        2.396        0.675      184.626       36.861        0.040      339.840       13.447      869.749
10/04/2013  17:39:00      222.989      151.245       19.303      132.296      110.026       75.692    17502.212    12105.810     5729.236        5.415        1.767      269.442       65.920        0.060      339.796       13.372      869.746
10/04/2013  17:40:00      187.875      119.400       45.315      150.157      105.200       70.654    22547.225    11066.970     4992.032        4.510        1.930      222.606       50.165        0.051      339.783       13.351      869.745
10/04/2013  17:41:00      201.490      103.689       60.145      121.328       90.946       69.591    14720.534     8271.194     4842.916        4.140        1.392      226.605       25.540        0.013      339.755       13.303      869.738
10/04/2013  17:42:00      246.437       78.925       44.866      174.788      128.704       99.143    30550.953    16564.621     9829.399        6.295        2.847      258.767       81.552        0.099      339.691       13.196      869.715
10/04/2013  17:43:00      258.612      177.890       37.843      133.200      112.297       86.681    17742.163    12610.553     7513.632        6.890        1.893      313.887       56.734        0.033      339.666       13.154      869.720
10/04/2013  17:44:00      340.349      221.346       46.861      157.224       93.362       94.522    24719.431     8716.417     8934.490       10.469        2.119      405.994       59.317        0.021      339.632       13.093      869.706
10/04/2013  17:45:00      185.501       98.850       46.045      133.051       92.975       64.807    17702.633     8644.323     4199.953        3.842        1.527      210.195       50.387        0.057      339.644       13.117      869.687
10/04/2013  17:46:00      208.780      153.247       71.832      163.578      113.021       92.124    26757.878    12773.760     8486.874        6.012        2.401      258.986       65.806        0.065      339.605       13.050      869.702
10/04/2013  17:47:00      354.833      196.541       99.167      196.870      151.191      106.444    38757.727    22858.761    11330.360       12.364        3.647      405.629       95.897        0.056      339.556       12.968      869.679
10/04/2013  17:48:00      247.618      158.205       63.796      112.663       80.883       71.254    12692.874     6542.012     5077.158        5.736        1.216      293.842       57.146        0.038      339.576       13.001      869.686
10/04/2013  17:49:00      242.228      145.033       51.174      157.326      115.489       79.519    24751.535    13337.684     6323.248        6.336        2.221      282.327       21.035        0.006      339.544       12.947      869.659
10/04/2013  17:50:00      336.315      200.492       50.266      132.753      101.024       89.806    17623.311    10205.929     8065.173        9.586        1.795      391.542       54.327        0.019      339.550       12.956      869.645
10/04/2013  17:51:00      310.161      112.998       46.098      101.563      100.503       70.647    10314.944    10100.790     4991.015        6.825        1.270      330.104       39.308        0.014      339.601       13.043      869.648
10/04/2013  17:52:00      126.218       42.302       42.228      110.687       88.515       70.804    12251.655     7834.979     5013.232        2.230        1.255      133.118       51.305        0.149      339.615       13.069      869.641
10/04/2013  17:53:00      201.665       75.854       22.391      102.632       77.523       72.809    10533.410     6009.765     5301.168        3.438        1.092      215.459       39.396        0.033      339.619       13.075      869.647
10/04/2013  17:54:00      396.117      247.675       63.945      139.395      120.159       89.671    19430.830    14438.153     8040.951       13.212        2.095      467.174       42.807        0.008      339.577       13.001      869.625
10/04/2013  17:55:00      228.917      151.031       54.928      148.589       96.106       84.247    22078.770     9236.437     7097.477        5.831        1.921      274.250       73.813        0.072      339.578       13.004      869.605
10/04/2013  17:56:00      221.710      104.516       75.994      126.437       96.806       69.185    15986.339     9371.397     4786.558        4.799        1.507      245.110       41.651        0.029      339.557       12.970      869.614
10/04/2013  17:57:00      198.600      129.720       91.777      190.823      101.506      103.110    36413.559    10303.560    10631.644        6.101        2.867      237.211       94.569        0.159      339.506       12.882      869.608
10/04/2013  17:58:00      192.367      117.284       83.442      126.861       93.688       82.330    16093.636     8777.454     6778.176        4.468        1.582      225.302       70.338        0.097      339.479       12.837      869.597
10/04/2013  17:59:00      195.133      132.087       90.557      148.021       74.707       72.742    21910.175     5581.126     5291.410        4.825        1.639      235.635       57.823        0.060      339.466       12.816      869.592
10/04/2013  18:00:00      216.174      115.561       44.894      151.794      101.707       91.908    23041.503    10344.254     8447.055        5.196        2.092      245.123       70.911        0.084      339.451       12.789      869.566
10/04/2013  18:01:00      273.088       98.792       44.055      163.322      118.721      102.092    26673.938    14094.578    10422.712        6.872        2.560      290.408       66.024        0.052      339.388       12.685      869.556
10/04/2013  18:02:00      284.458      191.010       37.391      130.735      117.759       84.064    17091.626    13867.143     7066.809        7.840        1.901      342.639       48.398        0.020      339.384       12.677      869.555
10/04/2013  18:03:00      314.520      166.950       76.908      147.437       91.849      107.093    21737.637     8436.262    11468.854        8.717        2.082      356.083       80.108        0.051      339.393       12.692      869.566
10/04/2013  18:04:00      308.212      181.120      101.066      183.454      144.653       94.172    33655.383    20924.570     8868.285       10.072        3.172      357.490       83.002        0.054      339.374       12.658      869.559
10/04/2013  18:05:00      207.389      102.428       60.168      144.549      134.331       89.831    20894.534    18044.687     8069.628        5.206        2.350      231.304       50.333        0.047      339.382       12.675      869.567
10/04/2013  18:06:00      212.246       79.012       34.645      157.391      125.291       74.410    24771.848    15697.813     5536.866        4.924        2.300      226.476       62.618        0.076      339.375       12.662      869.592
10/04/2013  18:07:00      176.988      110.503       79.002       87.594       66.146       60.096     7672.775     4375.340     3611.508        3.272        0.783      208.652       41.712        0.040      339.361       12.640      869.605
10/04/2013  18:08:00      193.214      104.993       40.684      116.796       86.531       73.458    13641.315     7487.598     5396.151        3.826        1.326      219.899       49.147        0.050      339.411       12.722      869.600
10/04/2013  18:09:00      149.341       85.409       50.146      121.370       72.578       58.686    14730.683     5267.616     3443.989        2.777        1.172      172.039       38.895        0.051      339.397       12.702      869.594
10/04/2013  18:10:00      171.855      138.266       46.289      125.291       88.653       74.409    15697.769     7859.294     5536.726        3.994        1.455      220.572       56.705        0.066      339.366       12.646      869.609
10/04/2013  18:11:00      250.248      141.226       50.399      140.134      105.523       93.787    19637.427    11135.098     8796.064        6.233        1.978      287.348       67.507        0.055      339.326       12.578      869.612
10/04/2013  18:12:00      140.286       73.712       61.070      131.868       79.841       64.470    17389.288     6374.512     4156.331        2.838        1.396      158.472       62.989        0.158      339.310       12.553      869.641
10/04/2013  18:13:00      153.277       99.502       31.055      102.637       68.741       67.008    10534.387     4725.348     4490.136        2.705        0.987      182.741       49.912        0.075      339.281       12.504      869.658
10/04/2013  18:14:00      238.643      170.369       36.437      156.185      116.360       72.440    24393.884    13539.585     5247.607        6.523        2.159      293.217       42.957        0.021      339.257       12.462      869.684
10/04/2013  18:15:00      310.166      184.585       29.472      189.586      126.760       89.300    35942.852    16068.070     7974.408        9.555        2.999      360.936       72.077        0.040      339.279       12.499      869.676
10/04/2013  18:16:00      265.803      158.783       42.374      167.345       95.730       63.189    28004.370     9164.231     3992.866        6.940        2.058      309.619       52.113        0.028      339.275       12.493      869.693
10/04/2013  18:17:00      249.368      103.951       26.027      123.393       95.039       78.913    15225.773     9032.464     6227.338        5.207        1.524      270.167       54.351        0.040      339.247       12.447      869.702
10/04/2013  18:18:00      249.062      136.136       56.607      107.885      100.987       82.069    11639.127    10198.409     6735.383        5.617        1.429      283.840       23.129        0.007      339.263       12.473      869.715
10/04/2013  18:19:00      239.611      103.757       16.712      109.031       87.320       74.599    11887.772     7624.706     5565.064        4.676        1.254      261.111       43.004        0.027      339.239       12.432      869.734
10/04/2013  18:20:00      161.546       91.432       26.144      125.332       96.787       55.927    15708.066     9367.718     3127.810        3.167        1.410      185.626       37.941        0.042      339.188       12.350      869.748
10/04/2013  18:21:00      203.681      135.501       57.699      105.209      108.505       89.301    11069.021    11773.377     7974.754        4.699        1.541      244.635       59.552        0.059      339.173       12.322      869.762
10/04/2013  18:22:00      158.006       71.216       51.347      113.368       84.807       70.377    12852.379     7192.288     4952.992        2.883        1.250      173.314       38.297        0.049      339.168       12.314      869.766
10/04/2013  18:23:00      257.377      146.425       58.735      126.587      105.908       73.004    16024.395    11216.520     5329.599        6.185        1.629      296.114       50.870        0.030      339.185       12.342      869.791
10/04/2013  18:24:00      234.617      127.134       65.477      122.170      113.144       68.332    14925.415    12801.509     4669.275        5.394        1.620      266.849       42.084        0.025      339.155       12.292      869.786
10/04/2013  18:25:00      199.026       83.668       46.841      118.101       87.382       58.411    13947.888     7635.557     3411.815        3.690        1.250      215.897       51.238        0.056      339.143       12.273      869.808
10/04/2013  18:26:00      296.226      118.735       50.078      171.256      123.721       75.385    29328.772    15307.009     5682.896        7.733        2.516      319.136       37.057        0.013      339.193       12.356      869.813
10/04/2013  18:27:00      166.994      104.178       73.875      134.937       99.752       90.102    18207.867     9950.448     8118.288        4.023        1.814      196.825       64.972        0.109      339.138       12.262      869.820
10/04/2013  18:28:00      240.843      115.986       43.023       91.820       81.228       65.086     8430.977     6597.954     4236.179        4.628        0.963      267.316       44.943        0.028      339.121       12.233      869.821
10/04/2013  18:29:00      184.252       77.208       58.119      123.373      103.203       89.230    15220.800    10650.851     7962.050        3.855        1.692      199.774       67.681        0.115      339.102       12.202      869.823
10/04/2013  18:30:00      181.510      106.899       59.792       98.670       72.167       63.732     9735.740     5208.035     4061.805        3.347        0.950      210.650       57.329        0.074      339.090       12.183      869.842
10/04/2013  18:31:00      208.957      121.317       38.889      103.450       80.628       83.958    10701.817     6500.913     7048.925        4.207        1.213      241.622       54.213        0.050      339.096       12.192      869.851
10/04/2013  18:32:00      164.165       71.323       37.382      123.047       94.244       58.063    15140.443     8881.894     3371.339        3.041        1.370      178.989       43.310        0.059      339.051       12.118      869.863
10/04/2013  18:33:00      262.421      155.933       24.682       81.282       80.958       55.351     6606.702     6554.241     3063.715        5.500        0.811      305.254       23.235        0.006      339.090       12.182      869.875
10/04/2013  18:34:00      194.123      112.651       46.140       84.226       59.255       61.456     7093.971     3511.132     3776.890        3.344        0.719      224.441       20.530        0.008      339.067       12.145      869.891
10/04/2013  18:35:00      153.544      101.594       38.570       78.638       67.903       47.931     6183.995     4610.757     2297.407        2.424        0.655      184.111       30.473        0.027      339.032       12.086      869.913
10/04/2013  18:36:00      154.860       73.661       45.401       85.233       76.808       53.646     7264.663     5899.542     2877.857        2.375        0.802      171.486       46.743        0.074      339.014       12.056      869.919
10/04/2013  18:37:00      124.322       68.317       51.041       95.044       74.522       58.882     9033.276     5553.471     3467.126        2.039        0.903      141.857       45.506        0.103      338.990       12.017      869.925
10/04/2013  18:38:00      128.839       80.019       19.030       66.771       59.085       54.080     4458.317     3491.028     2924.635        1.712        0.544      151.666       47.057        0.096      338.962       11.968      869.926
10/04/2013  18:39:00      262.857      163.174       41.949      117.511       94.204       72.977    13808.912     8874.409     5325.703        6.274        1.400      309.386       49.842        0.026      338.988       12.010      869.940
10/04/2013  18:40:00      289.342      164.544       46.168      117.556       98.875       81.025    13819.361     9776.243     6565.008        7.154        1.508      332.856       58.516        0.031      339.081       12.167      869.945
10/04/2013  18:41:00      213.028      127.974       29.165       73.380       74.816       57.298     5384.676     5597.388     3283.102        3.843        0.713      248.512       35.594        0.021      339.054       12.122      869.949
10/04/2013  18:42:00       86.568       76.778       60.236       99.967       64.597       56.453     9993.345     4172.778     3186.971        1.718        0.868      115.710       53.198        0.211      338.929       11.913      869.962
10/04/2013  18:43:00      215.423      132.047       13.035       74.823       53.458       56.161     5598.451     2857.798     3154.048        3.781        0.581      252.673       40.541        0.026      338.955       11.953      869.974
10/04/2013  18:44:00      228.789      150.577       51.886      116.037       91.294       72.094    13464.546     8334.526     5197.611        5.235        1.350      273.894       39.179        0.020      338.962       11.968      869.979
10/04/2013  18:45:00      120.306       96.696       29.943       88.017       69.457       62.314     7746.984     4824.315     3883.036        2.058        0.823      154.350       40.362        0.068      338.913       11.887      869.994
10/04/2013  18:46:00      161.309      114.905       29.554       91.526       77.350       69.573     8377.025     5982.974     4840.409        2.964        0.960      198.050       43.672        0.049      338.911       11.883      869.999
10/04/2013  18:47:00      220.105      114.315       16.307      120.508      114.466       68.585    14522.247    13102.517     4703.922        4.705        1.616      248.020       55.876        0.051      338.986       12.008      869.996
10/04/2013  18:48:00      170.381      126.925       21.878      111.172       62.860       57.819    12359.254     3951.401     3343.073        3.263        0.983      212.461       51.689        0.059      338.961       11.967      869.999
10/04/2013  18:49:00      250.341      166.688       51.547      107.703       95.449       81.402    11599.864     9110.494     6626.348        6.022        1.367      300.758       30.386        0.010      338.967       11.976      869.996
10/04/2013  18:50:00      241.209      149.930       41.370       78.795       65.686       60.423     6208.690     4314.705     3650.902        4.827        0.709      284.009       44.306        0.024      338.962       11.966      870.001
10/04/2013  18:51:00      243.102      128.187       19.980       76.408       68.347       57.370     5838.217     4671.287     3291.336        4.486        0.690      274.828       26.658        0.009      338.949       11.944      870.004
10/04/2013  18:52:00      186.932      106.253       37.172      104.015       65.688       59.429    10819.131     4314.852     3531.782        3.314        0.933      215.019       47.846        0.050      338.921       11.900      870.009
10/04/2013  18:53:00      305.641      143.629       31.348      118.026       87.461       78.835    13930.122     7649.389     6214.965        7.141        1.390      337.707       37.141        0.012      338.977       11.992      869.998
10/04/2013  18:54:00      249.630      141.613       39.377       80.813       70.060       59.238     6530.703     4908.461     3509.179        4.943        0.747      287.001       33.025        0.013      338.941       11.932      870.000
10/04/2013  18:55:00      181.870      140.187       27.787      118.058       89.467       59.692    13937.706     8004.326     3563.154        3.950        1.275      229.628       23.541        0.011      338.942       11.934      870.008
10/04/2013  18:56:00      143.389       78.092       42.582       83.735       70.412       65.192     7011.471     4957.875     4249.954        2.234        0.811      163.275       50.355        0.095      338.917       11.893      870.011
10/04/2013  18:57:00      184.064      108.167       20.323       84.286       62.099       33.923     7104.178     3856.306     1150.738        2.905        0.606      213.493       16.913        0.006      338.849       11.778      870.025
10/04/2013  18:58:00      130.515      104.613       64.615      106.360       76.042       75.225    11312.407     5782.416     5658.788        2.745        1.138      167.267       66.764        0.159      338.884       11.837      870.032
10/04/2013  18:59:00      144.589      110.355       17.317       64.362       64.747       54.518     4142.506     4192.189     2972.230        2.234        0.565      181.891       31.220        0.029      338.832       11.749      870.034
10/04/2013  19:00:00      147.766       74.404       50.348      110.749       71.998       67.921    12265.237     5183.765     4613.248        2.598        1.103      165.441       48.694        0.087      338.816       11.721      870.034
10/04/2013  19:01:00      163.350       69.531       39.692       74.758       67.762       55.643     5588.797     4591.720     3096.143        2.318        0.664      177.533       38.067        0.046      338.834       11.754      870.039
10/04/2013  19:02:00      201.403      119.484       43.518       91.872       61.135       57.721     8440.508     3737.475     3331.678        3.612        0.775      234.179       50.733        0.047      338.849       11.777      870.045
10/04/2013  19:03:00      161.987       72.701       30.664       86.366       59.409       57.754     7459.061     3529.400     3335.501        2.339        0.716      177.553       45.536        0.066      338.817       11.724      870.043
10/04/2013  19:04:00      162.331       79.039       40.783      109.289       88.848       56.826    11944.058     7894.004     3229.179        2.866        1.153      180.551       34.196        0.036      338.827       11.741      870.040
10/04/2013  19:05:00      187.098       68.338       10.208       87.278       59.572       54.016     7617.437     3548.842     2917.704        2.693        0.704      199.188       38.887        0.038      338.830       11.746      870.035
10/04/2013  19:06:00      251.606      149.703       61.558      112.826       93.641       79.267    12729.637     8768.573     6283.292        5.864        1.389      292.774       40.793        0.019      338.929       11.911      870.008
10/04/2013  19:07:00      175.015       72.573       35.082       81.874       67.431       62.229     6703.403     4546.979     3872.418        2.612        0.756      189.465       49.103        0.067      338.824       11.735      870.024
10/04/2013  19:08:00      111.331       23.147       22.308       93.000       63.645       60.310     8648.928     4050.627     3637.287        1.488        0.817      113.712       42.550        0.140      338.831       11.749      870.042
10/04/2013  19:09:00      222.858      145.601       46.929      135.851       83.030       66.346    18455.361     6894.037     4401.800        5.140        1.488      266.205       26.109        0.010      338.895       11.855      870.042
10/04/2013  19:10:00      225.355      117.067       48.628       96.686       89.979       74.269     9348.107     8096.162     5515.837        4.490        1.148      253.948       55.111        0.047      338.887       11.839      870.047
10/04/2013  19:11:00      199.343      106.422       42.475       71.292       58.520       54.214     5082.520     3424.594     2939.146        3.215        0.572      225.971       30.145        0.018      338.804       11.701      870.083
10/04/2013  19:12:00      181.690       75.097       26.699       97.577       85.476       58.868     9521.178     7306.153     3465.485        2.982        1.015      196.599       44.792        0.052      338.826       11.739      870.083
10/04/2013  19:13:00      282.988      179.590       43.058      104.738       86.398       71.408    10970.051     7464.648     5099.076        6.886        1.177      335.164       38.820        0.013      338.901       11.865      870.096
10/04/2013  19:14:00      223.586      123.253       54.804      119.532       94.974       78.203    14287.969     9020.001     6115.661        4.880        1.471      255.308       56.841        0.050      338.884       11.837      870.092
10/04/2013  19:15:00      193.243      104.652       60.643       92.877       86.848       68.385     8626.160     7542.503     4676.446        3.640        1.042      219.761       44.647        0.041      338.848       11.774      870.115
10/04/2013  19:16:00      116.141       87.645       66.019       84.560       62.768       62.883     7150.447     3939.783     3954.324        2.028        0.752      145.500       49.107        0.114      338.814       11.721      870.108
10/04/2013  19:17:00      102.273       53.343       35.619       71.417       65.176       58.150     5100.320     4247.891     3381.463        1.365        0.636      115.348       42.123        0.133      338.795       11.689      870.119
10/04/2013  19:18:00      141.488       43.905       32.521       80.102       65.523       36.858     6416.314     4293.277     1358.530        1.753        0.603      148.143       28.281        0.036      338.771       11.647      870.108
10/04/2013  19:19:00      121.220       42.563       33.275       79.483       63.135       47.766     6317.524     3986.018     2281.594        1.510        0.629      128.475       41.479        0.104      338.790       11.681      870.110
10/04/2013  19:20:00      152.316       91.701       22.492       53.556       51.268       46.076     2868.267     2628.426     2122.958        1.987        0.381      177.790       26.451        0.022      338.807       11.708      870.109
10/04/2013  19:21:00      200.942       94.117       35.566       91.315       72.738       52.855     8338.505     5290.854     2793.674        3.346        0.821      221.891       25.112        0.013      338.761       11.628      870.115
10/04/2013  19:22:00      176.457      116.957       74.904      115.790       73.794       78.132    13407.383     5445.551     6104.676        3.769        1.248      211.698       68.640        0.105      338.872       11.816      870.101
10/04/2013  19:23:00      230.896      152.593       25.017      101.499       87.378       59.427    10302.075     7634.876     3531.522        4.934        1.073      276.763       38.075        0.019      338.853       11.784      870.092
10/04/2013  19:24:00      105.275      130.946      116.767      101.066       65.417       47.725    10214.364     4279.448     2277.658        2.931        0.839      168.017       37.838        0.051      338.793       11.684      870.099
10/04/2013  19:25:00      152.532       95.318       42.262       79.396       58.293       62.924     6303.720     3398.030     3959.374        2.390        0.683      179.865       46.851        0.068      338.791       11.681      870.089
10/04/2013  19:26:00      184.187      100.547       32.148       66.333       54.732       55.471     4400.104     2995.594     3077.062        2.777        0.524      209.844       32.626        0.024      338.794       11.684      870.085
10/04/2013  19:27:00      119.852       53.275       38.028       81.578       68.701       47.303     6654.989     4719.779     2237.567        1.613        0.681      131.159       36.114        0.076      338.751       11.614      870.077
10/04/2013  19:28:00      106.482       57.283       42.893       88.573       58.729       57.366     7845.194     3449.118     3290.891        1.552        0.729      120.912       45.012        0.139      338.759       11.628      870.066
10/04/2013  19:29:00      115.837       35.500       38.185      115.270       71.784       56.620    13287.219     5152.875     3205.804        1.889        1.082      121.155       54.605        0.203      338.810       11.713      870.080
10/04/2013  19:30:00       92.732       62.845       66.643       86.122       62.760       55.061     7416.964     3938.861     3031.734        1.569        0.719      112.021       46.288        0.171      338.720       11.562      870.079
10/04/2013  19:31:00      147.327       93.289       66.830       86.505       60.009       54.751     7483.166     3601.082     2997.620        2.448        0.704      174.379       45.799        0.069      338.788       11.674      870.086
10/04/2013  19:32:00      217.968      109.165       50.088      100.335       96.217       80.573    10067.110     9257.660     6492.046        4.387        1.291      243.777       49.783        0.042      338.841       11.763      870.087
10/04/2013  19:33:00      269.169      114.239       25.125       91.420       74.091       66.647     8357.573     5489.426     4441.773        5.221        0.914      292.408       36.334        0.015      338.851       11.780      870.087
10/04/2013  19:34:00      218.721       91.499       76.635      142.128       97.745       83.850    20200.386     9554.019     7030.799        4.943        1.839      237.089       77.708        0.107      338.869       11.810      870.077
10/04/2013  19:35:00      157.193       66.839       30.743      117.993       66.140       55.404    13922.385     4374.493     3069.635        2.574        1.068      170.813       41.018        0.058      338.796       11.688      870.075
10/04/2013  19:36:00      189.284      113.677       60.177       78.388       68.563       52.454     6144.648     4700.840     2751.470        3.298        0.680      220.796       29.195        0.017      338.750       11.612      870.073
10/04/2013  19:37:00      149.962       99.543       50.942       69.500       71.272       63.102     4830.189     5079.649     3981.839        2.444        0.695      179.993       33.056        0.034      338.773       11.650      870.070
10/04/2013  19:38:00      136.479       66.516       38.693       68.541       43.718       46.531     4697.823     1911.253     2165.137        1.666        0.439      151.825       42.116        0.077      338.731       11.582      870.081
10/04/2013  19:39:00      108.559       39.014       13.674       55.655       46.241       31.844     3097.510     2138.240     1014.041        0.987        0.312      115.356       25.070        0.047      338.654       11.452      870.092
10/04/2013  19:40:00      127.080       76.877        6.887       48.083       42.622       33.754     2311.941     1816.658     1139.330        1.369        0.263      148.525       25.575        0.030      338.708       11.543      870.100
10/04/2013  19:41:00      101.991       64.790       17.854       37.858       34.014       28.742     1433.253     1156.935      826.112        0.917        0.171      120.830       11.913        0.010      338.595       11.352      870.126
10/04/2013  19:42:00      126.899       88.269       27.104       50.986       38.495       37.452     2599.577     1481.889     1402.642        1.506        0.274      154.579       14.095        0.008      338.640       11.427      870.143
10/04/2013  19:43:00      101.911       76.030       25.067       49.661       37.194       29.242     2466.197     1383.366      855.075        1.075        0.235      127.147       16.063        0.016      338.561       11.297      870.152
10/04/2013  19:44:00      145.896       59.738       25.115       83.016       51.413       50.420     6891.686     2643.286     2542.194        1.878        0.604      157.652       37.325        0.056      338.687       11.506      870.166
10/04/2013  19:45:00       61.999       25.775       23.275       78.609       49.108       37.652     6179.386     2411.554     1417.685        0.753        0.500       67.143       29.663        0.195      338.518       11.224      870.182
10/04/2013  19:46:00      119.241       74.387       31.287       69.527       44.302       38.484     4834.008     1962.670     1481.019        1.450        0.414      140.541       18.484        0.017      338.553       11.282      870.185
10/04/2013  19:47:00      141.283       81.522       56.942       77.571       60.126       63.491     6017.218     3615.110     4031.117        2.175        0.683      163.116       43.358        0.071      338.578       11.324      870.194
10/04/2013  19:48:00       87.883       75.355       23.487       62.688       45.607       50.661     3929.737     2079.967     2566.570        1.126        0.429      115.766       36.145        0.097      338.575       11.319      870.191
10/04/2013  19:49:00      154.166       82.125       40.927       84.952       77.907       60.999     7216.801     6069.486     3720.859        2.459        0.850      174.676       35.968        0.042      338.586       11.336      870.179
10/04/2013  19:50:00      156.066       77.362       16.033       68.131       53.001       40.988     4641.811     2809.056     1680.007        1.986        0.457      174.188       10.760        0.004      338.602       11.363      870.176
10/04/2013  19:51:00      112.110       57.893       19.008       61.339       40.973       27.966     3762.414     1678.789      782.115        1.125        0.311      126.176       15.600        0.015      338.593       11.349      870.197
10/04/2013  19:52:00      134.158       60.432       35.908       69.311       65.870       53.328     4804.061     4338.809     2843.919        1.746        0.599      147.141       29.076        0.039      338.574       11.318      870.209
10/04/2013  19:53:00       94.732       29.957       27.008       49.884       31.717       39.467     2488.392     1005.946     1557.633        0.783        0.253       99.355       17.967        0.033      338.507       11.205      870.215
10/04/2013  19:54:00      127.675       54.500       13.682       29.069       33.209       25.251      845.015     1102.836      637.601        1.102        0.129      138.821       19.576        0.020      338.476       11.154      870.227
10/04/2013  19:55:00      110.221       45.060       16.370       52.207       46.814       30.044     2725.543     2191.590      902.671        1.013        0.291      119.076       16.934        0.020      338.517       11.221      870.239
10/04/2013  19:56:00      133.322       56.400       28.945       34.822       42.233       26.705     1212.599     1783.590      713.167        1.275        0.185      144.761       13.790        0.009      338.464       11.134      870.249
10/04/2013  19:57:00      149.306       76.401       31.777       59.935       34.762       30.629     3592.206     1208.390      938.127        1.744        0.287      167.719       13.241        0.006      338.595       11.354      870.254
10/04/2013  19:58:00       77.871       50.296       13.986       21.057       17.445       20.272      443.417      304.341      410.942        0.497        0.058       92.701       10.955        0.014      338.422       11.062      870.259
10/04/2013  19:59:00       48.397       46.828        2.361       37.686       25.489       19.308     1420.261      649.667      372.809        0.349        0.122       67.344       15.631        0.054      338.353       10.947      870.266
10/04/2013  20:00:00       62.718       51.978        5.696       29.376       25.302       24.999      862.970      640.209      624.949        0.440        0.106       81.457       17.393        0.046      338.410       11.041      870.262
10/04/2013  20:01:00       82.339       45.716       18.659       34.498       20.173       21.441     1190.116      406.934      459.723        0.564        0.103       94.179       17.587        0.035      338.369       10.975      870.262
10/04/2013  20:02:00      110.400       51.706       20.218       34.522       27.030       23.940     1191.789      730.637      573.116        0.888        0.125      121.909       18.110        0.022      338.412       11.046      870.274
10/04/2013  20:03:00       80.175       46.209       10.356       36.624       28.828       23.624     1341.335      831.054      558.084        0.570        0.137       92.538       15.166        0.027      338.445       11.101      870.281
10/04/2013  20:04:00       91.092       62.877        7.117       25.010       23.703       28.851      625.520      561.846      832.362        0.716        0.101      110.685       18.011        0.026      338.373       10.980      870.280
10/04/2013  20:05:00       98.254       64.924       17.901       38.373       25.200       29.079     1472.500      635.023      845.616        0.857        0.148      117.766       15.820        0.018      338.327       10.903      870.271
10/04/2013  20:06:00      125.775       75.914       22.563       36.273       27.261       27.747     1315.738      743.170      769.871        1.246        0.141      146.909       18.243        0.015      338.399       11.025      870.268
10/04/2013  20:07:00       56.929       50.912       10.686       53.491       32.041       32.697     2861.336     1026.632     1069.093        0.545        0.248       76.374       24.081        0.099      338.293       10.845      870.267
10/04/2013  20:08:00       26.245       51.991       -2.904       36.278       36.327       30.174     1316.110     1319.629      910.499        0.347        0.177       58.239       27.877        0.229      338.201       10.691      870.273
10/04/2013  20:09:00       41.506       48.835       -0.448       30.823       26.333       26.654      950.050      693.432      710.427        0.323        0.118       64.090       16.395        0.065      338.181       10.657      870.284
10/04/2013  20:10:00       33.488       40.720        5.944       35.900       35.948       26.107     1288.845     1292.284      681.580        0.304        0.163       52.721       18.035        0.117      338.187       10.668      870.302
10/04/2013  20:11:00       69.585       43.068        7.563       40.343       25.389       25.504     1627.554      644.615      650.476        0.484        0.146       81.835       16.048        0.038      338.255       10.781      870.301
10/04/2013  20:12:00       28.243       43.427       -4.696       21.202       26.610       21.688      449.520      708.082      470.351        0.217        0.081       51.803       16.723        0.104      338.166       10.632      870.306
10/04/2013  20:13:00       22.668       33.416       -1.603       21.142       29.573       17.073      447.000      874.579      291.500        0.162        0.081       40.379       17.699        0.192      338.084       10.495      870.331
10/04/2013  20:14:00       56.714       48.813        3.423       30.324       30.540       29.729      919.569      932.682      883.831        0.417        0.137       74.828       21.555        0.083      338.129       10.570      870.344
10/04/2013  20:15:00       39.414       50.923       -0.634       29.672       30.505       24.014      880.412      930.579      576.660        0.327        0.119       64.394       19.609        0.093      338.180       10.656      870.362
10/04/2013  20:16:00        8.270       85.129       -5.067       25.519       31.817       22.382      651.206     1012.309      500.938        0.475        0.108       85.530       17.286        0.041      338.143       10.594      870.378
10/04/2013  20:17:00       23.119       73.337       -3.976       26.906       55.833       23.548      723.928     3117.336      554.496        0.516        0.220       76.895       24.645        0.103      338.146       10.598      870.376
10/04/2013  20:18:00       16.782       59.593       -5.657       32.387       54.037       21.034     1048.918     2920.005      442.409        0.414        0.221       61.911       11.901        0.037      338.077       10.484      870.377
10/04/2013  20:19:00       16.630        9.669        3.912       15.943       20.430       13.867      254.185      417.401      192.288        0.062        0.043       19.236        8.224        0.183      337.830       10.069      870.400
10/04/2013  20:20:00       24.987        1.429        8.375       15.360       15.640        8.010      235.933      244.620       64.166        0.062        0.027       25.028        9.381        0.141      337.888       10.167      870.405
10/04/2013  20:21:00       19.303      -29.749        7.344       19.319       20.655       12.776      373.206      426.626      163.235        0.114        0.048       35.463       14.111        0.158      338.102       10.524      870.403
10/04/2013  20:22:00       17.557      -11.055       15.140       21.610       15.213       17.728      467.004      231.436      314.293        0.084        0.051       20.748       12.659        0.372      337.989       10.336      870.399
10/04/2013  20:23:00       44.234       11.419       21.834       30.750       28.283       22.754      945.543      799.916      517.724        0.241        0.113       45.684       23.434        0.263      338.098       10.518      870.391
10/04/2013  20:24:00       55.749       45.617       -3.365       37.287       30.079       25.063     1390.285      904.723      628.136        0.406        0.146       72.033       19.824        0.076      338.281       10.825      870.396
10/04/2013  20:25:00       63.270       43.118        3.619       35.818       33.070       28.751     1282.950     1093.649      826.615        0.454        0.160       76.566       20.954        0.075      338.286       10.835      870.396
10/04/2013  20:26:00       34.449       34.341        7.036       33.857       21.531       18.871     1146.291      463.565      356.107        0.219        0.098       48.642       15.018        0.095      338.274       10.814      870.420
10/04/2013  20:27:00       32.251       66.397       -1.927       31.981       35.990       28.011     1022.779     1295.297      784.617        0.428        0.155       73.816       26.890        0.133      338.167       10.636      870.452
10/04/2013  20:28:00       53.870       47.523        1.822       42.878       30.145       23.351     1838.493      908.708      545.250        0.423        0.165       71.836       17.841        0.062      338.099       10.522      870.473
10/04/2013  20:29:00       50.718       49.491       -0.321       28.060       29.132       24.604      787.385      848.651      605.378        0.363        0.112       70.863       18.374        0.067      338.147       10.601      870.509
10/04/2013  20:30:00       69.794       40.388        5.497       25.755       21.998       21.686      663.326      483.931      470.288        0.407        0.081       80.637       13.085        0.026      338.065       10.463      870.551
10/04/2013  20:31:00       45.501       46.226        2.659       19.635       15.508       13.269      385.519      240.484      176.074        0.251        0.040       64.863        8.370        0.017      338.001       10.355      870.574
10/04/2013  20:32:00       24.833       66.933       -9.416       22.122       27.639       14.885      489.376      763.921      221.553        0.333        0.074       71.391        8.926        0.016      338.053       10.444      870.590
10/04/2013  20:33:00       28.064       85.785      -15.345       25.901       24.042       13.846      670.865      578.021      191.698        0.491        0.072       90.259       12.534        0.019      338.216       10.716      870.588
10/04/2013  20:34:00       26.073       59.124       -7.780       22.519       24.224       16.181      507.098      586.805      261.838        0.280        0.068       64.617       15.276        0.056      338.083       10.493      870.607
10/04/2013  20:35:00       32.910       54.582        1.274       36.101       37.066       25.291     1303.305     1373.908      639.649        0.369        0.166       63.736       21.923        0.118      338.088       10.501      870.617
10/04/2013  20:36:00       49.197       66.967        2.252       45.826       47.353       31.914     2100.022     2242.353     1018.475        0.613        0.268       83.096       26.616        0.103      338.282       10.827      870.612
10/04/2013  20:37:00       27.409       44.777        1.789       37.575       40.297       28.303     1411.889     1623.869      801.059        0.330        0.192       52.499       29.852        0.323      338.137       10.585      870.636
10/04/2013  20:38:00       69.681       55.368        2.138       30.018       26.541       24.331      901.101      704.428      591.985        0.506        0.110       89.000       16.701        0.035      338.228       10.736      870.661
10/04/2013  20:39:00       68.293       49.665        4.543       30.856       20.218       21.977      952.064      408.752      483.003        0.450        0.092       84.443       14.730        0.030      338.198       10.686      870.665
10/04/2013  20:40:00       48.313       37.244        3.934       33.442       17.881       15.724     1118.394      319.738      247.249        0.271        0.084       61.003       12.985        0.045      338.032       10.409      870.692
10/04/2013  20:41:00       23.865       88.949       -8.685       19.570       25.699       18.685      382.967      660.429      349.139        0.497        0.070       92.094       10.750        0.014      338.025       10.397      870.694
10/04/2013  20:42:00       22.812       96.269       -8.794       24.823       36.517       21.153      616.161     1333.478      447.461        0.613        0.120       98.935       16.616        0.028      337.978       10.316      870.699
10/04/2013  20:43:00        6.229      148.917      -17.469       25.786       28.883       14.358      664.936      834.253      206.153        1.211        0.085      149.047        8.691        0.003      338.064       10.461      870.704
10/04/2013  20:44:00        5.447      146.782      -21.246       18.721       20.201       15.991      350.485      408.064      255.723        1.152        0.051      146.883       12.799        0.008      338.054       10.445      870.691
10/04/2013  20:45:00       14.789      114.981      -18.815       19.707       19.415        9.688      388.372      376.947       93.852        0.733        0.043      115.928        9.159        0.006      338.115       10.547      870.687
10/04/2013  20:46:00       27.438       72.999        4.220       23.488       43.128       24.767      551.676     1860.032      613.390        0.456        0.151       77.986       22.690        0.085      337.884       10.159      870.705
10/04/2013  20:47:00       30.251       36.458       -8.201       15.517       22.622        8.561      240.792      511.745       73.296        0.157        0.041       47.374        6.326        0.018      338.039       10.421      870.708
10/04/2013  20:48:00      -24.454       17.818       -8.366       13.220        7.905        8.859      174.770       62.489       78.482        0.065        0.016       30.257        4.904        0.026      337.976       10.313      870.696
10/04/2013  20:49:00      -36.996       29.324      -13.193       10.977       17.085       11.991      120.494      291.909      143.782        0.148        0.028       47.208        7.032        0.022      337.997       10.350      870.693
10/04/2013  20:50:00        8.663       45.014       -2.824       28.839       16.974        9.317      831.708      288.105       86.809        0.166        0.060       45.840        8.337        0.033      338.161       10.624      870.697
10/04/2013  20:51:00       40.863       49.619        6.849       21.283       21.295       16.856      452.950      453.467      284.141        0.268        0.060       64.279       13.669        0.045      338.212       10.708      870.708
10/04/2013  20:52:00       54.254       44.713       10.386       28.826       20.528       17.566      830.941      421.414      308.556        0.331        0.078       70.304       16.508        0.055      338.269       10.806      870.729
10/04/2013  20:53:00       33.687       29.505       -0.691       24.944       21.107       16.589      622.213      445.485      275.179        0.167        0.067       44.781       12.686        0.080      338.225       10.732      870.734
10/04/2013  20:54:00       61.046       39.153        2.481       21.531       19.211       19.561      463.605      369.078      382.623        0.324        0.061       72.523       12.715        0.031      338.366       10.968      870.726
10/04/2013  20:55:00      110.171       68.917       26.291       35.074       16.515       21.503     1230.174      272.745      462.390        0.977        0.098      129.951       13.610        0.011      338.386       11.003      870.726
10/04/2013  20:56:00       70.621       43.862       13.055       32.606       16.237       14.418     1063.156      263.643      207.876        0.431        0.077       83.134        6.579        0.006      338.338       10.922      870.723
10/04/2013  20:57:00       82.779       34.021       13.338       28.059       25.674       23.296      787.328      659.169      542.688        0.509        0.099       89.498       11.318        0.016      338.225       10.733      870.711
10/04/2013  20:58:00       53.236       42.932        8.321       23.362       26.704       19.717      545.768      713.089      388.771        0.320        0.082       68.390       12.625        0.034      338.017       10.384      870.722
10/04/2013  20:59:00       31.913       43.988       -0.897       22.864       23.014       20.479      522.774      529.636      419.399        0.221        0.074       54.345       14.625        0.072      337.926       10.229      870.734
10/04/2013  21:00:00       19.156       61.630       -5.906       21.597       28.470       21.221      466.443      810.533      450.313        0.296        0.086       64.538       19.905        0.095      337.996       10.348      870.737
10/04/2013  21:01:00        8.742      102.719       -7.421       19.697       26.700       15.973      387.955      712.890      255.129        0.602        0.068      103.090       13.431        0.017      338.008       10.368      870.742
10/04/2013  21:02:00       19.094       33.283        5.229       27.924       34.736       17.040      779.722     1206.616      290.379        0.189        0.114       38.371       17.299        0.203      337.686        9.828      870.761
10/04/2013  21:03:00       20.322       82.855       -2.870       32.243       60.608       27.816     1039.600     3673.305      773.734        0.639        0.274       85.311       31.299        0.135      337.960       10.286      870.758
10/04/2013  21:04:00        5.118       75.855        0.888       28.274       42.397       24.171      799.396     1797.497      584.228        0.448        0.159       76.027       17.770        0.055      338.087       10.500      870.758
10/04/2013  21:05:00       11.054       48.784       -0.077       29.714       44.087       25.048      882.901     1943.697      627.398        0.298        0.173       50.021       24.273        0.235      337.843       10.092      870.774
10/04/2013  21:06:00        5.958       51.372        4.676       22.385       36.861       20.006      501.082     1358.746      400.251        0.248        0.113       51.716       13.407        0.067      337.805       10.028      870.780
10/04/2013  21:07:00       32.349       77.725       -3.085       29.168       45.693       23.219      850.795     2087.891      539.111        0.529        0.174       84.188       24.473        0.085      337.942       10.256      870.778
10/04/2013  21:08:00       29.091       41.055        6.991       32.313       36.283       26.930     1044.103     1316.456      725.237        0.283        0.154       50.317       21.408        0.181      337.915       10.212      870.786
10/04/2013  21:09:00       58.973       57.775        8.320       36.478       38.080       28.936     1330.609     1450.061      837.274        0.525        0.181       82.558       26.926        0.106      337.788        9.999      870.801
10/04/2013  21:10:00       22.763       20.836        2.286       42.070       27.114       20.070     1769.902      735.192      402.823        0.193        0.145       30.860       12.789        0.172      337.707        9.863      870.804
10/04/2013  21:11:00       31.782       60.622       -3.782       36.880       35.177       13.482     1360.108     1237.395      181.764        0.374        0.139       68.448       13.492        0.039      337.893       10.174      870.792
10/04/2013  21:12:00       19.250       54.291       -3.530       16.808       25.822       13.504      282.516      666.795      182.356        0.223        0.057       57.603        7.661        0.018      337.781        9.987      870.793
10/04/2013  21:13:00        4.284       65.386      -11.540       21.146       16.300        9.633      447.150      265.693       92.788        0.262        0.040       65.526        4.753        0.005      337.910       10.203      870.803
10/04/2013  21:14:00      -31.954       37.560       -4.974       33.545       42.388       17.696     1125.247     1796.711      313.147        0.285        0.162       49.313       10.716        0.047      337.740        9.918      870.801
10/04/2013  21:15:00      -56.063      -31.723      -12.509        9.482        8.587        8.500       89.907       73.733       72.248        0.227        0.012       64.416        6.580        0.010      337.494        9.506      870.808
10/04/2013  21:16:00      -46.963      -44.134       -9.256       14.955       16.185        9.920      223.665      261.964       98.398        0.241        0.029       64.446        4.916        0.006      337.541        9.584      870.818
10/04/2013  21:17:00      -68.296      -33.441       -4.903       13.631       10.264        9.064      185.807      105.346       82.159        0.309        0.019       76.044        4.148        0.003      337.719        9.882      870.832
10/04/2013  21:18:00      -37.565      -13.574       -0.544       12.749       13.405        8.372      162.525      179.683       70.092        0.100        0.021       39.943        5.186        0.017      337.607        9.694      870.836
10/04/2013  21:19:00      -50.279      -16.514       -4.101       16.147       15.888        7.855      260.723      252.416       61.697        0.170        0.029       52.921        2.405        0.002      337.610        9.701      870.857
10/04/2013  21:20:00      -51.102      -22.338      -10.482       15.516       10.601        8.706      240.758      112.378       75.801        0.182        0.021       55.771        5.876        0.011      337.537        9.575      870.885
10/04/2013  21:21:00      -65.520       -1.582      -10.917        9.661        7.434        7.491       93.335       55.258       56.120        0.231        0.010       65.539        3.254        0.002      337.652        9.770      870.901
10/04/2013  21:22:00      -67.411        8.595      -13.249        6.277        6.356        5.186       39.400       40.393       26.894        0.245        0.005       67.957        3.371        0.002      337.634        9.742      870.899
10/04/2013  21:23:00      -61.045       -7.142      -11.476       14.133       12.026        9.791      199.728      144.618       95.862        0.217        0.022       61.462        8.854        0.021      337.526        9.559      870.888
10/04/2013  21:24:00      -29.327       -8.734       -8.146       20.600        8.890        6.689      424.356       79.026       44.737        0.078        0.027       30.600        6.632        0.047      337.457        9.443      870.884
10/04/2013  21:25:00       -2.292       25.588       -4.882       13.456       16.412        5.946      181.068      269.370       35.358        0.058        0.024       25.690        7.815        0.093      337.720        9.884      870.883
10/04/2013  21:26:00       -3.341       56.810       -7.735       12.770       23.108        6.245      163.084      533.984       39.004        0.202        0.037       56.908        2.907        0.003      337.602        9.686      870.875
10/04/2013  21:27:00      -25.900       54.715       -9.057       18.058       44.971        7.508      326.095     2022.383       56.368        0.308        0.120       60.536       10.384        0.029      337.751        9.936      870.877
10/04/2013  21:28:00      -39.753      -14.013      -10.311       12.994       18.394       10.435      168.854      338.322      108.885        0.125        0.031       42.150        7.378        0.031      337.417        9.377      870.891
10/04/2013  21:29:00      -37.201      -28.324       -7.932       19.082       14.005       12.562      364.111      196.126      157.797        0.148        0.036       46.757        6.242        0.018      336.985        8.654      870.905
10/04/2013  21:30:00      -66.817      -20.342      -12.074       18.892       19.021       14.514      356.918      361.806      210.647        0.298        0.046       69.845        6.592        0.009      336.940        8.577      870.920
10/04/2013  21:31:00      -63.969        9.093      -13.130       14.574       16.896        9.996      212.407      285.473       99.928        0.247        0.030       64.612        7.056        0.012      337.002        8.682      870.938
10/04/2013  21:32:00      -60.849       20.752       -8.527       12.860       11.541        9.743      165.370      133.186       94.923        0.230        0.020       64.290        7.045        0.012      337.229        9.061      870.944
10/04/2013  21:33:00      -49.176       -3.333      -13.403       18.826       16.313       10.071      354.416      266.106      101.421        0.167        0.036       49.288       10.718        0.047      337.152        8.932      870.951
10/04/2013  21:34:00      -19.217       -0.023       -0.809        9.730        9.564        4.676       94.668       91.473       21.865        0.029        0.010       19.217        3.237        0.028      337.248        9.096      870.968
10/04/2013  21:35:00       -7.043       16.414        0.453       15.785       11.069        6.304      249.166      122.525       39.740        0.037        0.021       17.861        7.548        0.179      337.505        9.525      870.971
10/04/2013  21:36:00        4.624        9.470       -1.706        9.376       18.708        5.600       87.910      350.005       31.356        0.029        0.023       10.538        3.376        0.103      337.573        9.637      870.974
10/04/2013  21:37:00       -1.107        7.610       -4.450        5.155        7.081        4.158       26.575       50.146       17.292        0.009        0.005        7.690        2.768        0.130      337.686        9.827      870.971
10/04/2013  21:38:00       14.134       10.521        1.338        8.971        8.427        6.606       80.475       71.016       43.643        0.025        0.010       17.620        5.621        0.102      337.760        9.951      870.975
10/04/2013  21:39:00       15.176       10.392        6.088        9.102       12.786       11.254       82.840      163.482      126.645        0.037        0.019       18.393        9.100        0.245      337.523        9.555      870.975
10/04/2013  21:40:00       -5.642       -2.233        0.819       10.951       11.860        5.624      119.925      140.657       31.635        0.016        0.015        6.068        6.345        1.094      337.413        9.369      870.976
10/04/2013  21:41:00       12.308       -1.342        3.563       15.289        9.861        5.588      233.767       97.248       31.227        0.026        0.018       12.381        7.178        0.336      337.646        9.761      870.982
10/04/2013  21:42:00        8.214        4.523        8.627        8.116        5.369        5.394       65.867       28.823       29.097        0.014        0.006        9.377        2.772        0.087      337.317        9.209      870.993
10/04/2013  21:43:00       49.946        8.256        7.947       21.611       19.769       12.814      467.035      390.819      164.186        0.182        0.051       50.624       10.074        0.040      337.689        9.833      870.995
10/04/2013  21:44:00       77.531       27.991       23.946       23.732       23.405       18.660      563.190      547.787      348.211        0.441        0.073       82.429       13.371        0.026      337.737        9.914      870.978
10/04/2013  21:45:00       64.313       18.371       25.345       57.381       27.260       26.996     3292.548      743.094      728.783        0.494        0.238       66.885       11.678        0.030      337.848       10.100      870.970
10/04/2013  21:46:00       13.342        5.438        3.161       20.134       11.841       10.700      405.382      140.213      114.481        0.044        0.033       14.408        8.333        0.334      337.514        9.538      870.966
10/04/2013  21:47:00       19.319       -0.545        3.080       13.886       12.075        7.358      192.823      145.811       54.146        0.039        0.020       19.327        6.310        0.107      337.370        9.298      870.953
10/04/2013  21:48:00       47.896       39.110       15.793        8.675        6.853       10.017       75.253       46.964      100.335        0.215        0.011       61.835        4.564        0.005      337.132        8.901      870.937
10/04/2013  21:49:00       22.298       11.958        8.835       11.026       15.614        8.363      121.563      243.782       69.935        0.058        0.022       25.302        6.004        0.056      336.965        8.620      870.925
10/04/2013  21:50:00       32.042        9.315        4.821        8.762       10.737        8.289       76.774      115.285       68.701        0.070        0.013       33.369        6.274        0.035      337.313        9.203      870.902
10/04/2013  21:51:00        6.902       -1.157        0.017        7.253        9.526        2.790       52.607       90.754        7.783        0.010        0.008        6.998        1.506        0.046      337.345        9.257      870.879
10/04/2013  21:52:00        7.400       13.415        1.732       11.005        9.152        7.782      121.112       83.764       60.561        0.025        0.013       15.320        6.936        0.205      337.418        9.378      870.869
10/04/2013  21:53:00       15.317       16.792        4.408        9.478        7.683        8.979       89.823       59.024       80.623        0.038        0.011       22.729        5.731        0.064      337.441        9.416      870.884
10/04/2013  21:54:00        1.552        8.936        3.191        6.396       15.479        5.220       40.904      239.615       27.252        0.020        0.015        9.070        5.002        0.304      337.254        9.105      870.888
10/04/2013  21:55:00       25.185        7.803        3.038       10.142       10.469        5.425      102.866      109.602       29.435        0.047        0.012       26.366        3.071        0.014      337.455        9.441      870.886
10/04/2013  21:56:00       28.778       -5.439        2.675       12.300        9.081        4.846      151.280       82.458       23.487        0.056        0.013       29.287        4.157        0.020      337.515        9.540      870.885
10/04/2013  21:57:00      -23.280      -11.461        3.545       17.799       11.724       10.472      316.804      137.448      109.659        0.062        0.028       25.948       10.192        0.154      337.024        8.720      870.892
10/04/2013  21:58:00      -47.576      -27.294       -7.736       10.513       10.098        6.866      110.522      101.961       47.148        0.166        0.013       54.849        4.886        0.008      336.685        8.154      870.906
10/04/2013  21:59:00      -39.523      -15.530        4.091       11.284       13.017       12.077      127.333      169.451      145.842        0.113        0.022       42.464        6.786        0.026      336.853        8.434      870.902
10/04/2013  22:00:00      -23.539      -27.782       -6.629       22.787       14.371       10.676      519.264      206.536      113.984        0.110        0.042       36.414        9.306        0.065      337.057        8.775      870.908
10/04/2013  22:01:00      -29.731       -8.423        0.947       12.840       11.038       12.868      164.858      121.838      165.582        0.070        0.023       30.901        7.558        0.060      336.945        8.587      870.914
10/04/2013  22:02:00      -10.106      -23.915       -6.965       20.635       21.751       12.670      425.783      473.098      160.523        0.089        0.053       25.963       13.019        0.251      337.339        9.246      870.918
10/04/2013  22:03:00      -44.803      -28.214      -10.096       14.798       14.731       10.319      218.973      217.006      106.492        0.172        0.027       52.946        7.564        0.020      336.697        8.174      870.916
10/04/2013  22:04:00      -63.103      -12.840      -10.675        6.639        6.652        5.929       44.076       44.245       35.148        0.219        0.006       64.396        1.906        0.001      336.554        7.935      870.911
10/04/2013  22:05:00      -66.075      -12.520      -10.929       10.195       10.459        9.016      103.935      109.389       81.289        0.247        0.015       67.250        2.433        0.001      336.461        7.780      870.913
10/04/2013  22:06:00      -60.009       -3.482      -12.703        8.844        7.437        5.582       78.217       55.306       31.160        0.197        0.008       60.110        3.671        0.004      336.695        8.169      870.926
10/04/2013  22:07:00      -65.121       -9.721      -12.408        8.038        8.672        6.953       64.603       75.196       48.346        0.234        0.009       65.842        4.806        0.005      336.566        7.954      870.924
10/04/2013  22:08:00      -53.406      -20.227       -7.787        9.728        9.612        8.649       94.640       92.390       74.806        0.179        0.013       57.108        6.932        0.015      336.347        7.588      870.923
10/04/2013  22:09:00      -58.380       -2.024       -9.387        6.344       10.919        6.656       40.247      119.217       44.300        0.185        0.010       58.415        1.049        0.000      336.924        8.553      870.930
10/04/2013  22:10:00      -38.317      -36.973      -11.229       15.379       10.259        9.441      236.521      105.245       89.125        0.170        0.022       53.246        5.359        0.010      336.652        8.097      870.941
10/04/2013  22:11:00      -52.038      -31.750      -17.356       12.875       14.765        9.747      165.754      218.009       94.998        0.225        0.024       60.959        6.652        0.012      336.437        7.739      870.921
10/04/2013  22:12:00      -82.326        4.645      -13.840       13.858       16.114        7.796      192.042      259.673       60.775        0.375        0.026       82.457        5.639        0.005      336.384        7.650      870.902
10/04/2013  22:13:00      -65.920       -0.338      -10.318        7.932       12.118        7.973       62.924      146.840       63.572        0.236        0.014       65.921        3.309        0.003      336.439        7.742      870.887
10/04/2013  22:14:00      -47.949      -29.262      -15.930       12.072       16.015        6.676      145.734      256.474       44.567        0.193        0.022       56.172        3.268        0.003      336.352        7.597      870.895
10/04/2013  22:15:00      -52.544      -29.802      -16.331       13.244       12.284       11.529      175.397      150.897      132.917        0.219        0.023       60.407        4.346        0.005      336.298        7.504      870.903
10/04/2013  22:16:00      -46.684      -30.534       -7.950       11.796       11.294        9.629      139.136      127.548       92.723        0.177        0.018       55.783        4.675        0.007      336.192        7.328      870.907
10/04/2013  22:17:00      -45.090      -18.408      -11.252       12.719       14.873        8.431      161.775      221.219       71.088        0.148        0.023       48.702        6.539        0.018      336.188        7.321      870.927
10/04/2013  22:18:00      -30.279      -25.700       -5.574       26.174       18.154       18.646      685.067      329.559      347.655        0.149        0.068       39.715       11.927        0.090      336.534        7.900      870.927
10/04/2013  22:19:00       -0.604      -37.431       -1.695       34.776       26.552       19.925     1209.350      704.999      397.008        0.186        0.116       37.435        8.550        0.052      336.676        8.137      870.924
10/04/2013  22:20:00       14.461      -46.225        9.988       22.239       23.479       15.463      494.571      551.259      239.105        0.187        0.064       48.434       12.834        0.070      336.701        8.180      870.949
10/04/2013  22:21:00       84.075     -103.497        2.748       52.485       50.018       32.435     2754.670     2501.814     1052.048        1.205        0.315      133.342       20.910        0.025      337.441        9.418      870.977
10/04/2013  22:22:00       23.562      -13.402       38.053       33.771       60.450       23.565     1140.501     3654.246      555.323        0.377        0.268       27.107       30.029        1.227      337.025        8.722      870.990
10/04/2013  22:23:00       14.426      -20.691       15.676       15.608       23.812       15.672      243.608      566.996      245.621        0.097        0.053       25.224       10.270        0.166      337.038        8.743      870.986
10/04/2013  22:24:00       28.061      -11.807        7.197       21.005       14.517       11.610      441.200      210.745      134.800        0.088        0.039       30.444       11.112        0.133      337.156        8.940      871.001
10/04/2013  22:25:00       32.908       21.371       23.947       17.549       13.499       11.778      307.982      182.213      138.731        0.137        0.031       39.238        9.207        0.055      337.078        8.809      871.000
10/04/2013  22:26:00       43.675       10.548       18.556       38.007       24.582       17.936     1444.560      604.269      321.693        0.237        0.119       44.931       16.284        0.131      337.102        8.849      871.012
10/04/2013  22:27:00       58.697       -0.266       13.391       43.029       17.873       13.325     1851.522      319.457      177.547        0.299        0.117       58.698       14.146        0.058      337.142        8.914      871.025
10/04/2013  22:28:00       35.594        2.838       15.304       30.881       18.406       13.215      953.624      338.782      174.638        0.149        0.073       35.707        8.462        0.056      337.111        8.865      871.018
10/04/2013  22:29:00       15.477        0.303       13.132       11.769       13.935        9.184      138.511      194.191       84.353        0.041        0.021       15.480        5.246        0.115      336.917        8.541      871.038
10/04/2013  22:30:00       26.609        3.085        9.253       17.287       17.830        8.560      298.856      317.920       73.280        0.075        0.035       26.787        8.027        0.090      336.966        8.622      871.047
10/04/2013  22:31:00       12.817      -11.028        2.600       22.351       11.364        9.907      499.558      129.151       98.150        0.051        0.036       16.908        7.927        0.220      336.950        8.595      871.050
10/04/2013  22:32:00      -23.485      -34.924       -5.846       21.100       18.969        9.338      445.223      359.816       87.197        0.135        0.045       42.086        9.080        0.047      336.400        7.676      871.065
10/04/2013  22:33:00      -26.507      -23.455       -4.780       28.422       12.624       11.784      807.806      159.376      138.857        0.119        0.055       35.394       13.026        0.135      336.546        7.920      871.076
10/04/2013  22:34:00      -56.458      -24.398      -13.194        9.505        8.263        7.596       90.337       68.281       57.705        0.209        0.011       61.504        2.241        0.001      335.991        6.992      871.076
10/04/2013  22:35:00      -59.565      -12.011      -13.916        8.616       11.824        7.646       74.235      139.796       58.455        0.208        0.014       60.764        3.965        0.004      335.814        6.699      871.080
10/04/2013  22:36:00      -66.453      -11.485      -16.038        7.394        9.511        5.695       54.667       90.462       32.432        0.249        0.009       67.438        4.102        0.004      335.883        6.815      871.104
10/04/2013  22:37:00      -75.288      -18.481      -15.521       15.008       15.466       11.682      225.252      239.205      136.459        0.343        0.030       77.523        7.696        0.010      335.834        6.732      871.123
10/04/2013  22:38:00      -95.413       -0.209      -12.072       18.059       18.834       13.366      326.140      354.706      178.649        0.505        0.043       95.413       12.697        0.018      335.808        6.690      871.124
10/04/2013  22:39:00      -97.973        9.638      -21.799       14.639       14.812        9.583      214.297      219.381       91.830        0.535        0.026       98.446        2.094        0.000      335.691        6.495      871.143
10/04/2013  22:40:00      -88.559      -20.369      -18.920       18.418       11.866       10.401      339.219      140.808      108.176        0.460        0.029       90.871        8.207        0.008      335.800        6.674      871.161
10/04/2013  22:41:00     -101.784      -16.916      -21.394       12.184       18.101       10.955      148.439      327.654      120.019        0.585        0.030      103.180       10.254        0.010      335.830        6.724      871.176
10/04/2013  22:42:00      -83.924      -21.003      -14.372       22.306       28.076       13.500      497.552      788.241      182.254        0.458        0.073       86.512        9.631        0.012      335.822        6.713      871.180
10/04/2013  22:43:00      -84.294      -21.798      -11.899       26.988       20.666       13.088      728.341      427.071      171.298        0.452        0.066       87.067       11.515        0.017      335.791        6.660      871.176
10/04/2013  22:44:00      -68.603      -26.246      -10.192       28.529       23.499       14.838      813.896      552.219      220.162        0.354        0.079       73.452        9.715        0.017      335.849        6.758      871.178
10/04/2013  22:45:00      -79.153      -36.742      -10.079       18.307       18.903       14.818      335.158      357.339      219.577        0.431        0.046       87.265        6.818        0.006      335.939        6.907      871.187
10/04/2013  22:46:00      -97.151      -34.229      -12.770       16.078       20.399       17.640      258.488      416.133      311.186        0.588        0.049      103.004       11.531        0.013      335.926        6.885      871.181
10/04/2013  22:47:00      -92.078      -40.302      -19.259       17.672       20.112       15.273      312.298      404.474      233.267        0.571        0.048      100.512       10.048        0.010      335.894        6.830      871.174
10/04/2013  22:48:00      -99.038      -25.650      -17.548       19.024       18.879       19.061      361.926      356.421      363.312        0.593        0.054      102.306       13.104        0.016      335.713        6.531      871.180
10/04/2013  22:49:00     -107.366        5.450      -13.376       31.337       24.805       16.868      982.035      615.297      284.543        0.681        0.094      107.504       12.636        0.014      335.757        6.604      871.181
10/04/2013  22:50:00     -140.292       10.374      -22.080       32.050       26.059       20.387     1027.223      679.072      415.637        1.120        0.106      140.675        6.239        0.002      335.774        6.632      871.195
10/04/2013  22:51:00     -107.414       -0.553      -17.007       22.776       20.252       12.982      518.724      410.159      168.523        0.646        0.055      107.415       11.262        0.011      335.793        6.662      871.213
10/04/2013  22:52:00      -83.457      -12.661      -17.192       19.931       21.946       15.474      397.241      481.642      239.433        0.427        0.056       84.412        7.757        0.008      335.871        6.793      871.220
10/04/2013  22:53:00      -62.961      -21.139      -16.857       14.520       13.926       11.388      210.830      193.934      129.677        0.261        0.027       66.415        5.591        0.007      336.168        7.289      871.244
10/04/2013  22:54:00      -51.822      -23.728      -15.207       20.548       21.649       11.643      422.236      468.669      135.566        0.225        0.051       56.996        7.163        0.016      336.131        7.227      871.253
10/04/2013  22:55:00      -56.381      -25.812      -12.422       22.785       15.601       11.030      519.163      243.383      121.651        0.244        0.044       62.009        6.440        0.011      336.039        7.074      871.259
10/04/2013  22:56:00      -75.099      -38.548      -14.846       18.512       13.592       10.700      342.695      184.751      114.500        0.399        0.032       84.415        7.865        0.009      335.984        6.982      871.263
10/04/2013  22:57:00      -66.591      -26.067      -17.747       15.704       21.946       15.957      246.619      481.649      254.639        0.321        0.049       71.511        8.963        0.016      335.967        6.953      871.271
10/04/2013  22:58:00      -51.043      -30.825      -12.122       16.154       10.075       11.156      260.965      101.498      124.459        0.209        0.024       59.629        8.032        0.018      336.074        7.130      871.280
10/04/2013  22:59:00      -24.997       -5.173       -5.801       14.172       21.635       10.171      200.839      468.052      103.444        0.073        0.039       25.526        5.649        0.049      336.287        7.487      871.301
10/04/2013  23:00:00      -20.655        2.728       -6.146       19.013       18.787       11.065      361.492      352.963      122.430        0.065        0.042       20.834        9.413        0.204      336.330        7.560      871.285
10/04/2013  23:01:00      -28.314       30.592       -6.063       20.094       29.879       13.860      403.753      892.732      192.099        0.163        0.074       41.684        9.322        0.050      336.579        7.975      871.280
10/04/2013  23:02:00      -29.448      103.400      -17.147       22.791       30.706       13.526      519.429      942.833      182.952        0.675        0.082      107.512       13.410        0.016      337.033        8.735      871.264
10/04/2013  23:03:00        5.436      116.756      -16.696       12.793       20.911       10.278      163.668      437.271      105.639        0.732        0.035      116.883        8.273        0.005      337.363        9.286      871.247
10/04/2013  23:04:00       17.835       67.368       -6.061       17.152       25.814       12.884      294.185      666.345      165.993        0.301        0.056       69.689        9.960        0.020      337.072        8.799      871.241
10/04/2013  23:05:00        6.093       15.670       -1.755       15.677       23.368        8.919      245.765      546.065       79.545        0.058        0.044       16.813        9.555        0.323      336.862        8.447      871.225
10/04/2013  23:06:00        6.566       23.295       -1.737       12.988       18.388        8.738      168.684      338.115       76.345        0.059        0.029       24.203        6.093        0.063      336.997        8.674      871.203
10/04/2013  23:07:00       15.564       18.895        6.875       18.350       15.272        8.004      336.707      233.221       64.057        0.064        0.032       24.480        3.011        0.015      337.071        8.797      871.191
10/04/2013  23:08:00      -21.685       -4.846       -3.266       26.221       15.040       10.243      687.555      226.204      104.909        0.076        0.051       22.220        9.322        0.176      336.565        7.952      871.190
10/04/2013  23:09:00      -53.674      -21.156      -15.032        7.050        9.651        8.024       49.698       93.149       64.383        0.188        0.010       57.693        3.377        0.003      336.007        7.021      871.188
10/04/2013  23:10:00      -61.144      -19.027      -14.558        8.419       12.469        6.903       70.880      155.478       47.654        0.229        0.014       64.036        3.274        0.003      336.042        7.079      871.191
10/04/2013  23:11:00      -76.497       -6.066      -18.483        9.853       17.961        8.407       97.079      322.613       70.683        0.336        0.025       76.738        7.368        0.009      335.786        6.651      871.200
10/04/2013  23:12:00      -55.381       -7.914      -14.359       11.324       12.691        8.261      128.223      161.053       68.244        0.185        0.018       55.944        7.017        0.016      335.938        6.906      871.202
10/04/2013  23:13:00      -66.228      -13.518      -12.791       17.671       10.764        9.825      312.252      115.874       96.540        0.263        0.026       67.593        6.960        0.011      336.010        7.024      871.197
10/04/2013  23:14:00      -77.628       -4.444      -15.217       19.286       11.922       14.746      371.935      142.145      217.456        0.350        0.037       77.755       11.729        0.023      335.896        6.836      871.199
10/04/2013  23:15:00     -102.108      -14.677      -21.757       16.536       28.015       14.279      273.450      784.821      203.884        0.619        0.063      103.158        8.057        0.006      335.766        6.619      871.211
10/04/2013  23:16:00     -128.872       -5.493      -14.647       27.202       25.357       21.017      739.952      642.952      441.713        0.934        0.091      128.989       13.070        0.010      335.544        6.248      871.203
10/04/2013  23:17:00     -112.903      -50.159      -12.259       49.794       38.928       18.944     2479.398     1515.413      358.881        0.988        0.218      123.544        6.391        0.003      335.525        6.217      871.176
10/04/2013  23:18:00      -38.488       -9.773       12.589       49.165       30.179       27.494     2417.197      910.752      755.905        0.291        0.204       39.709       29.775        0.562      335.430        6.059      871.182
10/04/2013  23:19:00      -95.749      -19.912      -16.103       18.914       28.470       14.446      357.730      810.566      208.688        0.560        0.069       97.797        7.416        0.006      335.621        6.375      871.180
10/04/2013  23:20:00     -107.528      -31.229      -15.400       31.069       28.578       16.384      965.306      816.693      268.432        0.741        0.103      111.971       13.760        0.015      335.596        6.335      871.169
10/04/2013  23:21:00     -116.785      -33.286      -18.006       24.268       26.121       14.156      588.923      682.315      200.383        0.827        0.074      121.436        5.565        0.002      335.603        6.347      871.156
10/04/2013  23:22:00     -119.858      -35.653      -14.096       34.524       24.923       16.250     1191.922      621.142      264.053        0.896        0.104      125.049       17.260        0.019      335.563        6.281      871.154
10/04/2013  23:23:00      -73.694      -38.106       -8.817       25.324       33.374       16.683      641.313     1113.848      278.308        0.450        0.102       82.963       14.739        0.032      335.618        6.372      871.173
10/04/2013  23:24:00      -82.323      -37.047      -15.572       25.758       20.390       13.939      663.484      415.736      194.309        0.483        0.064       90.275       10.160        0.013      335.642        6.413      871.196
10/04/2013  23:25:00     -112.499      -27.140      -18.158       17.516       16.038       14.070      306.820      257.230      197.969        0.724        0.038      115.727       10.283        0.008      335.592        6.328      871.201
10/04/2013  23:26:00      -80.381      -38.355      -17.532       17.986       25.016       16.912      323.502      625.791      286.030        0.474        0.062       89.063        8.548        0.009      335.626        6.387      871.214
10/04/2013  23:27:00     -105.047      -19.037      -28.862       17.473       16.137       17.586      305.309      260.412      309.265        0.655        0.044      106.758        6.441        0.004      335.678        6.471      871.231
10/04/2013  23:28:00      -76.694      -28.219      -15.067       17.062       19.579       12.768      291.115      383.330      163.015        0.387        0.042       81.721       11.010        0.018      335.610        6.359      871.227
10/04/2013  23:29:00     -116.256       -8.595      -22.847       15.760       15.690       15.827      248.383      246.186      250.479        0.743        0.037      116.573        4.602        0.002      335.690        6.492      871.216
10/04/2013  23:30:00      -85.264       -6.107      -11.222       23.747       17.746       14.879      563.928      314.935      221.380        0.427        0.055       85.482       10.722        0.016      335.761        6.611      871.222
10/04/2013  23:31:00      -94.796      -16.884      -18.488       19.998       17.535       11.209      399.908      307.463      125.641        0.522        0.042       96.288        5.845        0.004      335.696        6.504      871.210
10/04/2013  23:32:00     -106.118      -33.396      -11.349       25.701       31.283       15.759      660.562      978.609      248.337        0.720        0.094      111.249       14.601        0.017      335.581        6.309      871.194
10/04/2013  23:33:00     -106.838      -21.181      -17.502       24.266       19.884       15.544      588.829      395.376      241.613        0.670        0.061      108.918       12.587        0.013      335.525        6.216      871.207
10/04/2013  23:34:00     -102.177      -19.626      -20.370       23.302       16.974       15.142      542.973      288.127      229.265        0.615        0.053      104.045       12.501        0.014      335.517        6.203      871.224
10/04/2013  23:35:00     -102.120      -11.277      -20.251       18.607       23.781       15.403      346.233      565.521      237.246        0.606        0.057      102.740       13.422        0.017      335.468        6.122      871.232
10/04/2013  23:36:00     -110.398      -26.656      -15.125       16.847       19.635       14.113      283.815      385.527      199.175        0.700        0.043      113.570       12.394        0.012      335.473        6.131      871.237
10/04/2013  23:37:00     -110.969      -22.208      -17.248       15.406       23.503       10.494      237.347      552.397      110.115        0.700        0.045      113.170        8.144        0.005      335.536        6.235      871.254
10/04/2013  23:38:00      -77.696      -25.548      -14.361       30.532       20.103       15.324      932.180      404.114      234.817        0.423        0.079       81.789       13.417        0.027      335.587        6.320      871.249
10/04/2013  23:39:00      -69.731      -43.972      -19.301       22.537       28.949       24.751      507.913      838.053      612.588        0.456        0.098       82.438       13.613        0.027      335.604        6.349      871.241
10/04/2013  23:40:00      -72.965      -26.048      -12.734       27.176       26.884       18.806      738.541      722.723      353.683        0.399        0.091       77.475       13.375        0.030      335.647        6.420      871.238
10/04/2013  23:41:00      -69.773      -12.858      -16.949       21.113       22.866       14.149      445.759      522.855      200.190        0.324        0.058       70.948       12.243        0.030      335.864        6.782      871.210
10/04/2013  23:42:00      -38.105      -12.314       -6.768       21.371       13.393       10.929      456.707      179.380      119.450        0.120        0.038       40.046        6.428        0.026      335.740        6.576      871.200
10/04/2013  23:43:00      -37.891       -6.653      -12.742        9.208       15.135        5.936       84.794      229.083       35.232        0.100        0.017       38.470        5.683        0.022      335.916        6.869      871.205
10/04/2013  23:44:00      -18.426      -12.095       -3.811       15.099        9.637        7.770      227.987       92.874       60.374        0.044        0.019       22.041        6.420        0.085      336.340        7.576      871.206
10/04/2013  23:45:00      -48.983      -28.151      -12.412       12.293       16.549       10.545      151.121      273.858      111.207        0.194        0.027       56.497        7.123        0.016      335.830        6.727      871.210
10/04/2013  23:46:00      -47.320      -27.603      -13.814       11.695       15.317        8.134      136.775      234.602       66.162        0.181        0.022       54.782        5.805        0.011      335.814        6.698      871.218
10/04/2013  23:47:00      -68.345      -31.651      -13.387       19.015       12.206        8.727      361.552      148.986       76.157        0.322        0.029       75.318        5.042        0.004      335.639        6.407      871.229
10/04/2013  23:48:00      -89.810      -27.449      -16.085       14.603       13.978        9.917      213.258      195.387       98.340        0.479        0.025       93.911        6.362        0.005      335.422        6.045      871.242
10/04/2013  23:49:00     -100.048      -22.400      -13.002       19.394       18.916       11.862      376.130      357.832      140.716        0.578        0.044      102.525       10.133        0.010      335.378        5.971      871.267
10/04/2013  23:50:00      -99.968      -22.317      -19.547       12.717       13.692       11.272      161.728      187.460      127.056        0.567        0.024      102.428        6.273        0.004      335.294        5.831      871.288
10/04/2013  23:51:00      -89.875      -28.523      -14.506       18.237       17.495       18.270      332.602      306.070      333.788        0.504        0.049       94.293       13.545        0.021      335.374        5.965      871.291
10/04/2013  23:52:00      -83.602      -22.497      -18.725       13.276       11.622       12.534      176.242      135.080      157.090        0.416        0.023       86.576        5.254        0.004      335.380        5.975      871.298
10/04/2013  23:53:00      -91.530      -14.757      -14.659       23.270       18.297       12.866      541.485      334.788      165.537        0.493        0.052       92.712       10.787        0.014      335.511        6.193      871.329
10/04/2013  23:54:00      -82.708      -11.618      -10.539       14.735       20.027       14.115      217.118      401.061      199.220        0.395        0.041       83.520       11.662        0.019      335.567        6.286      871.338
10/04/2013  23:55:00      -85.080        0.177      -17.677       10.449       12.457        9.013      109.173      155.186       81.230        0.395        0.017       85.080        7.753        0.008      335.442        6.077      871.329
10/04/2013  23:56:00      -66.954      -12.376      -13.866       10.973        9.520        8.467      120.400       90.630       71.688        0.256        0.014       68.088        5.634        0.007      335.677        6.470      871.323
10/04/2013  23:57:00      -47.437       -2.829       -2.484        8.467        8.247        6.377       71.688       68.011       40.664        0.122        0.009       47.521        4.132        0.008      336.212        7.361      871.318
10/04/2013  23:58:00      -12.096      -15.402       -1.575       14.079       13.597        8.814      198.217      184.873       77.682        0.042        0.023       19.584        9.171        0.219      336.479        7.810      871.319
10/04/2013  23:59:00       -9.886      -23.451       -3.761       21.294       17.198       10.462      453.424      295.770      109.448        0.076        0.043       25.450        8.647        0.115      336.200        7.344      871.320
